ftp/pub/palmer/observations_modified/2017/November/AR171124_BASE.txt

Download

Sample DateTime	Unit Id	WS Avg 2min	WD Avg 2min	WGS 10min	WGD 10min	Air Temp	Rel Humidity	Dew Point	Pyranometer	Quantum	Air Pressure	Snow Level	Rainfall	PW Current	Visibility	CBase 1	CBase 2	CBase 3	Vert Vis
2017/11/24 00:00:00	BASE	1.22	130	3.65	53	-2.1	65	-7.7	51	111	966.4	NA	0.0000		9999	11580	0	0	0
2017/11/24 00:01:00	BASE	1.73	152	3.24	329	-2.1	65	-7.8	50	108	966.4	NA	0.0000		9999	10040	0	0	0
2017/11/24 00:02:00	BASE	2.12	188	3.24	329	-2.1	65	-7.9	49	106	966.3	NA	0.0000		9999	11840	0	0	0
2017/11/24 00:03:00	BASE	1.95	183	2.98	201	-2.1	65	-7.9	48	103	966.2	NA	0.0000		9999	12760	0	0	0
2017/11/24 00:04:00	BASE	0.95	168	2.98	201	-2.2	65	-7.9	47	101	966.2	NA	0.0000		9999	12600	0	0	0
2017/11/24 00:05:00	BASE	0.82	166	2.98	201	-2.2	65	-7.9	46	99	966.2	NA	0.0000		9999	12860	0	0	0
2017/11/24 00:06:00	BASE	1.93	147	3.65	128	-2.2	65	-8.0	45	98	966.2	NA	0.0000		9999	12630	0	0	0
2017/11/24 00:07:00	BASE	2.71	129	4.27	104	-2.2	64	-8.0	44	96	966.2	NA	0.0000		9999	11980	0	0	0
2017/11/24 00:08:00	BASE	3.96	110	5.76	105	-2.2	64	-8.0	44	94	966.2	NA	0.0000		9999	7120	0	0	0
2017/11/24 00:09:00	BASE	3.62	105	5.76	105	-2.2	64	-8.1	43	93	966.2	NA	0.0000		9999	7450	0	0	0
2017/11/24 00:10:00	BASE	2.44	88	5.76	105	-2.2	65	-8.0	42	91	966.2	NA	0.0000		9999	7780	0	0	0
2017/11/24 00:11:00	BASE	2.05	79	5.76	105	-2.3	65	-8.0	41	89	966.2	NA	0.0000		9999	7550	0	0	0
2017/11/24 00:12:00	BASE	0.95	161	5.76	105	-2.3	65	-8.0	41	88	966.1	NA	0.0000		9999	7610	0	0	0
2017/11/24 00:13:00	BASE	0.76	229	5.76	105	-2.3	64	-8.1	40	86	966.1	NA	0.0000		9999	7420	0	0	0
2017/11/24 00:14:00	BASE	1.04	233	5.76	105	-2.2	64	-8.2	39	84	966.1	NA	0.0000		9999	6960	0	0	0
2017/11/24 00:15:00	BASE	0.71	244	5.76	105	-2.1	62	-8.4	39	83	966.1	NA	0.0000		9999	7480	0	0	0
2017/11/24 00:16:00	BASE	1.19	58	5.76	105	-2.0	61	-8.5	38	82	966.0	NA	0.0000		9999	7450	0	0	0
2017/11/24 00:17:00	BASE	3.25	78	5.76	105	-2.0	61	-8.5	37	80	965.9	NA	0.0000		9999	7510	0	0	0
2017/11/24 00:18:00	BASE	4.94	84	5.71	110	-2.0	61	-8.5	37	79	966.0	NA	0.0000		9999	7550	0	0	0
2017/11/24 00:19:00	BASE	5.21	79	5.81	69	-2.0	61	-8.5	36	78	965.9	NA	0.0000		9999	7350	0	0	0
2017/11/24 00:20:00	BASE	4.75	78	6.12	86	-2.2	63	-8.3	36	76	966.0	NA	0.0000		9999	7450	0	0	0
2017/11/24 00:21:00	BASE	3.59	65	6.12	86	-2.3	64	-8.2	35	75	966.0	NA	0.0000		9999	7280	0	0	0
2017/11/24 00:22:00	BASE	2.34	50	6.12	86	-2.4	64	-8.2	34	74	966.0	NA	0.0000		9999	7320	0	0	0
2017/11/24 00:23:00	BASE	3.04	63	6.33	82	-2.4	65	-8.1	34	73	965.8	NA	0.0000		9999	7420	0	0	0
2017/11/24 00:24:00	BASE	4.98	82	6.48	86	-2.4	65	-8.1	33	71	965.7	NA	0.0000		9999	6960	0	0	0
2017/11/24 00:25:00	BASE	4.59	90	6.48	86	-2.4	65	-8.1	33	70	965.8	NA	0.0000		9999	6920	0	0	0
2017/11/24 00:26:00	BASE	3.64	85	6.48	86	-2.4	65	-8.1	32	69	965.9	NA	0.0000		9999	6920	0	0	0
2017/11/24 00:27:00	BASE	4.00	80	6.48	86	-2.5	65	-8.1	31	67	965.8	NA	0.0000		9999	6920	0	0	0
2017/11/24 00:28:00	BASE	3.69	81	6.48	86	-2.5	65	-8.2	31	66	965.8	NA	0.0000		9999	6960	0	0	0
2017/11/24 00:29:00	BASE	3.20	91	6.48	86	-2.5	65	-8.2	30	64	965.7	NA	0.0000		9999	7120	0	0	0
2017/11/24 00:30:00	BASE	3.62	102	6.48	86	-2.5	65	-8.3	29	63	965.7	NA	0.0000		9999	6960	0	0	0
2017/11/24 00:31:00	BASE	4.14	99	6.48	86	-2.5	64	-8.3	29	62	965.6	NA	0.0000		9999	6920	0	0	0
2017/11/24 00:32:00	BASE	4.60	110	6.48	86	-2.4	64	-8.4	28	61	965.6	NA	0.0000		9999	6300	6920	0	0
2017/11/24 00:33:00	BASE	4.98	118	6.48	86	-2.4	63	-8.4	28	60	965.6	NA	0.0000		9999	6270	6890	0	0
2017/11/24 00:34:00	BASE	4.41	111	5.45	120	-2.3	63	-8.4	27	58	965.6	NA	0.0000		9999	6270	6860	0	0
2017/11/24 00:35:00	BASE	3.81	106	5.45	120	-2.3	63	-8.4	27	57	965.6	NA	0.0000		9999	6330	0	0	0
2017/11/24 00:36:00	BASE	3.44	104	5.45	120	-2.2	63	-8.4	26	56	965.6	NA	0.0000		9999	6270	0	0	0
2017/11/24 00:37:00	BASE	3.82	102	5.45	120	-2.2	63	-8.3	26	55	965.5	NA	0.0000		9999	6300	0	0	0
2017/11/24 00:38:00	BASE	4.37	107	5.45	120	-2.2	63	-8.3	25	53	965.4	NA	0.0000		9999	6270	0	0	0
2017/11/24 00:39:00	BASE	4.10	110	5.45	120	-2.2	64	-8.2	25	52	965.4	NA	0.0000		9999	6200	0	0	0
2017/11/24 00:40:00	BASE	3.95	103	5.45	120	-2.2	64	-8.1	24	51	965.4	NA	0.0000		9999	6170	0	0	0
2017/11/24 00:41:00	BASE	3.72	98	5.45	120	-2.3	64	-8.1	23	50	965.4	NA	0.0000		9999	6070	0	0	0
2017/11/24 00:42:00	BASE	3.32	102	5.40	113	-2.3	65	-8.0	23	48	965.3	NA	0.0000		9999	6070	0	0	0
2017/11/24 00:43:00	BASE	2.68	112	5.09	112	-2.2	65	-8.0	22	47	965.3	NA	0.0000		9999	5970	0	0	0
2017/11/24 00:44:00	BASE	1.94	124	5.09	112	-2.2	65	-8.0	22	46	965.3	NA	0.0000		9999	5940	0	0	0
2017/11/24 00:45:00	BASE	1.07	130	5.09	112	-2.3	64	-8.1	22	46	965.3	NA	0.0000		9999	7380	0	0	0
2017/11/24 00:46:00	BASE	0.25	132	5.09	112	-2.2	64	-8.1	21	45	965.3	NA	0.0000		9999	6140	0	0	0
2017/11/24 00:47:00	BASE	0.34	118	5.09	112	-2.2	64	-8.2	21	44	965.3	NA	0.0000		9999	6200	0	0	0
2017/11/24 00:48:00	BASE	0.61	78	5.09	112	-2.2	64	-8.2	20	43	965.3	NA	0.0000		9999	6230	0	0	0
2017/11/24 00:49:00	BASE	1.24	60	4.99	100	-2.1	64	-8.1	19	42	965.2	NA	0.0000		9999	6230	0	0	0
2017/11/24 00:50:00	BASE	1.87	80	3.76	100	-2.1	64	-8.0	18	40	965.2	NA	0.0000		9999	6040	6560	0	0
2017/11/24 00:51:00	BASE	1.90	96	3.65	101	-2.1	64	-8.0	18	39	965.2	NA	0.0000		9999	6100	0	0	0
2017/11/24 00:52:00	BASE	2.22	87	3.09	73	-2.1	64	-7.9	17	38	965.2	NA	0.0000		9999	6100	0	0	0
2017/11/24 00:53:00	BASE	2.17	80	3.09	73	-2.1	65	-7.9	16	36	965.2	NA	0.0000		9999	5940	0	0	0
2017/11/24 00:54:00	BASE	2.07	93	3.09	73	-2.1	65	-7.8	15	35	965.2	NA	0.0000		9999	5710	0	0	0
2017/11/24 00:55:00	BASE	2.01	103	3.09	73	-2.1	65	-7.8	14	34	965.2	NA	0.0000		9999	6370	0	0	0
2017/11/24 00:56:00	BASE	1.57	97	3.09	73	-2.1	65	-7.8	14	32	965.1	NA	0.0000		9999	5640	0	0	0
2017/11/24 00:57:00	BASE	1.30	99	3.09	73	-2.2	65	-7.8	13	31	965.1	NA	0.0000		9999	6230	0	0	0
2017/11/24 00:58:00	BASE	1.00	112	3.09	73	-2.1	65	-7.8	12	30	965.1	NA	0.0000		9999	6140	0	0	0
2017/11/24 00:59:00	BASE	0.75	110	3.09	73	-2.1	65	-7.8	11	29	965.0	NA	0.0000		9999	6330	0	0	0
2017/11/24 01:00:00	BASE	1.05	108	3.09	73	-2.1	65	-7.7	11	28	964.9	NA	0.0000		9999	6230	0	0	0
2017/11/24 01:01:00	BASE	1.56	108	3.09	73	-2.1	65	-7.7	10	27	964.9	NA	0.0000		9999	6170	0	0	0
2017/11/24 01:02:00	BASE	1.75	112	2.47	94	-2.2	66	-7.7	10	27	964.9	NA	0.0000		9999	6000	11090	0	0
2017/11/24 01:03:00	BASE	1.88	123	2.47	94	-2.2	66	-7.7	10	26	964.9	NA	0.0000		9999	5940	0	0	0
2017/11/24 01:04:00	BASE	2.03	132	2.37	135	-2.2	66	-7.7	10	26	964.8	NA	0.0000		9999	5970	0	0	0
2017/11/24 01:05:00	BASE	1.97	130	2.37	135	-2.2	66	-7.7	9	25	964.8	NA	0.0000		9999	6000	0	0	0
2017/11/24 01:06:00	BASE	2.00	118	2.42	113	-2.3	66	-7.7	9	25	964.8	NA	0.0000		9999	4950	0	0	0
2017/11/24 01:07:00	BASE	2.29	109	2.83	101	-2.3	67	-7.7	9	24	964.8	NA	0.0000		9999	5050	0	0	0
2017/11/24 01:08:00	BASE	2.54	107	2.88	108	-2.3	67	-7.6	9	24	964.8	NA	0.0000		9999	5090	0	0	0
2017/11/24 01:09:00	BASE	2.42	117	2.88	108	-2.3	66	-7.7	9	24	964.7	NA	0.0000		9999	5580	0	0	0
2017/11/24 01:10:00	BASE	2.27	124	2.88	108	-2.3	66	-7.8	9	24	964.7	NA	0.0000		9999	5680	0	0	0
2017/11/24 01:11:00	BASE	2.19	121	2.88	108	-2.3	66	-7.9	9	24	964.7	NA	0.0000		9999	5640	0	0	0
2017/11/24 01:12:00	BASE	2.07	127	2.88	108	-2.3	65	-8.0	9	23	964.6	NA	0.0000		9999	5540	0	0	0
2017/11/24 01:13:00	BASE	2.00	138	2.88	108	-2.3	65	-8.0	9	23	964.6	NA	0.0000		9999	5740	6270	0	0
2017/11/24 01:14:00	BASE	2.39	133	3.09	127	-2.3	65	-7.9	10	23	964.6	NA	0.0000		9999	5680	0	0	0
2017/11/24 01:15:00	BASE	2.87	126	3.09	127	-2.3	66	-7.8	10	22	964.6	NA	0.0000		9999	5580	0	0	0
2017/11/24 01:16:00	BASE	2.90	127	3.09	127	-2.3	66	-7.8	10	22	964.5	NA	0.0000		9999	5450	5940	0	0
2017/11/24 01:17:00	BASE	2.96	130	3.24	133	-2.3	67	-7.7	10	22	964.5	NA	0.0000		9999	5810	0	0	0
2017/11/24 01:18:00	BASE	2.81	129	3.24	133	-2.3	67	-7.7	10	22	964.5	NA	0.0000		9999	5740	0	0	0
2017/11/24 01:19:00	BASE	2.58	127	3.24	133	-2.4	67	-7.7	10	21	964.5	NA	0.0000		9999	5580	14930	0	0
2017/11/24 01:20:00	BASE	2.39	126	3.24	133	-2.4	66	-7.8	9	21	964.4	NA	0.0000		9999	5540	0	0	0
2017/11/24 01:21:00	BASE	2.15	136	3.24	133	-2.4	66	-7.8	9	20	964.3	NA	0.0000		9999	5710	0	0	0
2017/11/24 01:22:00	BASE	2.39	149	3.40	145	-2.4	66	-7.9	9	20	964.3	NA	0.0000		9999	5710	0	0	0
2017/11/24 01:23:00	BASE	2.58	144	3.40	145	-2.4	66	-7.9	9	19	964.2	NA	0.0000		9999	5580	0	0	0
2017/11/24 01:24:00	BASE	2.24	135	3.40	145	-2.3	66	-7.9	9	19	964.2	NA	0.0000		9999	5540	0	0	0
2017/11/24 01:25:00	BASE	2.13	125	3.40	145	-2.3	66	-7.9	8	18	964.2	NA	0.0000		9999	5510	0	0	0
2017/11/24 01:26:00	BASE	2.62	116	3.45	119	-2.3	65	-7.9	8	18	964.2	NA	0.0000		9999	5480	0	0	0
2017/11/24 01:27:00	BASE	2.66	117	3.45	119	-2.3	65	-8.0	8	17	964.2	NA	0.0000		9999	5320	0	0	0
2017/11/24 01:28:00	BASE	2.45	115	3.45	119	-2.3	65	-8.0	7	16	964.2	NA	0.0000		9999	5320	0	0	0
2017/11/24 01:29:00	BASE	2.91	109	3.76	111	-2.4	65	-8.0	6	15	964.2	NA	0.0000		9999	5220	0	0	0
2017/11/24 01:30:00	BASE	3.57	104	4.99	99	-2.4	66	-8.0	6	15	964.2	NA	0.0000		9999	5090	0	0	0
2017/11/24 01:31:00	BASE	4.44	100	5.40	96	-2.4	66	-7.8	6	14	964.1	NA	0.0000		9999	5180	0	0	0
2017/11/24 01:32:00	BASE	4.62	97	5.40	96	-2.4	67	-7.7	5	13	964.1	NA	0.0000		9999	5050	0	0	0
2017/11/24 01:33:00	BASE	4.49	98	5.61	102	-2.3	68	-7.5	5	13	964.1	NA	0.0000		9999	4920	0	0	0
2017/11/24 01:34:00	BASE	4.72	99	5.61	102	-2.3	68	-7.3	5	12	964.1	NA	0.0000		9999	4760	0	0	0
2017/11/24 01:35:00	BASE	4.80	100	5.61	102	-2.2	69	-7.2	4	11	964.0	NA	0.0000		9999	5050	0	0	0
2017/11/24 01:36:00	BASE	4.76	97	5.61	102	-2.2	69	-7.1	4	11	964.0	NA	0.0000		9999	5150	0	0	0
2017/11/24 01:37:00	BASE	4.64	95	5.61	102	-2.2	69	-7.1	4	11	964.0	NA	0.0000		9999	5120	0	0	0
2017/11/24 01:38:00	BASE	4.30	100	5.61	102	-2.2	69	-7.2	4	10	964.0	NA	0.0000		9999	5150	0	0	0
2017/11/24 01:39:00	BASE	3.60	113	5.61	102	-2.1	69	-7.1	4	10	964.0	NA	0.0000		9999	5250	0	0	0
2017/11/24 01:40:00	BASE	3.11	123	5.61	102	-2.2	69	-7.2	4	9	963.9	NA	0.0000		9999	5710	0	0	0
2017/11/24 01:41:00	BASE	3.16	130	5.61	102	-2.2	68	-7.2	4	9	963.9	NA	0.0000		9999	5320	0	0	0
2017/11/24 01:42:00	BASE	3.12	133	5.61	102	-2.2	68	-7.2	3	8	963.9	NA	0.0000		9999	5350	0	0	0
2017/11/24 01:43:00	BASE	3.06	130	5.50	99	-2.2	68	-7.3	3	8	963.9	NA	0.0000		9999	5770	0	0	0
2017/11/24 01:44:00	BASE	3.16	129	5.45	105	-2.1	67	-7.4	3	8	963.9	NA	0.0000		9999	5480	0	0	0
2017/11/24 01:45:00	BASE	3.08	119	4.99	97	-2.1	67	-7.5	3	7	963.8	NA	0.0000		9999	6000	0	0	0
2017/11/24 01:46:00	BASE	2.87	110	4.84	87	-2.1	66	-7.6	3	7	963.8	NA	0.0000		9999	4560	0	0	0
2017/11/24 01:47:00	BASE	2.81	110	4.63	99	-2.1	65	-7.7	3	7	963.7	NA	0.0000		9999	5320	0	0	0
2017/11/24 01:48:00	BASE	2.79	119	3.86	123	-2.1	65	-7.8	3	7	963.7	NA	0.0000		9999	4760	0	0	0
2017/11/24 01:49:00	BASE	2.46	129	3.50	142	-2.1	64	-7.9	2	6	963.7	NA	0.0000		9999	4430	0	0	0
2017/11/24 01:50:00	BASE	2.07	134	3.50	142	-2.1	64	-8.0	2	6	963.6	NA	0.0000		9999	5280	0	0	0
2017/11/24 01:51:00	BASE	1.93	134	3.45	126	-2.0	64	-7.9	2	6	963.6	NA	0.0000		9999	4820	0	0	0
2017/11/24 01:52:00	BASE	2.15	124	3.45	126	-2.0	64	-7.9	2	6	963.6	NA	0.0000		9999	4760	0	0	0
2017/11/24 01:53:00	BASE	2.26	127	3.45	126	-2.0	65	-7.8	2	5	963.6	NA	0.0000		9999	4790	0	0	0
2017/11/24 01:54:00	BASE	2.15	136	3.24	112	-2.0	65	-7.7	2	5	963.6	NA	0.0000		9999	4890	0	0	0
2017/11/24 01:55:00	BASE	2.16	137	3.24	112	-2.1	65	-7.7	2	5	963.6	NA	0.0000		9999	4820	0	0	0
2017/11/24 01:56:00	BASE	2.24	135	3.24	112	-2.1	66	-7.6	2	5	963.6	NA	0.0000		9999	6100	0	0	0
2017/11/24 01:57:00	BASE	2.36	134	3.24	112	-2.1	66	-7.6	2	4	963.6	NA	0.0000		9999	5120	0	0	0
2017/11/24 01:58:00	BASE	2.55	137	3.24	112	-2.1	67	-7.5	2	4	963.5	NA	0.0000		9999	5350	0	0	0
2017/11/24 01:59:00	BASE	2.54	132	3.24	112	-2.1	67	-7.4	2	4	963.5	NA	0.0000		9999	5350	0	0	0
2017/11/24 02:00:00	BASE	2.45	128	3.24	112	-2.0	67	-7.3	1	4	963.5	NA	0.0000		9999	4860	0	0	0
2017/11/24 02:01:00	BASE	2.69	130	3.45	130	-2.0	68	-7.2	1	4	963.4	NA	0.0000		9999	4590	5380	0	0
2017/11/24 02:02:00	BASE	3.04	130	3.65	117	-2.0	68	-7.1	1	4	963.4	NA	0.0000		9999	5350	0	0	0
2017/11/24 02:03:00	BASE	3.14	133	3.65	117	-2.0	69	-7.0	1	4	963.4	NA	0.0000		9999	5320	0	0	0
2017/11/24 02:04:00	BASE	2.99	136	3.65	117	-2.0	69	-7.0	1	3	963.4	NA	0.0000		9999	5250	0	0	0
2017/11/24 02:05:00	BASE	2.81	132	3.65	117	-2.0	69	-6.9	1	3	963.4	NA	0.0000		9999	5280	0	0	0
2017/11/24 02:06:00	BASE	2.71	132	3.65	117	-2.0	69	-6.9	1	3	963.4	NA	0.0000		9999	4400	0	0	0
2017/11/24 02:07:00	BASE	2.82	138	3.65	117	-2.0	69	-6.9	1	3	963.3	NA	0.0000		9999	4490	0	0	0
2017/11/24 02:08:00	BASE	3.01	139	3.65	117	-2.0	69	-6.9	1	3	963.3	NA	0.0000		9999	4460	0	0	0
2017/11/24 02:09:00	BASE	2.99	138	3.65	117	-2.0	69	-6.9	1	3	963.3	NA	0.0000		9999	5120	0	0	0
2017/11/24 02:10:00	BASE	2.81	140	3.65	117	-2.0	69	-7.0	1	3	963.3	NA	0.0000		9999	4070	0	0	0
2017/11/24 02:11:00	BASE	2.91	139	3.76	128	-2.0	68	-7.0	1	2	963.3	NA	0.0000		9999	3940	5640	0	0
2017/11/24 02:12:00	BASE	3.17	134	3.76	128	-2.0	68	-7.1	1	2	963.3	NA	0.0000		9999	3970	5510	0	0
2017/11/24 02:13:00	BASE	3.09	131	3.76	128	-1.9	68	-7.1	1	2	963.3	NA	0.0000		9999	4330	0	0	0
2017/11/24 02:14:00	BASE	3.22	134	4.37	136	-1.9	68	-7.1	1	2	963.2	NA	0.0000		9999	5770	0	0	0
2017/11/24 02:15:00	BASE	3.49	133	4.37	136	-1.9	68	-7.1	1	2	963.2	NA	0.0000		9999	3900	0	0	0
2017/11/24 02:16:00	BASE	3.44	131	4.37	136	-1.9	68	-7.1	1	2	963.2	NA	0.0000		9999	4100	0	0	0
2017/11/24 02:17:00	BASE	3.64	132	4.37	136	-1.9	68	-7.0	1	2	963.1	NA	0.0000		9999	4430	0	0	0
2017/11/24 02:18:00	BASE	3.74	133	4.37	136	-1.9	68	-7.0	1	2	963.1	NA	0.0000		9999	4200	0	0	0
2017/11/24 02:19:00	BASE	3.57	128	4.37	136	-1.9	68	-7.0	1	2	963.1	NA	0.0000		9999	4330	0	0	0
2017/11/24 02:20:00	BASE	4.04	116	5.09	101	-1.9	68	-7.0	1	2	963.1	NA	0.0000		9999	4820	0	0	0
2017/11/24 02:21:00	BASE	3.81	109	5.09	101	-1.9	68	-7.1	1	2	963.1	NA	0.0000		9999	4690	0	0	0
2017/11/24 02:22:00	BASE	3.12	118	5.09	101	-1.9	67	-7.2	1	1	963.0	NA	0.0000		9999	4330	0	0	0
2017/11/24 02:23:00	BASE	3.26	121	5.09	101	-1.9	66	-7.3	1	1	962.9	NA	0.0000		9999	5320	0	0	0
2017/11/24 02:24:00	BASE	3.45	120	5.09	101	-1.9	66	-7.4	1	1	962.9	NA	0.0000		9999	5250	0	0	0
2017/11/24 02:25:00	BASE	3.83	118	5.14	110	-1.9	66	-7.4	1	1	962.9	NA	0.0000		9999	4400	0	0	0
2017/11/24 02:26:00	BASE	4.20	110	5.14	110	-1.9	66	-7.4	1	1	962.9	NA	0.0000		9999	5220	0	0	0
2017/11/24 02:27:00	BASE	3.96	103	5.14	110	-1.8	66	-7.3	1	1	962.9	NA	0.0000		9999	4230	0	0	0
2017/11/24 02:28:00	BASE	3.90	97	5.14	110	-1.8	66	-7.3	0	1	962.9	NA	0.0000		9999	4490	0	0	0
2017/11/24 02:29:00	BASE	4.07	93	5.14	110	-1.8	66	-7.3	0	1	962.9	NA	0.0000		9999	5410	0	0	0
2017/11/24 02:30:00	BASE	3.96	101	5.14	110	-1.7	65	-7.4	0	1	962.9	NA	0.0000		9999	5380	0	0	0
2017/11/24 02:31:00	BASE	3.70	116	5.14	110	-1.7	65	-7.4	0	1	962.8	NA	0.0000		9999	5680	0	0	0
2017/11/24 02:32:00	BASE	3.57	126	5.14	110	-1.7	65	-7.4	0	1	962.8	NA	0.0000		9999	4890	0	0	0
2017/11/24 02:33:00	BASE	3.54	130	5.14	110	-1.7	65	-7.4	0	1	962.8	NA	0.0000		9999	4430	0	0	0
2017/11/24 02:34:00	BASE	3.31	134	5.14	110	-1.7	66	-7.3	0	1	962.8	NA	0.0000		9999	4530	0	0	0
2017/11/24 02:35:00	BASE	2.93	136	5.14	110	-1.7	66	-7.2	0	1	962.8	NA	0.0000		9999	4690	0	0	0
2017/11/24 02:36:00	BASE	2.26	129	4.68	100	-1.7	67	-7.0	0	1	962.8	NA	0.0000		9999	5150	0	0	0
2017/11/24 02:37:00	BASE	1.94	121	4.68	100	-1.7	68	-6.8	0	1	962.8	NA	0.0000		9999	4990	0	0	0
2017/11/24 02:38:00	BASE	2.11	123	4.32	106	-1.7	69	-6.7	0	1	962.8	NA	0.0000		9999	5050	0	0	0
2017/11/24 02:39:00	BASE	2.10	128	4.22	106	-1.7	69	-6.6	0	1	962.7	NA	0.0000		9999	5740	0	0	0
2017/11/24 02:40:00	BASE	1.91	134	4.01	124	-1.7	69	-6.6	0	1	962.7	NA	0.0000		9999	4920	0	0	0
2017/11/24 02:41:00	BASE	1.70	136	4.01	124	-1.8	70	-6.6	0	1	962.7	NA	0.0000		9999	4530	0	0	0
2017/11/24 02:42:00	BASE	1.39	125	3.91	132	-1.8	69	-6.7	0	1	962.7	NA	0.0000		9999	4560	0	0	0
2017/11/24 02:43:00	BASE	0.98	102	3.29	131	-1.7	69	-6.7	0	1	962.7	NA	0.0000		9999	4660	0	0	0
2017/11/24 02:44:00	BASE	1.10	85	3.09	138	-1.7	69	-6.7	0	1	962.7	NA	0.0000		9999	4460	0	0	0
2017/11/24 02:45:00	BASE	1.31	83	2.37	126	-1.7	69	-6.7	0	1	962.7	NA	0.0000		9999	4630	0	0	0
2017/11/24 02:46:00	BASE	0.59	94	2.37	126	-1.7	68	-6.8	0	1	962.6	NA	0.0000		9999	4230	0	0	0
2017/11/24 02:47:00	BASE	0.05	99	2.37	126	-1.7	68	-6.8	0	1	962.6	NA	0.0000		9999	4300	0	0	0
2017/11/24 02:48:00	BASE	0.59	84	2.31	61	-1.7	68	-6.8	0	1	962.6	NA	0.0000		9999	4100	0	0	0
2017/11/24 02:49:00	BASE	1.62	77	2.68	103	-1.7	68	-6.9	0	1	962.6	NA	0.0000		9999	4130	0	0	0
2017/11/24 02:50:00	BASE	2.11	87	2.78	59	-1.7	67	-7.0	0	1	962.6	NA	0.0000		9999	4200	0	0	0
2017/11/24 02:51:00	BASE	1.96	110	2.78	59	-1.7	67	-7.0	0	0	962.5	NA	0.0000		9999	4230	0	0	0
2017/11/24 02:52:00	BASE	1.66	127	2.78	59	-1.7	67	-7.0	0	0	962.5	NA	0.0000		9999	4920	0	0	0
2017/11/24 02:53:00	BASE	2.36	94	4.17	60	-1.7	68	-6.9	0	0	962.5	NA	0.0000		9999	4690	0	0	0
2017/11/24 02:54:00	BASE	3.78	68	5.09	73	-1.7	68	-6.9	0	0	962.5	NA	0.0000		9999	4790	0	0	0
2017/11/24 02:55:00	BASE	4.62	67	5.45	65	-1.7	68	-6.8	0	0	962.5	NA	0.0000		9999	4590	0	0	0
2017/11/24 02:56:00	BASE	4.78	65	5.45	65	-1.7	68	-6.8	0	0	962.5	NA	0.0000		9999	4400	0	0	0
2017/11/24 02:57:00	BASE	4.60	69	5.45	65	-1.6	68	-6.8	0	0	962.5	NA	0.0000		9999	4170	0	0	0
2017/11/24 02:58:00	BASE	4.32	71	5.45	65	-1.6	67	-6.9	0	0	962.5	NA	0.0000		9999	4170	0	0	0
2017/11/24 02:59:00	BASE	4.27	70	5.45	65	-1.6	67	-6.9	0	0	962.4	NA	0.0000		9999	4040	0	0	0
2017/11/24 03:00:00	BASE	4.27	67	5.45	65	-1.7	68	-6.9	0	0	962.3	NA	0.0000		9999	4040	0	0	0
2017/11/24 03:01:00	BASE	4.00	64	5.45	65	-1.7	68	-6.9	0	0	962.3	NA	0.0000		9999	4040	0	0	0
2017/11/24 03:02:00	BASE	4.05	63	5.45	65	-1.8	68	-6.8	0	0	962.4	NA	0.0000		9999	3970	0	0	0
2017/11/24 03:03:00	BASE	4.32	65	5.45	65	-1.8	68	-6.8	0	0	962.3	NA	0.0000		9999	3670	0	0	0
2017/11/24 03:04:00	BASE	4.17	69	5.45	65	-1.8	68	-6.9	0	0	962.3	NA	0.0000		9999	3510	0	0	0
2017/11/24 03:05:00	BASE	4.06	70	5.14	58	-1.8	68	-6.9	0	0	962.3	NA	0.0000		9999	3900	0	0	0
2017/11/24 03:06:00	BASE	4.97	69	6.43	68	-1.8	68	-7.0	0	0	962.3	NA	0.0000		9999	3870	0	0	0
2017/11/24 03:07:00	BASE	5.81	67	6.43	68	-1.7	67	-7.0	0	0	962.3	NA	0.0000		9999	3640	0	0	0
2017/11/24 03:08:00	BASE	5.63	67	6.43	68	-1.7	67	-7.1	0	0	962.3	NA	0.0000		9999	4070	0	0	0
2017/11/24 03:09:00	BASE	5.26	68	6.43	68	-1.8	67	-7.1	0	0	962.3	NA	0.0000		9999	4130	0	0	0
2017/11/24 03:10:00	BASE	5.07	70	6.43	68	-1.8	67	-7.1	0	0	962.3	NA	0.0000		9999	4070	0	0	0
2017/11/24 03:11:00	BASE	4.71	73	6.43	68	-1.8	67	-7.1	0	0	962.3	NA	0.0000		9999	3870	0	0	0
2017/11/24 03:12:00	BASE	4.61	74	6.43	68	-1.8	68	-7.0	0	0	962.3	NA	0.0000		9999	3740	0	0	0
2017/11/24 03:13:00	BASE	4.68	74	6.43	68	-1.8	68	-7.0	0	0	962.3	NA	0.0000		9999	0	0	0	4490
2017/11/24 03:14:00	BASE	4.54	75	6.43	68	-1.9	68	-6.9	0	0	962.3	NA	0.0000		9999	0	0	0	4300
2017/11/24 03:15:00	BASE	4.54	76	6.43	68	-1.9	69	-6.9	0	0	962.3	NA	0.0000		9999	0	0	0	4130
2017/11/24 03:16:00	BASE	4.91	74	6.33	64	-1.9	69	-6.8	0	0	962.3	NA	0.0000		9999	0	0	0	4230
2017/11/24 03:17:00	BASE	5.13	74	5.81	69	-1.9	69	-6.8	0	0	962.3	NA	0.0000		9999	0	0	0	4400
2017/11/24 03:18:00	BASE	5.21	76	5.97	77	-2.0	70	-6.8	0	0	962.3	NA	0.0000		9999	4000	0	0	0
2017/11/24 03:19:00	BASE	5.07	77	5.97	77	-2.0	70	-6.8	0	0	962.3	NA	0.0000		9999	3900	0	0	0
2017/11/24 03:20:00	BASE	4.61	82	5.97	77	-2.0	70	-6.7	0	0	962.3	NA	0.0000		9999	3900	0	0	0
2017/11/24 03:21:00	BASE	4.43	85	5.97	77	-2.0	71	-6.6	0	0	962.3	NA	0.0000		9999	3900	0	0	0
2017/11/24 03:22:00	BASE	4.31	85	5.97	77	-2.0	71	-6.5	0	0	962.2	NA	0.0000		9999	3740	0	0	0
2017/11/24 03:23:00	BASE	4.32	82	5.97	77	-2.0	72	-6.4	0	0	962.3	NA	0.0000		9999	3510	0	0	0
2017/11/24 03:24:00	BASE	4.37	83	5.97	77	-2.0	72	-6.3	0	0	962.2	NA	0.0000		9999	3580	0	0	0
2017/11/24 03:25:00	BASE	4.27	88	5.97	77	-2.0	73	-6.3	0	0	962.2	NA	0.0000		9999	3480	0	0	0
2017/11/24 03:26:00	BASE	4.15	94	5.97	77	-2.0	73	-6.2	0	0	962.2	NA	0.0000		9999	3580	0	0	0
2017/11/24 03:27:00	BASE	3.92	97	5.97	77	-2.0	73	-6.2	0	0	962.2	NA	0.0000	UP	9999	3540	0	0	0
2017/11/24 03:28:00	BASE	3.61	97	5.25	77	-1.9	73	-6.2	0	0	962.2	NA	0.0000	UP	9999	3410	0	0	0
2017/11/24 03:29:00	BASE	3.23	96	4.94	88	-1.9	72	-6.2	0	0	962.2	NA	0.0000	UP	9999	3280	0	0	0
2017/11/24 03:30:00	BASE	3.45	96	4.89	83	-1.9	72	-6.3	0	0	962.1	NA	0.0000	UP	9999	3350	0	0	0
2017/11/24 03:31:00	BASE	3.90	93	4.89	83	-1.9	72	-6.3	0	0	962.1	NA	0.0000	UP	9999	3310	0	0	0
2017/11/24 03:32:00	BASE	3.72	87	4.89	83	-1.9	73	-6.2	0	0	962.1	NA	0.0000	UP	9999	0	0	0	3710
2017/11/24 03:33:00	BASE	3.20	87	4.68	90	-2.0	73	-6.2	0	0	962.1	NA	0.0000	UP	9999	0	0	0	3770
2017/11/24 03:34:00	BASE	3.05	92	4.48	90	-2.0	73	-6.2	0	0	962.1	NA	0.0000	UP	9999	0	0	0	3810
2017/11/24 03:35:00	BASE	2.95	90	4.42	100	-2.0	73	-6.2	0	0	962.1	NA	0.0000	UP	9999	0	0	0	3870
2017/11/24 03:36:00	BASE	2.60	86	4.32	92	-2.0	73	-6.2	0	0	962.1	NA	0.0000	UP	9999	0	0	0	3870
2017/11/24 03:37:00	BASE	2.47	84	4.32	92	-2.0	72	-6.3	0	0	962.0	NA	0.0000	UP	9999	0	0	0	3770
2017/11/24 03:38:00	BASE	2.45	87	4.32	92	-2.0	73	-6.3	0	0	962.0	NA	0.0000	UP	9999	0	0	0	3810
2017/11/24 03:39:00	BASE	2.42	93	4.32	92	-2.0	73	-6.2	0	0	962.0	NA	0.0000	UP	9999	0	0	0	3670
2017/11/24 03:40:00	BASE	2.19	93	4.32	92	-2.0	74	-6.1	0	0	962.0	NA	0.0000	UP	9999	0	0	0	3900
2017/11/24 03:41:00	BASE	2.12	87	3.76	86	-2.0	74	-6.0	0	0	962.0	NA	0.0000	UP	9999	0	0	0	3940
2017/11/24 03:42:00	BASE	2.42	81	3.60	98	-2.0	75	-5.9	0	0	962.0	NA	0.0000	UP	9999	0	0	0	4000
2017/11/24 03:43:00	BASE	2.71	83	3.60	98	-2.0	75	-5.8	0	0	962.0	NA	0.0000	UP	9999	0	0	0	4000
2017/11/24 03:44:00	BASE	2.69	88	3.29	83	-2.0	75	-5.9	0	0	962.0	NA	0.0000	UP	9999	0	0	0	4200
2017/11/24 03:45:00	BASE	2.45	86	3.09	87	-2.0	75	-5.9	0	0	962.0	NA	0.0000	UP	9999	0	0	0	4330
2017/11/24 03:46:00	BASE	2.40	81	3.09	87	-2.0	74	-5.9	0	0	962.0	NA	0.0000	UP	9999	0	0	0	4070
2017/11/24 03:47:00	BASE	2.60	81	3.09	87	-2.0	74	-5.9	0	0	962.0	NA	0.0000	UP	9999	0	0	0	4040
2017/11/24 03:48:00	BASE	2.83	89	3.19	98	-2.0	75	-5.9	0	0	961.9	NA	0.0000	UP	9999	0	0	0	4130
2017/11/24 03:49:00	BASE	2.91	96	3.19	98	-2.0	75	-5.8	0	0	961.8	NA	0.0000	UP	9999	0	0	0	3970
2017/11/24 03:50:00	BASE	3.19	96	3.91	92	-2.0	76	-5.7	0	0	961.8	NA	0.0000	UP	9999	0	0	0	3970
2017/11/24 03:51:00	BASE	3.47	96	3.91	92	-2.0	76	-5.6	0	0	961.8	NA	0.0000	UP	9999	0	0	0	4230
2017/11/24 03:52:00	BASE	3.43	98	3.91	92	-2.0	77	-5.6	0	0	961.8	NA	0.0000	UP	9999	0	0	0	4070
2017/11/24 03:53:00	BASE	3.47	102	3.91	92	-2.0	77	-5.5	0	0	961.7	NA	0.0000	UP	9999	0	0	0	4100
2017/11/24 03:54:00	BASE	3.26	106	3.91	92	-2.1	77	-5.6	0	0	961.7	NA	0.0000	UP	9999	0	0	0	4100
2017/11/24 03:55:00	BASE	3.13	104	3.91	92	-2.1	77	-5.6	0	0	961.7	NA	0.0000	UP	9999	3810	0	0	0
2017/11/24 03:56:00	BASE	3.16	102	3.91	92	-2.1	76	-5.7	0	0	961.7	NA	0.0000	UP	9999	4040	0	0	0
2017/11/24 03:57:00	BASE	2.84	106	3.91	92	-2.1	76	-5.8	0	0	961.7	NA	0.0000	UP	9999	4230	0	0	0
2017/11/24 03:58:00	BASE	2.62	107	3.91	92	-2.1	75	-5.9	0	0	961.7	NA	0.0000	UP	9999	4230	0	0	0
2017/11/24 03:59:00	BASE	2.77	100	3.91	92	-2.1	75	-5.9	0	0	961.7	NA	0.0000	UP	9999	0	0	0	4330
2017/11/24 04:00:00	BASE	2.84	93	3.81	96	-2.1	75	-6.0	0	0	961.7	NA	0.0000	UP	9999	3900	0	0	0
2017/11/24 04:01:00	BASE	2.96	92	3.76	101	-2.1	75	-5.9	0	0	961.6	NA	0.0000	UP	9999	4820	0	0	0
2017/11/24 04:02:00	BASE	3.51	92	4.12	92	-2.1	75	-5.9	0	0	961.6	NA	0.0000	UP	9999	4040	0	0	0
2017/11/24 04:03:00	BASE	4.20	95	5.35	98	-2.1	76	-5.8	0	0	961.6	NA	0.0000	UP	9999	0	0	0	4560
2017/11/24 04:04:00	BASE	5.20	103	6.48	111	-2.1	76	-5.8	0	0	961.5	NA	0.0000	UP	9999	0	0	0	4530
2017/11/24 04:05:00	BASE	5.69	111	6.48	111	-2.2	77	-5.7	0	0	961.5	NA	0.0000	UP	7000	3610	0	0	0
2017/11/24 04:06:00	BASE	5.18	115	6.48	111	-2.2	77	-5.7	0	0	961.5	NA	0.0000	UP	6000	0	0	0	5250
2017/11/24 04:07:00	BASE	4.92	117	6.48	111	-2.3	78	-5.6	0	0	961.5	NA	0.0000	-SN	7000	4000	0	0	0
2017/11/24 04:08:00	BASE	4.85	118	6.48	111	-2.3	78	-5.6	0	0	961.5	NA	0.0000	-SN	9999	3840	0	0	0
2017/11/24 04:09:00	BASE	4.70	121	6.48	111	-2.4	79	-5.5	0	0	961.5	NA	0.0000	-SN	9999	3540	0	0	0
2017/11/24 04:10:00	BASE	4.52	118	6.48	111	-2.5	80	-5.4	0	0	961.5	NA	0.0000	-SN	9999	0	0	0	4690
2017/11/24 04:11:00	BASE	4.28	117	6.48	111	-2.5	81	-5.4	0	0	961.5	NA	0.0000	-SN	9999	0	0	0	4460
2017/11/24 04:12:00	BASE	4.12	118	6.48	111	-2.5	82	-5.2	0	0	961.4	NA	0.0000	-SN	8000	0	0	0	4230
2017/11/24 04:13:00	BASE	4.08	119	6.48	111	-2.5	82	-5.1	0	0	961.4	NA	0.0000	-SN	9999	0	0	0	4200
2017/11/24 04:14:00	BASE	4.00	119	6.02	113	-2.6	83	-5.1	0	0	961.4	NA	0.0000	-SN	9000	0	0	0	4100
2017/11/24 04:15:00	BASE	3.82	120	5.81	119	-2.6	84	-5.0	0	0	961.4	NA	0.0000	-SN	9999	0	0	0	4330
2017/11/24 04:16:00	BASE	3.80	117	5.81	119	-2.6	84	-4.9	0	0	961.4	NA	0.0000	-SN	9999	0	0	0	4270
2017/11/24 04:17:00	BASE	3.95	110	5.09	118	-2.6	85	-4.8	0	0	961.3	NA	0.0000	-SN	9999	0	0	0	4300
2017/11/24 04:18:00	BASE	4.50	104	5.61	111	-2.6	85	-4.8	0	0	961.3	NA	0.0000	-SN	9999	0	0	0	4490
2017/11/24 04:19:00	BASE	5.18	102	5.81	104	-2.6	86	-4.7	0	0	961.2	NA	0.0000	-SN	9999	0	0	0	4530
2017/11/24 04:20:00	BASE	5.25	104	5.81	104	-2.6	86	-4.6	0	0	961.2	NA	0.0000	-SN	9999	0	0	0	4660
2017/11/24 04:21:00	BASE	5.08	104	5.81	104	-2.6	87	-4.6	0	0	961.2	NA	0.0000	-SN	9999	0	0	0	4720
2017/11/24 04:22:00	BASE	5.31	102	5.86	100	-2.7	87	-4.5	0	0	961.1	NA	0.0000	-SN	9999	0	0	0	4360
2017/11/24 04:23:00	BASE	5.32	103	5.86	100	-2.7	87	-4.5	0	0	961.1	NA	0.0000	-SN	9999	0	0	0	4330
2017/11/24 04:24:00	BASE	5.05	102	5.86	100	-2.7	88	-4.4	0	0	961.1	NA	0.0000	-SN	9999	0	0	0	4460
2017/11/24 04:25:00	BASE	5.00	101	5.86	100	-2.7	88	-4.4	0	0	961.1	NA	0.0000	-SN	9999	0	0	0	4720
2017/11/24 04:26:00	BASE	5.07	102	5.86	100	-2.7	89	-4.3	0	0	961.1	NA	0.0000	-SN	9999	0	0	0	4720
2017/11/24 04:27:00	BASE	5.22	101	5.86	100	-2.8	89	-4.3	0	0	961.1	NA	0.0000	-SN	9999	0	0	0	4560
2017/11/24 04:28:00	BASE	5.32	102	5.86	100	-2.8	90	-4.2	0	0	961.0	NA	0.0000	-SN	9999	0	0	0	4460
2017/11/24 04:29:00	BASE	5.24	103	5.86	100	-2.8	90	-4.2	0	0	961.0	NA	0.0000	-SN	9999	0	0	0	4590
2017/11/24 04:30:00	BASE	5.57	102	6.48	100	-2.8	90	-4.2	0	0	961.0	NA	0.0000	-SN	9999	0	0	0	4790
2017/11/24 04:31:00	BASE	5.80	102	6.48	100	-2.8	90	-4.2	0	0	961.0	NA	0.0000	-SN	9999	0	0	0	4950
2017/11/24 04:32:00	BASE	5.31	104	6.48	100	-2.8	90	-4.2	0	0	961.0	NA	0.0000	-SN	9999	0	0	0	6590
2017/11/24 04:33:00	BASE	5.06	107	6.48	100	-2.8	90	-4.2	0	0	961.0	NA	0.0000	-SN	9999	0	0	0	6430
2017/11/24 04:34:00	BASE	5.31	107	6.48	100	-2.8	90	-4.2	0	0	960.9	NA	0.0000	-SN	9999	4400	0	0	0
2017/11/24 04:35:00	BASE	5.75	103	6.48	99	-2.7	89	-4.2	0	0	960.9	NA	0.0000	-SN	9999	4360	0	0	0
2017/11/24 04:36:00	BASE	6.61	99	7.72	96	-2.7	89	-4.3	0	0	960.8	NA	0.0000	-SN	9999	6100	0	0	0
2017/11/24 04:37:00	BASE	7.50	97	8.28	96	-2.7	89	-4.3	0	0	960.7	NA	0.0000	-SN	9999	6040	0	0	0
2017/11/24 04:38:00	BASE	7.90	98	8.28	96	-2.7	89	-4.3	0	0	960.6	NA	0.0000	-SN	9999	6040	0	0	0
2017/11/24 04:39:00	BASE	7.97	99	8.33	100	-2.7	88	-4.3	0	0	960.6	NA	0.0000	-SN	9999	6500	0	0	0
2017/11/24 04:40:00	BASE	7.73	101	8.33	100	-2.7	88	-4.4	0	0	960.6	NA	0.0000	-SN	9999	3410	0	0	0
2017/11/24 04:41:00	BASE	7.48	104	8.33	100	-2.6	88	-4.4	0	0	960.5	NA	0.0000	-SN	9999	3580	0	0	0
2017/11/24 04:42:00	BASE	7.52	104	8.33	100	-2.6	87	-4.4	0	0	960.4	NA	0.0000	-SN	9999	3610	0	0	0
2017/11/24 04:43:00	BASE	7.54	103	8.33	100	-2.6	87	-4.5	0	0	960.4	NA	0.0000		9999	3540	0	0	0
2017/11/24 04:44:00	BASE	7.69	104	8.49	106	-2.6	87	-4.5	0	0	960.4	NA	0.0000		9999	4490	0	0	0
2017/11/24 04:45:00	BASE	8.05	102	8.59	102	-2.6	87	-4.5	0	0	960.3	NA	0.0000		9999	4490	0	0	0
2017/11/24 04:46:00	BASE	7.94	101	8.59	102	-2.6	87	-4.5	0	0	960.4	NA	0.0000		9999	0	0	0	520
2017/11/24 04:47:00	BASE	7.87	102	8.59	102	-2.6	86	-4.6	0	0	960.3	NA	0.0000		9999	0	0	0	520
2017/11/24 04:48:00	BASE	8.08	101	8.69	94	-2.6	86	-4.6	0	0	960.3	NA	0.0000		9999	0	0	0	660
2017/11/24 04:49:00	BASE	8.04	102	8.69	94	-2.6	85	-4.7	0	0	960.3	NA	0.0000		9999	4490	0	0	0
2017/11/24 04:50:00	BASE	7.51	106	8.69	94	-2.6	85	-4.7	0	0	960.4	NA	0.0000		9999	4590	0	0	0
2017/11/24 04:51:00	BASE	7.05	110	8.69	94	-2.6	85	-4.8	0	0	960.4	NA	0.0000		9999	6460	0	0	0
2017/11/24 04:52:00	BASE	6.73	112	8.69	94	-2.6	85	-4.8	0	0	960.4	NA	0.0000		9999	6430	0	0	0
2017/11/24 04:53:00	BASE	6.33	110	8.69	94	-2.6	85	-4.8	0	0	960.4	NA	0.0000		9999	6460	0	0	0
2017/11/24 04:54:00	BASE	5.92	108	8.69	94	-2.6	84	-4.9	0	0	960.4	NA	0.0000		9999	5970	0	0	0
2017/11/24 04:55:00	BASE	5.36	109	8.69	94	-2.6	84	-4.9	0	0	960.4	NA	0.0000		9999	6400	0	0	0
2017/11/24 04:56:00	BASE	5.18	109	8.69	94	-2.5	83	-5.0	0	0	960.4	NA	0.0000		9999	5610	0	0	0
2017/11/24 04:57:00	BASE	5.66	105	8.69	94	-2.5	83	-5.0	0	0	960.3	NA	0.0000		9999	5450	0	0	0
2017/11/24 04:58:00	BASE	6.31	98	8.23	99	-2.5	83	-5.0	0	0	960.3	NA	0.0000		9999	6890	0	0	0
2017/11/24 04:59:00	BASE	6.54	93	7.97	109	-2.5	82	-5.1	0	0	960.3	NA	0.0000		9999	4590	0	0	0
2017/11/24 05:00:00	BASE	6.67	87	7.87	105	-2.4	82	-5.1	0	0	960.3	NA	0.0000		9999	6920	0	0	0
2017/11/24 05:01:00	BASE	7.01	82	9.11	85	-2.4	81	-5.1	0	0	960.2	NA	0.0000		9999	4460	0	0	0
2017/11/24 05:02:00	BASE	7.79	82	9.11	79	-2.4	81	-5.2	0	0	960.2	NA	0.0000		9999	4400	5910	0	0
2017/11/24 05:03:00	BASE	8.27	85	9.11	79	-2.3	80	-5.3	0	0	960.2	NA	0.0000		9999	4630	5910	0	0
2017/11/24 05:04:00	BASE	8.10	87	9.11	79	-2.3	79	-5.3	0	0	960.1	NA	0.0000		9999	4720	5970	0	0
2017/11/24 05:05:00	BASE	7.69	86	9.11	79	-2.2	79	-5.4	0	0	960.2	NA	0.0000		9999	4720	5970	0	0
2017/11/24 05:06:00	BASE	7.42	86	9.11	79	-2.2	78	-5.5	0	0	960.2	NA	0.0000		9999	5050	0	0	0
2017/11/24 05:07:00	BASE	7.24	86	9.11	79	-2.2	78	-5.5	0	1	960.1	NA	0.0000		9999	5940	0	0	0
2017/11/24 05:08:00	BASE	7.40	89	9.11	79	-2.3	78	-5.5	0	1	960.1	NA	0.0000		9999	5970	0	0	0
2017/11/24 05:09:00	BASE	7.68	93	9.11	79	-2.3	79	-5.5	0	1	960.1	NA	0.0000		9999	5810	6530	0	0
2017/11/24 05:10:00	BASE	7.46	99	9.11	79	-2.3	79	-5.4	0	1	960.1	NA	0.0000		9999	5910	6590	0	0
2017/11/24 05:11:00	BASE	7.23	104	9.11	79	-2.3	80	-5.3	0	0	960.1	NA	0.0000		9999	5940	0	0	0
2017/11/24 05:12:00	BASE	6.87	104	9.05	92	-2.3	81	-5.2	0	0	960.1	NA	0.0000		9999	5220	0	0	0
2017/11/24 05:13:00	BASE	6.54	103	8.49	88	-2.4	82	-5.1	0	1	960.1	NA	0.0000		9999	6000	0	0	0
2017/11/24 05:14:00	BASE	6.32	100	8.49	88	-2.4	83	-5.0	0	1	960.1	NA	0.0000		9999	4560	0	0	0
2017/11/24 05:15:00	BASE	6.14	100	8.49	88	-2.5	84	-4.9	0	1	960.1	NA	0.0000		9999	5050	0	0	0
2017/11/24 05:16:00	BASE	5.72	101	8.49	88	-2.5	84	-4.7	0	1	960.1	NA	0.0000		9999	4990	0	0	0
2017/11/24 05:17:00	BASE	5.90	100	8.49	88	-2.5	85	-4.7	0	1	960.1	NA	0.0000		9999	4590	0	0	0
2017/11/24 05:18:00	BASE	5.95	97	8.08	98	-2.5	85	-4.6	0	1	960.1	NA	0.0000		9999	4720	0	0	0
2017/11/24 05:19:00	BASE	5.41	92	8.08	98	-2.4	85	-4.7	0	1	960.1	NA	0.0000		9999	5020	0	0	0
2017/11/24 05:20:00	BASE	5.26	92	7.67	106	-2.4	85	-4.7	0	1	960.1	NA	0.0000		9999	4490	0	0	0
2017/11/24 05:21:00	BASE	5.58	97	7.41	92	-2.4	84	-4.7	0	1	960.0	NA	0.0000		9999	4890	0	0	0
2017/11/24 05:22:00	BASE	6.06	96	7.41	92	-2.4	84	-4.7	0	1	960.0	NA	0.0000		9999	5090	0	0	0
2017/11/24 05:23:00	BASE	6.04	93	7.41	92	-2.3	83	-4.8	0	1	960.0	NA	0.0000		9999	5020	0	0	0
2017/11/24 05:24:00	BASE	5.69	95	7.41	92	-2.3	83	-4.8	0	1	959.9	NA	0.0000		9999	4920	0	0	0
2017/11/24 05:25:00	BASE	5.58	96	7.41	92	-2.3	82	-4.9	0	1	959.9	NA	0.0000		9999	4860	0	0	0
2017/11/24 05:26:00	BASE	5.37	92	7.41	92	-2.2	81	-5.0	0	1	959.9	NA	0.0000		9999	5020	0	0	0
2017/11/24 05:27:00	BASE	5.06	90	7.41	92	-2.2	81	-5.0	0	1	959.9	NA	0.0000		9999	4820	0	0	0
2017/11/24 05:28:00	BASE	5.15	87	7.41	92	-2.2	81	-5.0	0	1	960.0	NA	0.0000		9999	4860	0	0	0
2017/11/24 05:29:00	BASE	5.31	86	7.41	92	-2.2	81	-5.0	0	1	960.0	NA	0.0000		9999	4760	0	0	0
2017/11/24 05:30:00	BASE	5.45	88	7.41	92	-2.2	82	-5.0	0	1	960.0	NA	0.0000		9999	4630	0	0	0
2017/11/24 05:31:00	BASE	4.97	94	7.00	86	-2.2	82	-4.9	0	1	959.9	NA	0.0000		9999	4490	0	0	0
2017/11/24 05:32:00	BASE	4.36	94	7.00	86	-2.2	82	-4.9	0	1	959.9	NA	0.0000		9999	4430	0	0	0
2017/11/24 05:33:00	BASE	4.47	90	6.28	85	-2.2	82	-4.8	0	1	959.8	NA	0.0000		9999	4100	0	0	0
2017/11/24 05:34:00	BASE	4.60	92	6.28	85	-2.2	83	-4.8	0	1	959.9	NA	0.0000		9999	4590	0	0	0
2017/11/24 05:35:00	BASE	4.60	86	5.92	93	-2.2	83	-4.8	1	1	960.0	NA	0.0000		9999	4400	0	0	0
2017/11/24 05:36:00	BASE	4.75	79	5.92	93	-2.3	83	-4.8	0	1	960.0	NA	0.0000		9999	4130	0	0	0
2017/11/24 05:37:00	BASE	4.43	78	5.76	83	-2.3	83	-4.8	1	1	959.9	NA	0.0000		9999	4200	0	0	0
2017/11/24 05:38:00	BASE	4.52	83	6.38	88	-2.2	82	-4.8	1	1	959.9	NA	0.0000		9999	4170	0	0	0
2017/11/24 05:39:00	BASE	4.77	91	6.38	88	-2.2	82	-4.9	1	1	959.8	NA	0.0000		9999	4430	0	0	0
2017/11/24 05:40:00	BASE	5.06	88	6.74	85	-2.1	81	-5.0	1	2	959.8	NA	0.0000		9999	4230	0	0	0
2017/11/24 05:41:00	BASE	5.47	89	6.74	85	-2.1	80	-5.2	1	2	959.7	NA	0.0000		9999	4400	0	0	0
2017/11/24 05:42:00	BASE	5.49	95	6.74	85	-2.1	78	-5.3	1	2	959.7	NA	0.0000		9999	3350	0	0	0
2017/11/24 05:43:00	BASE	5.44	96	6.74	85	-2.0	77	-5.5	1	2	959.7	NA	0.0000		9999	4720	0	0	0
2017/11/24 05:44:00	BASE	5.81	93	7.56	77	-2.0	76	-5.6	1	2	959.7	NA	0.0000		9999	4690	0	0	0
2017/11/24 05:45:00	BASE	6.86	85	8.23	73	-2.0	76	-5.7	1	2	959.7	NA	0.0000		9999	4820	0	0	0
2017/11/24 05:46:00	BASE	7.11	81	8.23	73	-2.0	75	-5.8	1	2	959.7	NA	0.0000		9999	6070	0	0	0
2017/11/24 05:47:00	BASE	6.86	82	8.23	73	-2.0	75	-5.8	1	2	959.7	NA	0.0000		9999	6100	0	0	0
2017/11/24 05:48:00	BASE	7.34	82	8.44	85	-2.0	75	-5.8	1	2	959.7	NA	0.0000		9999	4170	0	0	0
2017/11/24 05:49:00	BASE	7.88	82	8.64	76	-1.9	75	-5.8	1	2	959.7	NA	0.0000		9999	3940	0	0	0
2017/11/24 05:50:00	BASE	7.79	83	8.64	76	-1.9	75	-5.8	1	2	959.7	NA	0.0000		9999	3670	0	0	0
2017/11/24 05:51:00	BASE	7.71	87	8.64	86	-1.9	74	-5.9	1	2	959.6	NA	0.0000		9999	5740	0	0	0
2017/11/24 05:52:00	BASE	7.78	89	8.64	86	-1.9	74	-5.9	1	2	959.6	NA	0.0000		9999	3740	0	0	0
2017/11/24 05:53:00	BASE	7.65	91	8.64	86	-1.9	74	-5.9	1	3	959.6	NA	0.0000		9999	3840	0	0	0
2017/11/24 05:54:00	BASE	7.29	90	8.64	86	-1.9	74	-6.0	1	3	959.6	NA	0.0000		9999	6100	0	0	0
2017/11/24 05:55:00	BASE	6.95	90	8.64	86	-1.9	74	-5.9	1	3	959.6	NA	0.0000		9999	6000	0	0	0
2017/11/24 05:56:00	BASE	6.97	91	8.64	86	-2.0	74	-5.9	1	3	959.6	NA	0.0000		9999	6000	0	0	0
2017/11/24 05:57:00	BASE	6.71	89	8.64	86	-2.0	75	-5.9	1	3	959.7	NA	0.0000		9999	6040	0	0	0
2017/11/24 05:58:00	BASE	6.45	83	8.64	86	-2.0	75	-5.8	1	3	959.6	NA	0.0000		9999	5740	0	0	0
2017/11/24 05:59:00	BASE	6.19	78	8.64	86	-2.0	75	-5.8	1	3	959.7	NA	0.0000		9999	5870	0	0	0
2017/11/24 06:00:00	BASE	5.80	78	8.64	86	-2.0	75	-5.9	1	3	959.6	NA	0.0000		9999	5540	0	0	0
2017/11/24 06:01:00	BASE	5.89	84	8.49	94	-2.0	75	-5.9	1	3	959.6	NA	0.0000		9999	5410	0	0	0
2017/11/24 06:02:00	BASE	6.26	84	7.97	90	-2.0	74	-6.0	1	3	959.6	NA	0.0000		9999	5380	0	0	0
2017/11/24 06:03:00	BASE	6.06	85	7.56	88	-2.0	74	-6.0	1	4	959.6	NA	0.0000		9999	5970	0	0	0
2017/11/24 06:04:00	BASE	5.50	89	7.31	94	-2.0	74	-6.0	1	4	959.6	NA	0.0000		9999	5680	0	0	0
2017/11/24 06:05:00	BASE	5.40	95	7.31	94	-2.0	74	-6.0	1	4	959.6	NA	0.0000		9999	5580	0	0	0
2017/11/24 06:06:00	BASE	5.59	99	7.25	83	-2.0	74	-6.0	1	4	959.6	NA	0.0000		9999	4270	0	0	0
2017/11/24 06:07:00	BASE	5.82	101	7.25	83	-2.0	73	-6.1	1	4	959.5	NA	0.0000		9999	4950	0	0	0
2017/11/24 06:08:00	BASE	5.18	105	7.25	83	-2.0	73	-6.1	1	4	959.5	NA	0.0000		9999	3770	0	0	0
2017/11/24 06:09:00	BASE	4.07	109	7.25	83	-1.9	73	-6.2	2	5	959.5	NA	0.0000		9999	3710	0	0	0
2017/11/24 06:10:00	BASE	3.80	106	7.25	83	-1.9	72	-6.2	2	5	959.5	NA	0.0000		9999	5220	0	0	0
2017/11/24 06:11:00	BASE	4.29	98	7.25	83	-1.9	72	-6.2	2	5	959.6	NA	0.0000		9999	5870	0	0	0
2017/11/24 06:12:00	BASE	4.76	90	6.69	108	-1.9	72	-6.2	2	5	959.6	NA	0.0000		9999	5770	0	0	0
2017/11/24 06:13:00	BASE	4.86	90	6.69	108	-1.9	73	-6.1	2	5	959.6	NA	0.0000		9999	5710	0	0	0
2017/11/24 06:14:00	BASE	4.52	93	6.69	108	-1.9	73	-6.1	2	6	959.5	NA	0.0000		9999	5810	0	0	0
2017/11/24 06:15:00	BASE	4.26	99	6.69	108	-1.9	73	-6.1	2	6	959.5	NA	0.0000		9999	5740	0	0	0
2017/11/24 06:16:00	BASE	4.62	101	6.69	108	-1.8	73	-6.1	2	6	959.5	NA	0.0000		9999	6000	0	0	0
2017/11/24 06:17:00	BASE	4.82	102	5.50	100	-1.8	72	-6.2	2	6	959.5	NA	0.0000		9999	5940	0	0	0
2017/11/24 06:18:00	BASE	4.57	105	5.35	87	-1.7	71	-6.3	2	6	959.5	NA	0.0000		9999	3080	0	0	0
2017/11/24 06:19:00	BASE	4.42	110	5.35	87	-1.7	70	-6.4	2	7	959.5	NA	0.0000		9999	3480	0	0	0
2017/11/24 06:20:00	BASE	4.44	115	5.35	87	-1.7	70	-6.5	2	7	959.4	NA	0.0000		9999	3150	0	0	0
2017/11/24 06:21:00	BASE	4.60	113	5.50	100	-1.7	70	-6.5	2	7	959.4	NA	0.0000		9999	3310	0	0	0
2017/11/24 06:22:00	BASE	5.04	106	5.76	102	-1.8	70	-6.5	2	7	959.4	NA	0.0000		9999	3740	0	0	0
2017/11/24 06:23:00	BASE	5.27	103	5.76	102	-1.8	71	-6.4	2	7	959.4	NA	0.0000		9999	5280	0	0	0
2017/11/24 06:24:00	BASE	4.95	107	5.76	102	-1.8	71	-6.4	2	7	959.4	NA	0.0000		9999	4200	0	0	0
2017/11/24 06:25:00	BASE	4.50	113	5.76	102	-1.8	71	-6.3	2	7	959.4	NA	0.0000		9999	3580	0	0	0
2017/11/24 06:26:00	BASE	4.40	121	5.76	102	-1.8	72	-6.3	2	7	959.4	NA	0.0000		9999	3310	0	0	0
2017/11/24 06:27:00	BASE	4.27	127	5.76	102	-1.8	72	-6.2	2	7	959.4	NA	0.0000		9999	3810	0	0	0
2017/11/24 06:28:00	BASE	3.95	133	5.76	102	-1.8	72	-6.1	2	8	959.4	NA	0.0000		9999	3250	0	0	0
2017/11/24 06:29:00	BASE	3.87	135	5.76	102	-1.8	73	-6.0	2	8	959.4	NA	0.0000		9999	4790	0	0	0
2017/11/24 06:30:00	BASE	3.98	132	5.76	102	-1.8	74	-5.9	2	8	959.4	NA	0.0000		9999	4860	0	0	0
2017/11/24 06:31:00	BASE	4.16	132	5.76	102	-1.8	74	-5.7	2	8	959.4	NA	0.0000		9999	4890	0	0	0
2017/11/24 06:32:00	BASE	4.01	132	5.56	103	-1.8	74	-5.7	2	8	959.4	NA	0.0000		9999	4590	0	0	0
2017/11/24 06:33:00	BASE	4.25	129	5.30	124	-1.7	74	-5.8	2	9	959.4	NA	0.0000		9999	4690	0	0	0
2017/11/24 06:34:00	BASE	4.83	125	5.35	123	-1.7	73	-5.9	2	9	959.4	NA	0.0000		9999	4860	0	0	0
2017/11/24 06:35:00	BASE	4.74	123	5.35	123	-1.7	73	-6.0	3	9	959.4	NA	0.0000		9999	4920	0	0	0
2017/11/24 06:36:00	BASE	4.68	121	5.35	123	-1.7	72	-6.1	3	9	959.3	NA	0.0000		9999	4660	0	0	0
2017/11/24 06:37:00	BASE	4.68	119	5.35	123	-1.7	71	-6.2	3	10	959.3	NA	0.0000		9999	4590	0	0	0
2017/11/24 06:38:00	BASE	4.32	117	5.35	123	-1.7	71	-6.3	3	10	959.4	NA	0.0000		9999	4560	0	0	0
2017/11/24 06:39:00	BASE	4.09	116	5.35	123	-1.7	70	-6.4	3	10	959.3	NA	0.0000		9999	4760	0	0	0
2017/11/24 06:40:00	BASE	4.06	118	5.35	123	-1.7	69	-6.5	3	10	959.3	NA	0.0000		9999	4720	0	0	0
2017/11/24 06:41:00	BASE	4.01	121	5.35	123	-1.6	69	-6.6	3	11	959.3	NA	0.0000		9999	3810	0	0	0
2017/11/24 06:42:00	BASE	3.96	122	5.35	123	-1.6	69	-6.7	3	11	959.2	NA	0.0000		9999	4070	0	0	0
2017/11/24 06:43:00	BASE	3.76	123	5.35	123	-1.7	69	-6.6	3	11	959.2	NA	0.0000		9999	4040	0	0	0
2017/11/24 06:44:00	BASE	3.73	121	5.14	118	-1.7	69	-6.6	3	12	959.2	NA	0.0000		9999	4690	0	0	0
2017/11/24 06:45:00	BASE	3.62	117	5.14	118	-1.7	70	-6.5	3	12	959.2	NA	0.0000		9999	4200	0	0	0
2017/11/24 06:46:00	BASE	2.84	113	4.99	116	-1.7	70	-6.4	4	13	959.2	NA	0.0000		9999	4920	0	0	0
2017/11/24 06:47:00	BASE	2.53	102	4.48	116	-1.7	71	-6.3	4	13	959.2	NA	0.0000		9999	4950	0	0	0
2017/11/24 06:48:00	BASE	2.90	97	4.37	121	-1.7	71	-6.2	4	13	959.2	NA	0.0000		9999	4630	0	0	0
2017/11/24 06:49:00	BASE	3.53	103	4.48	107	-1.7	71	-6.2	4	14	959.2	NA	0.0000		9999	4560	0	0	0
2017/11/24 06:50:00	BASE	4.45	107	5.25	108	-1.7	71	-6.3	4	14	959.2	NA	0.0000		9999	4130	0	0	0
2017/11/24 06:51:00	BASE	4.51	106	5.25	108	-1.7	71	-6.3	4	15	959.2	NA	0.0000		9999	4660	0	0	0
2017/11/24 06:52:00	BASE	3.68	100	5.25	108	-1.6	70	-6.3	4	15	959.2	NA	0.0000		9999	4690	0	0	0
2017/11/24 06:53:00	BASE	3.35	98	5.25	108	-1.6	69	-6.5	5	16	959.2	NA	0.0000		9999	4690	0	0	0
2017/11/24 06:54:00	BASE	3.03	102	5.25	108	-1.5	68	-6.6	5	17	959.2	NA	0.0000		9999	4760	0	0	0
2017/11/24 06:55:00	BASE	2.74	101	5.25	108	-1.5	67	-6.7	5	17	959.2	NA	0.0000		9999	4920	0	0	0
2017/11/24 06:56:00	BASE	2.65	91	5.25	108	-1.4	67	-6.8	5	18	959.2	NA	0.0000		9999	4820	0	0	0
2017/11/24 06:57:00	BASE	2.38	78	5.25	108	-1.4	66	-6.9	5	18	959.2	NA	0.0000		9999	4920	0	0	0
2017/11/24 06:58:00	BASE	2.18	87	5.25	108	-1.4	66	-6.9	5	19	959.2	NA	0.0000		9999	5020	0	0	0
2017/11/24 06:59:00	BASE	2.10	108	5.25	108	-1.4	66	-6.9	5	19	959.2	NA	0.0000		9999	5150	0	0	0
2017/11/24 07:00:00	BASE	2.01	112	4.63	111	-1.5	67	-6.8	6	20	959.2	NA	0.0000		9999	5380	0	0	0
2017/11/24 07:01:00	BASE	1.81	112	4.53	94	-1.5	67	-6.8	6	20	959.2	NA	0.0000		9999	5410	0	0	0
2017/11/24 07:02:00	BASE	2.06	119	4.53	94	-1.5	68	-6.7	6	21	959.2	NA	0.0000		9999	5250	0	0	0
2017/11/24 07:03:00	BASE	2.71	118	3.81	107	-1.5	68	-6.6	6	21	959.2	NA	0.0000		9999	5640	0	0	0
2017/11/24 07:04:00	BASE	3.06	108	3.81	107	-1.5	68	-6.6	7	22	959.2	NA	0.0000		9999	5450	0	0	0
2017/11/24 07:05:00	BASE	2.71	107	3.81	107	-1.5	69	-6.6	7	22	959.2	NA	0.0000		9999	5510	0	0	0
2017/11/24 07:06:00	BASE	2.37	115	3.81	107	-1.6	69	-6.5	7	23	959.2	NA	0.0000		9999	5540	0	0	0
2017/11/24 07:07:00	BASE	2.88	109	4.22	105	-1.6	69	-6.5	7	23	959.2	NA	0.0000		9999	5870	0	0	0
2017/11/24 07:08:00	BASE	3.39	97	4.22	105	-1.6	70	-6.4	7	24	959.2	NA	0.0000		9999	5150	0	0	0
2017/11/24 07:09:00	BASE	3.42	94	4.22	87	-1.7	71	-6.4	8	24	959.2	NA	0.0000		9999	5220	0	0	0
2017/11/24 07:10:01	BASE	3.11	94	4.22	87	-1.8	72	-6.2	8	24	959.2	NA	0.0000		9999	5770	0	0	0
2017/11/24 07:11:01	BASE	3.91	87	6.17	78	-1.8	73	-6.1	8	24	959.2	NA	0.0000		9999	5840	0	0	0
2017/11/24 07:12:00	BASE	5.52	80	6.38	80	-1.9	74	-5.9	8	24	959.2	NA	0.0000		9999	4990	0	0	0
2017/11/24 07:13:00	BASE	5.65	78	6.38	80	-1.9	74	-5.9	8	24	959.2	NA	0.0000		9999	5120	0	0	0
2017/11/24 07:14:00	BASE	5.28	79	6.38	80	-1.9	74	-5.8	8	24	959.2	NA	0.0000		9999	5180	0	0	0
2017/11/24 07:15:00	BASE	5.08	83	6.38	80	-1.8	74	-5.8	8	25	959.2	NA	0.0000		9999	5180	0	0	0
2017/11/24 07:16:00	BASE	5.21	81	6.38	80	-1.8	74	-5.9	8	25	959.2	NA	0.0000		9999	5090	0	0	0
2017/11/24 07:17:00	BASE	5.47	75	6.38	80	-1.7	73	-6.0	8	25	959.2	NA	0.0000		9999	4890	0	0	0
2017/11/24 07:18:00	BASE	5.13	79	6.38	80	-1.7	73	-6.0	8	26	959.2	NA	0.0000		9999	5870	0	0	0
2017/11/24 07:19:00	BASE	4.75	85	6.38	80	-1.7	72	-6.0	8	26	959.2	NA	0.0000		9999	5250	0	0	0
2017/11/24 07:20:00	BASE	4.64	90	6.38	80	-1.6	71	-6.1	8	27	959.2	NA	0.0000		9999	4530	0	0	0
2017/11/24 07:21:00	BASE	4.42	87	6.38	80	-1.6	71	-6.2	8	27	959.2	NA	0.0000		9999	4270	0	0	0
2017/11/24 07:22:00	BASE	4.42	80	6.12	71	-1.6	71	-6.2	9	28	959.2	NA	0.0000		9999	5710	0	0	0
2017/11/24 07:23:00	BASE	4.56	78	6.12	71	-1.6	71	-6.2	9	28	959.2	NA	0.0000		9999	5610	0	0	0
2017/11/24 07:24:01	BASE	4.20	76	6.12	71	-1.7	71	-6.2	9	29	959.2	NA	0.0000		9999	5150	0	0	0
2017/11/24 07:25:00	BASE	4.32	75	6.12	71	-1.8	72	-6.1	10	30	959.2	NA	0.0000		9999	5090	0	0	0
2017/11/24 07:26:00	BASE	4.60	71	6.12	71	-1.8	73	-6.0	10	31	959.2	NA	0.0000		9999	5150	0	0	0
2017/11/24 07:27:00	BASE	4.13	65	5.25	89	-1.9	74	-6.0	10	32	959.2	NA	0.0000		9999	5510	0	0	0
2017/11/24 07:28:00	BASE	3.94	67	5.25	89	-1.9	74	-5.9	11	32	959.2	NA	0.0000		9999	5540	0	0	0
2017/11/24 07:29:00	BASE	4.00	73	5.04	73	-1.9	74	-5.9	11	33	959.2	NA	0.0000		9999	5050	0	0	0
2017/11/24 07:30:00	BASE	3.93	74	5.04	73	-1.9	74	-5.9	11	34	959.2	NA	0.0000		9999	4890	0	0	0
2017/11/24 07:31:00	BASE	3.58	73	5.04	73	-1.9	74	-5.9	12	35	959.2	NA	0.0000		9999	5020	0	0	0
2017/11/24 07:32:00	BASE	3.44	76	5.04	73	-1.9	74	-5.9	12	35	959.2	NA	0.0000		9999	4790	0	0	0
2017/11/24 07:33:00	BASE	3.96	76	5.04	73	-1.9	74	-5.9	12	36	959.1	NA	0.0000		9999	4820	0	0	0
2017/11/24 07:34:00	BASE	4.20	74	5.04	73	-1.9	74	-5.9	13	36	959.1	NA	0.0000		9999	4630	0	0	0
2017/11/24 07:35:00	BASE	3.99	75	4.99	71	-1.9	75	-5.8	13	37	959.1	NA	0.0000		9999	4760	0	0	0
2017/11/24 07:36:00	BASE	3.85	78	4.58	72	-1.9	75	-5.8	13	38	959.1	NA	0.0000		9999	4820	0	0	0
2017/11/24 07:37:00	BASE	3.98	83	4.58	72	-1.9	75	-5.8	13	38	959.1	NA	0.0000		9999	4720	0	0	0
2017/11/24 07:38:00	BASE	4.21	92	4.58	98	-1.9	75	-5.8	14	39	959.1	NA	0.0000		9999	4720	0	0	0
2017/11/24 07:39:00	BASE	4.20	97	4.73	103	-1.9	75	-5.8	14	39	959.1	NA	0.0000		9999	4760	0	0	0
2017/11/24 07:40:00	BASE	4.16	105	5.14	104	-1.9	74	-5.8	14	40	959.1	NA	0.0000		9999	5510	0	0	0
2017/11/24 07:41:00	BASE	4.69	107	5.45	104	-1.8	74	-5.9	14	40	959.1	NA	0.0000		9999	4660	0	0	0
2017/11/24 07:42:00	BASE	5.18	105	5.86	104	-1.8	74	-5.9	15	41	959.1	NA	0.0000		9999	5250	0	0	0
2017/11/24 07:43:00	BASE	4.84	109	5.86	104	-1.8	73	-6.0	15	42	959.1	NA	0.0000		9999	4630	0	0	0
2017/11/24 07:44:00	BASE	4.22	110	5.86	104	-1.8	72	-6.1	16	43	959.1	NA	0.0000		9999	4820	0	0	0
2017/11/24 07:45:00	BASE	3.91	106	5.86	104	-1.8	72	-6.1	16	44	959.1	NA	0.0000		9999	4430	0	0	0
2017/11/24 07:46:00	BASE	4.18	105	5.86	104	-1.8	72	-6.1	17	45	959.1	NA	0.0000		9999	5150	0	0	0
2017/11/24 07:47:00	BASE	4.33	106	5.86	104	-1.8	73	-6.1	17	46	959.1	NA	0.0000		9999	4790	0	0	0
2017/11/24 07:48:00	BASE	3.89	104	5.86	104	-1.9	73	-6.0	18	47	959.1	NA	0.0000		9999	4860	0	0	0
2017/11/24 07:49:01	BASE	3.47	99	5.86	104	-1.9	74	-6.0	18	48	959.1	NA	0.0000		9999	5320	0	0	0
2017/11/24 07:50:00	BASE	3.26	97	5.86	104	-1.9	74	-6.0	19	49	959.1	NA	0.0000		9999	4400	0	0	0
2017/11/24 07:51:00	BASE	3.31	96	5.86	104	-1.9	74	-5.9	20	50	959.1	NA	0.0000		9999	5280	0	0	0
2017/11/24 07:52:01	BASE	3.32	92	4.78	112	-1.9	73	-6.0	20	51	959.1	NA	0.0000		9999	4230	0	0	0
2017/11/24 07:53:00	BASE	3.18	92	4.73	113	-1.9	73	-6.0	21	53	959.1	NA	0.0000		9999	5090	0	0	0
2017/11/24 07:54:00	BASE	3.12	94	4.73	113	-1.9	74	-6.0	22	54	959.1	NA	0.0000		9999	4490	0	0	0
2017/11/24 07:55:00	BASE	3.29	100	4.73	113	-1.9	74	-5.9	22	56	959.1	NA	0.0000		9999	4330	0	0	0
2017/11/24 07:56:00	BASE	3.46	101	4.58	102	-2.0	75	-5.9	23	57	959.1	NA	0.0000		9999	4490	0	0	0
2017/11/24 07:57:01	BASE	3.52	96	4.32	106	-2.0	75	-5.8	23	58	959.1	NA	0.0000		9999	4330	0	0	0
2017/11/24 07:58:00	BASE	3.81	99	4.27	109	-1.9	75	-5.8	24	58	959.0	NA	0.0000		9999	4490	0	0	0
2017/11/24 07:59:00	BASE	3.99	104	4.27	104	-1.9	75	-5.8	24	59	959.0	NA	0.0000		9999	4360	0	0	0
2017/11/24 08:00:00	BASE	4.13	110	4.53	113	-1.9	74	-5.9	24	59	959.0	NA	0.0000		9999	4230	0	0	0
2017/11/24 08:01:00	BASE	4.15	117	4.53	113	-1.8	73	-6.0	24	60	959.0	NA	0.0000		9999	4200	0	0	0
2017/11/24 08:02:00	BASE	4.24	116	4.68	112	-1.8	73	-6.1	24	61	959.0	NA	0.0000		9999	5380	0	0	0
2017/11/24 08:03:00	BASE	4.84	108	5.81	104	-1.8	72	-6.2	24	61	958.9	NA	0.0000		9999	4990	0	0	0
2017/11/24 08:04:00	BASE	5.33	106	5.81	106	-1.8	71	-6.3	24	61	958.9	NA	0.0000		9999	4070	0	0	0
2017/11/24 08:05:00	BASE	5.44	110	5.81	114	-1.8	71	-6.4	24	61	958.9	NA	0.0000		9999	5380	0	0	0
2017/11/24 08:06:00	BASE	5.16	116	5.81	114	-1.8	70	-6.5	24	62	958.8	NA	0.0000		9999	5280	0	0	0
2017/11/24 08:07:00	BASE	4.79	117	5.81	114	-1.8	70	-6.5	24	62	958.8	NA	0.0000		9999	3770	0	0	0
2017/11/24 08:08:00	BASE	4.74	110	5.81	114	-1.8	70	-6.5	24	63	958.9	NA	0.0000		9999	3770	0	0	0
2017/11/24 08:09:00	BASE	4.71	104	5.81	114	-1.8	71	-6.4	24	63	958.9	NA	0.0000		9999	4170	0	0	0
2017/11/24 08:10:00	BASE	4.54	99	5.81	114	-1.8	71	-6.3	24	64	958.9	NA	0.0000		9999	5350	0	0	0
2017/11/24 08:11:00	BASE	4.42	98	5.81	114	-1.8	71	-6.3	25	65	958.9	NA	0.0000		9999	5350	0	0	0
2017/11/24 08:12:00	BASE	4.43	97	5.81	114	-1.8	71	-6.3	25	67	958.9	NA	0.0000		9999	5450	0	0	0
2017/11/24 08:13:00	BASE	4.67	91	5.81	114	-1.8	71	-6.3	26	69	958.9	NA	0.0000		9999	3740	0	0	0
2017/11/24 08:14:00	BASE	4.95	95	5.81	114	-1.8	71	-6.4	28	71	958.8	NA	0.0000		9999	4400	0	0	0
2017/11/24 08:15:00	BASE	4.92	109	5.40	92	-1.7	71	-6.4	29	74	958.7	NA	0.0000		9999	5640	0	0	0
2017/11/24 08:16:00	BASE	4.55	116	5.40	92	-1.7	71	-6.4	31	77	958.7	NA	0.0000		9999	5680	0	0	0
2017/11/24 08:17:00	BASE	4.18	114	5.40	92	-1.7	71	-6.4	33	80	958.7	NA	0.0000		9999	5770	0	0	0
2017/11/24 08:18:00	BASE	3.80	116	5.40	92	-1.7	70	-6.4	35	84	958.7	NA	0.0000		9999	4790	0	0	0
2017/11/24 08:19:00	BASE	3.60	118	5.40	92	-1.7	70	-6.5	37	88	958.7	NA	0.0000		9999	4590	0	0	0
2017/11/24 08:20:00	BASE	3.75	115	5.40	92	-1.7	69	-6.6	38	91	958.8	NA	0.0000		9999	5450	0	0	0
2017/11/24 08:21:00	BASE	3.91	112	5.40	92	-1.7	69	-6.6	39	93	958.8	NA	0.0000		9999	4630	0	0	0
2017/11/24 08:22:00	BASE	3.94	116	5.40	92	-1.6	69	-6.6	40	95	958.7	NA	0.0000		9999	4590	0	0	0
2017/11/24 08:23:00	BASE	4.33	126	5.56	133	-1.6	69	-6.6	41	97	958.7	NA	0.0000		9999	4360	0	0	0
2017/11/24 08:24:00	BASE	5.22	130	5.92	130	-1.6	69	-6.5	43	100	958.6	NA	0.0000		9999	4460	0	0	0
2017/11/24 08:25:00	BASE	5.37	124	5.92	130	-1.6	70	-6.5	44	103	958.7	NA	0.0000		9999	4630	0	0	0
2017/11/24 08:26:00	BASE	5.01	116	5.92	130	-1.7	70	-6.4	45	106	958.7	NA	0.0000		9999	4820	0	0	0
2017/11/24 08:27:00	BASE	5.08	112	5.92	130	-1.6	70	-6.4	47	109	958.7	NA	0.0000		9999	4790	0	0	0
2017/11/24 08:28:00	BASE	5.11	113	5.92	130	-1.6	70	-6.4	50	114	958.7	NA	0.0000		9999	4790	0	0	0
2017/11/24 08:29:00	BASE	4.28	119	5.92	130	-1.6	69	-6.5	52	118	958.7	NA	0.0000		9999	4690	0	0	0
2017/11/24 08:30:00	BASE	3.84	123	5.92	130	-1.5	69	-6.5	54	122	958.7	NA	0.0000		9999	4660	0	0	0
2017/11/24 08:31:00	BASE	4.18	122	5.92	130	-1.5	68	-6.6	55	124	958.7	NA	0.0000		9999	4660	0	0	0
2017/11/24 08:32:00	BASE	3.82	117	5.92	130	-1.5	68	-6.6	55	125	958.7	NA	0.0000		9999	4560	0	0	0
2017/11/24 08:33:00	BASE	3.29	112	5.92	130	-1.5	68	-6.6	55	126	958.7	NA	0.0000		9999	4560	0	0	0
2017/11/24 08:34:00	BASE	3.47	109	5.66	112	-1.5	68	-6.6	55	126	958.7	NA	0.0000		9999	4660	0	0	0
2017/11/24 08:35:00	BASE	3.97	110	5.66	112	-1.5	69	-6.6	56	127	958.7	NA	0.0000		9999	4630	0	0	0
2017/11/24 08:36:00	BASE	4.13	110	5.66	112	-1.6	69	-6.5	56	128	958.7	NA	0.0000		9999	4660	0	0	0
2017/11/24 08:37:00	BASE	3.90	106	5.66	112	-1.6	69	-6.5	57	130	958.8	NA	0.0000		9999	4760	0	0	0
2017/11/24 08:38:00	BASE	3.74	102	4.78	123	-1.6	69	-6.5	58	133	958.7	NA	0.0000		9999	4490	0	0	0
2017/11/24 08:39:00	BASE	3.99	106	4.78	117	-1.6	70	-6.4	59	135	958.7	NA	0.0000		9999	4590	0	0	0
2017/11/24 08:40:00	BASE	4.16	111	4.99	117	-1.6	70	-6.4	60	137	958.6	NA	0.0000		9999	4590	0	0	0
2017/11/24 08:41:00	BASE	3.80	113	4.99	117	-1.6	70	-6.4	61	139	958.6	NA	0.0000		9999	4490	0	0	0
2017/11/24 08:42:00	BASE	3.63	112	4.99	117	-1.6	69	-6.5	63	143	958.6	NA	0.0000		9999	4530	0	0	0
2017/11/24 08:43:00	BASE	4.36	99	5.40	90	-1.6	69	-6.5	65	147	958.6	NA	0.0000		9999	4660	0	0	0
2017/11/24 08:44:00	BASE	5.60	88	6.58	87	-1.6	69	-6.5	66	151	958.6	NA	0.0000		9999	4590	0	0	0
2017/11/24 08:45:00	BASE	6.27	95	6.58	87	-1.6	70	-6.5	67	152	958.6	NA	0.0000		9999	4530	0	0	0
2017/11/24 08:46:00	BASE	6.12	107	6.58	111	-1.7	70	-6.4	68	154	958.5	NA	0.0000		9999	4460	0	0	0
2017/11/24 08:47:00	BASE	5.49	116	6.58	111	-1.7	70	-6.5	69	157	958.5	NA	0.0000		9999	4430	0	0	0
2017/11/24 08:48:00	BASE	4.59	114	6.58	111	-1.7	69	-6.5	71	160	958.5	NA	0.0000		9999	4460	0	0	0
2017/11/24 08:49:00	BASE	4.70	96	6.58	111	-1.7	69	-6.6	72	163	958.6	NA	0.0000		9999	4300	0	0	0
2017/11/24 08:50:00	BASE	5.57	85	6.58	111	-1.6	68	-6.7	73	164	958.6	NA	0.0000		9999	4330	5410	0	0
2017/11/24 08:51:00	BASE	5.51	85	6.58	111	-1.6	68	-6.8	73	165	958.6	NA	0.0000		9999	4230	5220	0	0
2017/11/24 08:52:00	BASE	4.58	90	6.58	111	-1.5	67	-6.9	73	166	958.6	NA	0.0000		9999	4200	0	0	0
2017/11/24 08:53:00	BASE	4.47	87	6.58	111	-1.4	66	-7.0	73	166	958.6	NA	0.0000		9999	4300	0	0	0
2017/11/24 08:54:00	BASE	4.88	74	6.58	111	-1.4	66	-7.0	73	166	958.6	NA	0.0000		9999	4330	0	0	0
2017/11/24 08:55:00	BASE	4.76	72	6.58	111	-1.4	65	-7.0	73	168	958.6	NA	0.0000		9999	4170	0	0	0
2017/11/24 08:56:00	BASE	4.77	82	6.17	81	-1.3	65	-7.0	75	171	958.6	NA	0.0000		9999	4100	0	0	0
2017/11/24 08:57:00	BASE	4.53	100	6.17	81	-1.4	65	-7.0	76	175	958.5	NA	0.0000		9999	3940	4660	0	0
2017/11/24 08:58:00	BASE	4.30	113	6.17	81	-1.5	66	-7.0	79	179	958.5	NA	0.0000		9999	3640	0	0	0
2017/11/24 08:59:00	BASE	4.89	101	6.17	81	-1.5	67	-6.9	81	184	958.6	NA	0.0000		9999	3740	4760	0	0
2017/11/24 09:00:00	BASE	5.49	87	6.02	91	-1.5	67	-6.9	83	189	958.6	NA	0.0000		9999	3610	5090	0	0
2017/11/24 09:01:00	BASE	5.27	88	6.02	91	-1.5	67	-6.8	86	193	958.6	NA	0.0000		9999	3380	4990	0	0
2017/11/24 09:02:00	BASE	4.39	91	6.02	91	-1.5	68	-6.8	87	197	958.5	NA	0.0000		9999	3410	5020	0	0
2017/11/24 09:03:00	BASE	3.65	99	6.02	91	-1.5	67	-6.8	90	202	958.5	NA	0.0000		9999	3380	0	0	0
2017/11/24 09:04:00	BASE	3.52	115	6.02	91	-1.5	67	-6.8	92	207	958.4	NA	0.0000		9999	3350	0	0	0
2017/11/24 09:05:00	BASE	4.36	120	6.02	91	-1.5	67	-6.9	95	211	958.4	NA	0.0000		9999	3220	5090	0	0
2017/11/24 09:06:00	BASE	5.50	114	6.38	111	-1.5	66	-7.0	98	218	958.4	NA	0.0000		9999	3180	0	0	0
2017/11/24 09:07:00	BASE	5.76	111	6.38	111	-1.5	66	-7.0	99	221	958.3	NA	0.0000		9999	3480	0	0	0
2017/11/24 09:08:00	BASE	5.17	111	6.38	111	-1.5	66	-7.0	99	219	958.4	NA	0.0000		9999	3480	0	0	0
2017/11/24 09:09:00	BASE	5.05	106	6.74	95	-1.5	66	-7.0	98	218	958.4	NA	0.0000		9999	2620	0	0	0
2017/11/24 09:10:00	BASE	5.80	104	7.31	104	-1.5	66	-7.0	98	218	958.3	NA	0.0000		9999	2820	0	0	0
2017/11/24 09:11:00	BASE	5.76	95	7.56	79	-1.5	66	-6.9	98	218	958.3	NA	0.0000		9999	3120	0	0	0
2017/11/24 09:12:00	BASE	3.57	85	7.56	79	-1.3	66	-6.8	97	217	958.2	NA	0.0000		9999	3640	0	0	0
2017/11/24 09:13:00	BASE	4.06	92	7.82	94	-1.1	65	-6.8	93	210	958.3	NA	0.0000		9999	3670	0	0	0
2017/11/24 09:14:00	BASE	4.87	65	7.82	94	-0.9	65	-6.7	89	203	958.3	NA	0.0000		9999	3180	0	0	0
2017/11/24 09:15:00	BASE	2.84	22	7.82	94	-0.7	64	-6.6	89	204	958.3	NA	0.0000		9999	3150	0	0	0
2017/11/24 09:16:00	BASE	3.40	38	7.82	94	-0.5	63	-6.7	91	208	958.3	NA	0.0000		9999	3450	0	0	0
2017/11/24 09:17:00	BASE	4.11	58	7.82	94	-0.3	62	-6.8	91	207	958.3	NA	0.0000		9999	3740	0	0	0
2017/11/24 09:18:00	BASE	3.74	68	7.82	94	-0.2	61	-6.9	89	203	958.3	NA	0.0000		9999	3670	0	0	0
2017/11/24 09:19:00	BASE	3.58	99	7.82	94	-0.2	60	-7.0	87	200	958.3	NA	0.0000		9999	2990	0	0	0
2017/11/24 09:20:00	BASE	3.56	106	7.82	94	-0.4	60	-7.1	87	201	958.4	NA	0.0000		9999	2720	0	0	0
2017/11/24 09:21:00	BASE	4.88	105	7.82	94	-0.6	61	-7.1	88	204	958.3	NA	0.0000		9999	2850	0	0	0
2017/11/24 09:22:00	BASE	6.84	103	10.24	73	-0.8	62	-7.2	90	208	958.1	NA	0.0000		9999	2990	0	0	0
2017/11/24 09:23:00	BASE	5.71	102	10.24	73	-0.9	64	-7.0	93	213	958.2	NA	0.0000		9999	3310	0	0	0
2017/11/24 09:24:00	BASE	4.61	116	10.24	73	-0.9	65	-6.8	94	215	958.1	NA	0.0000		9999	3120	3770	0	0
2017/11/24 09:25:00	BASE	5.49	118	10.24	73	-0.9	65	-6.7	92	212	958.2	NA	0.0000		9999	3410	3870	0	0
2017/11/24 09:26:00	BASE	6.26	104	10.24	73	-1.0	65	-6.7	90	208	958.2	NA	0.0000		9999	3480	0	0	0
2017/11/24 09:27:00	BASE	7.89	81	10.55	74	-0.9	66	-6.5	89	207	958.1	NA	0.0000		9999	2990	0	0	0
2017/11/24 09:28:00	BASE	5.60	67	10.55	74	-0.8	65	-6.6	91	211	958.2	NA	0.0000		9999	2760	0	0	0
2017/11/24 09:29:00	BASE	1.28	100	10.55	74	-0.8	65	-6.6	92	214	958.1	NA	0.0000		9999	3050	0	0	0
2017/11/24 09:30:00	BASE	1.18	110	10.55	74	-0.7	65	-6.5	90	209	958.3	NA	0.0000		9999	3640	0	0	0
2017/11/24 09:31:00	BASE	3.42	100	10.55	74	-0.5	64	-6.5	86	203	958.3	NA	0.0000		9999	3380	0	0	0
2017/11/24 09:32:00	BASE	4.70	116	10.55	74	-0.5	63	-6.7	84	198	958.3	NA	0.0000		9999	2950	0	0	0
2017/11/24 09:33:00	BASE	5.03	120	10.55	74	-0.6	63	-6.8	82	196	958.2	NA	0.0000		9999	2890	0	0	0
2017/11/24 09:34:00	BASE	4.75	129	10.55	74	-0.8	63	-6.9	80	192	958.1	NA	0.0000		9999	3380	0	0	0
2017/11/24 09:35:00	BASE	4.78	136	10.55	74	-1.0	64	-7.0	78	188	958.1	NA	0.0000		9999	2690	3810	0	0
2017/11/24 09:36:00	BASE	5.77	136	10.55	74	-1.2	65	-7.0	75	183	958.0	NA	0.0000		9999	2760	3840	0	0
2017/11/24 09:37:00	BASE	5.94	134	6.94	134	-1.2	65	-6.9	74	180	958.1	NA	0.0000		9999	2820	0	0	0
2017/11/24 09:38:00	BASE	5.44	129	6.94	134	-1.3	66	-6.9	73	178	958.1	NA	0.0000		9999	3020	0	0	0
2017/11/24 09:39:00	BASE	4.39	128	6.94	134	-1.3	66	-6.8	72	177	958.1	NA	0.0000		9999	3050	3710	0	0
2017/11/24 09:40:00	BASE	3.02	127	6.94	134	-1.2	66	-6.7	71	176	958.1	NA	0.0000		9999	2920	0	0	0
2017/11/24 09:41:00	BASE	2.65	130	6.94	134	-1.2	66	-6.7	70	173	958.1	NA	0.0000		9999	2890	0	0	0
2017/11/24 09:42:00	BASE	3.19	138	6.94	134	-1.1	66	-6.7	68	170	958.1	NA	0.0000		9999	2950	0	0	0
2017/11/24 09:43:00	BASE	3.24	131	6.94	134	-1.0	65	-6.7	66	166	958.1	NA	0.0000		9999	3050	0	0	0
2017/11/24 09:44:00	BASE	2.84	113	6.94	134	-1.0	65	-6.7	65	164	958.1	NA	0.0000		9999	3150	0	0	0
2017/11/24 09:45:00	BASE	3.46	113	6.94	134	-1.0	65	-6.7	64	162	958.1	NA	0.0000		9999	3150	0	0	0
2017/11/24 09:46:00	BASE	4.58	122	6.28	125	-1.0	65	-6.7	64	162	958.0	NA	0.0000		9999	2760	0	0	0
2017/11/24 09:47:00	BASE	4.96	122	6.28	125	-1.0	66	-6.7	64	163	958.1	NA	0.0000		9999	2890	0	0	0
2017/11/24 09:48:00	BASE	4.83	112	6.28	125	-1.1	66	-6.6	66	167	958.1	NA	0.0000		9999	2950	0	0	0
2017/11/24 09:49:00	BASE	5.29	105	7.05	92	-1.1	67	-6.6	67	170	958.1	NA	0.0000		9999	3020	0	0	0
2017/11/24 09:50:00	BASE	6.97	106	8.85	111	-1.1	67	-6.5	67	169	958.0	NA	0.0000		9999	3410	0	0	0
2017/11/24 09:51:00	BASE	7.72	112	8.85	111	-1.2	67	-6.5	66	166	957.9	NA	0.0000		9999	2790	3810	0	0
2017/11/24 09:52:00	BASE	6.58	121	8.85	111	-1.2	67	-6.5	66	167	958.0	NA	0.0000		9999	2690	0	0	0
2017/11/24 09:53:00	BASE	5.59	126	8.85	111	-1.2	67	-6.5	66	169	958.0	NA	0.0000		9999	2950	0	0	0
2017/11/24 09:54:00	BASE	5.26	122	8.85	111	-1.2	67	-6.6	67	171	958.0	NA	0.0000		9999	3120	0	0	0
2017/11/24 09:55:00	BASE	4.31	117	8.85	111	-1.2	67	-6.6	68	174	958.1	NA	0.0000		9999	3080	0	0	0
2017/11/24 09:56:00	BASE	4.60	112	8.85	111	-1.2	67	-6.6	70	176	958.0	NA	0.0000		9999	3220	0	0	0
2017/11/24 09:57:00	BASE	6.26	112	8.85	111	-1.2	67	-6.6	70	178	957.9	NA	0.0000		9999	3480	0	0	0
2017/11/24 09:58:00	BASE	6.84	118	8.85	111	-1.2	67	-6.6	71	179	957.9	NA	0.0000		9999	3280	0	0	0
2017/11/24 09:59:00	BASE	6.68	123	8.85	111	-1.2	66	-6.7	70	177	957.9	NA	0.0000		9999	2690	0	0	0
2017/11/24 10:00:00	BASE	5.95	122	8.13	112	-1.1	66	-6.8	68	175	957.9	NA	0.0000		9999	2850	0	0	0
2017/11/24 10:01:00	BASE	5.84	123	7.61	119	-1.1	65	-6.9	67	174	958.0	NA	0.0000		9999	3050	0	0	0
2017/11/24 10:02:00	BASE	5.92	122	7.61	119	-1.1	65	-7.0	67	174	958.0	NA	0.0000		9999	2990	0	0	0
2017/11/24 10:03:00	BASE	5.25	109	7.61	119	-1.1	65	-6.9	68	177	958.0	NA	0.0000		9999	3020	0	0	0
2017/11/24 10:04:00	BASE	5.43	102	7.92	109	-1.1	65	-6.9	70	181	958.0	NA	0.0000		9999	2990	3510	0	0
2017/11/24 10:05:00	BASE	5.75	112	7.92	109	-1.1	65	-6.9	71	183	958.0	NA	0.0000		9999	3540	0	0	0
2017/11/24 10:06:00	BASE	6.39	122	7.97	127	-1.2	65	-6.9	72	185	957.9	NA	0.0000		9999	2720	3870	0	0
2017/11/24 10:07:00	BASE	7.12	125	7.97	127	-1.2	65	-6.9	73	187	957.9	NA	0.0000		9999	2890	0	0	0
2017/11/24 10:08:00	BASE	6.87	124	7.97	127	-1.2	65	-6.9	73	188	957.9	NA	0.0000		9999	2950	0	0	0
2017/11/24 10:09:00	BASE	6.39	121	7.97	127	-1.2	65	-6.9	73	189	957.9	NA	0.0000		9999	3050	0	0	0
2017/11/24 10:10:00	BASE	6.31	119	7.97	127	-1.2	66	-6.8	73	190	958.0	NA	0.0000		9999	2920	0	0	0
2017/11/24 10:11:00	BASE	6.25	117	7.97	127	-1.2	66	-6.8	73	190	958.0	NA	0.0000		9999	2990	0	0	0
2017/11/24 10:12:00	BASE	5.95	115	7.97	127	-1.2	66	-6.8	74	191	958.0	NA	0.0000		9999	2850	3350	0	0
2017/11/24 10:13:01	BASE	5.48	110	7.97	127	-1.2	66	-6.8	74	192	958.0	NA	0.0000		9999	2790	0	0	0
2017/11/24 10:14:00	BASE	4.77	104	7.97	127	-1.2	66	-6.8	74	192	958.0	NA	0.0000		9999	2890	0	0	0
2017/11/24 10:15:01	BASE	4.64	107	7.97	127	-1.2	66	-6.8	74	194	958.0	NA	0.0000		9999	3180	20870	0	0
2017/11/24 10:16:00	BASE	4.85	109	7.46	124	-1.2	66	-6.8	75	195	958.0	NA	0.0000		9999	3180	0	0	0
2017/11/24 10:17:00	BASE	5.24	104	7.41	111	-1.2	66	-6.7	75	195	958.0	NA	0.0000		9999	3180	0	0	0
2017/11/24 10:18:00	BASE	5.96	104	7.41	111	-1.2	66	-6.7	74	194	958.0	NA	0.0000		9999	3080	0	0	0
2017/11/24 10:19:00	BASE	6.16	108	7.41	111	-1.2	66	-6.7	73	192	958.0	NA	0.0000		9999	2850	0	0	0
2017/11/24 10:20:00	BASE	5.82	112	6.94	108	-1.1	66	-6.7	72	191	958.0	NA	0.0000		9999	3020	0	0	0
2017/11/24 10:21:01	BASE	5.98	112	6.94	108	-1.1	66	-6.7	72	190	957.9	NA	0.0000		9999	3080	0	0	0
2017/11/24 10:22:00	BASE	6.00	113	6.94	108	-1.1	66	-6.8	72	191	957.9	NA	0.0000		9999	3020	0	0	0
2017/11/24 10:23:01	BASE	5.71	115	6.94	108	-1.1	65	-6.8	73	192	957.9	NA	0.0000		9999	3120	0	0	0
2017/11/24 10:24:01	BASE	5.60	112	6.94	108	-1.1	66	-6.8	72	191	958.0	NA	0.0000		9999	3180	0	0	0
2017/11/24 10:25:01	BASE	5.31	106	6.94	108	-1.2	66	-6.7	71	190	958.0	NA	0.0000		9999	3250	0	0	0
2017/11/24 10:26:01	BASE	4.81	92	6.94	108	-1.2	66	-6.7	71	189	958.0	NA	0.0000		9999	3250	0	0	0
2017/11/24 10:27:01	BASE	5.57	86	8.59	94	-1.2	66	-6.7	71	189	958.0	NA	0.0000		9999	2990	0	0	0
2017/11/24 10:28:01	BASE	6.76	91	8.59	94	-1.2	66	-6.7	70	189	957.9	NA	0.0000		9999	2990	0	0	0
2017/11/24 10:29:01	BASE	7.01	104	8.59	94	-1.2	66	-6.7	69	186	957.9	NA	0.0000		9999	2890	0	0	0
2017/11/24 10:30:01	BASE	6.64	110	8.59	94	-1.2	66	-6.7	70	187	957.9	NA	0.0000	UP	9000	2890	0	0	0
2017/11/24 10:31:01	BASE	5.82	107	8.59	94	-1.2	66	-6.8	70	188	958.0	NA	0.0000	UP	9999	3020	0	0	0
2017/11/24 10:32:01	BASE	6.03	112	8.59	94	-1.2	66	-6.8	71	189	957.9	NA	0.0000	UP	9999	3050	0	0	0
2017/11/24 10:33:01	BASE	6.93	114	8.59	94	-1.2	66	-6.8	72	191	957.9	NA	0.0000	UP	7000	2820	0	0	0
2017/11/24 10:34:01	BASE	7.02	112	8.59	94	-1.2	66	-6.7	73	194	957.9	NA	0.0000	UP	9999	2790	0	0	0
2017/11/24 10:35:01	BASE	6.44	107	8.59	94	-1.3	67	-6.7	74	196	958.0	NA	0.0000	UP	9999	2950	0	0	0
2017/11/24 10:36:01	BASE	6.11	103	8.59	94	-1.3	67	-6.6	74	197	957.9	NA	0.0000	UP	9999	3080	0	0	0
2017/11/24 10:37:01	BASE	6.12	107	8.28	114	-1.4	68	-6.5	75	199	957.9	NA	0.0000	UP	9999	3120	0	0	0
2017/11/24 10:38:01	BASE	6.28	116	8.28	114	-1.3	68	-6.5	76	203	957.9	NA	0.0000	UP	9999	2920	0	0	0
2017/11/24 10:39:01	BASE	6.43	115	7.82	116	-1.2	67	-6.5	78	207	957.9	NA	0.0000	UP	9999	2820	0	0	0
2017/11/24 10:40:01	BASE	6.24	110	7.82	116	-1.2	67	-6.6	79	210	957.9	NA	0.0000	UP	9999	3150	0	0	0
2017/11/24 10:41:01	BASE	5.30	108	7.82	116	-1.1	66	-6.6	80	213	958.0	NA	0.0000	UP	9999	3180	0	0	0
2017/11/24 10:42:01	BASE	4.32	102	7.82	116	-1.1	66	-6.7	82	216	958.0	NA	0.0000	UP	9000	3310	0	0	0
2017/11/24 10:43:01	BASE	3.98	106	7.51	106	-1.1	66	-6.7	81	215	958.0	NA	0.0000	UP	9999	3080	0	0	0
2017/11/24 10:44:01	BASE	4.98	115	7.67	125	-1.1	66	-6.7	81	215	957.9	NA	0.0000	UP	9999	2920	0	0	0
2017/11/24 10:45:01	BASE	6.47	117	7.67	118	-1.1	66	-6.6	83	219	957.9	NA	0.0000	UP	9999	3020	0	0	0
2017/11/24 10:46:01	BASE	6.14	114	7.67	118	-1.1	67	-6.4	85	224	957.9	NA	0.0000	UP	9999	3020	0	0	0
2017/11/24 10:47:01	BASE	5.53	113	7.67	118	-0.9	67	-6.3	87	228	957.9	NA	0.0000	UP	9999	2920	0	0	0
2017/11/24 10:48:01	BASE	5.93	119	7.67	118	-0.8	67	-6.2	88	230	957.9	NA	0.0000	UP	9999	2820	0	0	0
2017/11/24 10:49:01	BASE	6.27	128	7.67	118	-0.7	66	-6.2	89	232	957.9	NA	0.0000	UP	9999	2890	0	0	0
2017/11/24 10:50:01	BASE	6.01	127	7.67	118	-0.7	66	-6.2	89	233	957.9	NA	0.0000	UP	9000	2890	0	0	0
2017/11/24 10:51:01	BASE	6.00	116	7.82	112	-0.7	66	-6.2	90	235	957.9	NA	0.0000	UP	9999	3080	0	0	0
2017/11/24 10:52:01	BASE	5.78	108	7.82	112	-0.7	66	-6.3	91	237	958.0	NA	0.0000	UP	9999	3080	0	0	0
2017/11/24 10:53:01	BASE	5.07	103	7.82	112	-0.8	66	-6.3	92	240	958.0	NA	0.0000	UP	9999	3050	0	0	0
2017/11/24 10:54:01	BASE	4.78	107	7.82	112	-0.8	67	-6.2	92	240	958.0	NA	0.0000	UP	9999	2920	3580	0	0
2017/11/24 10:55:01	BASE	4.88	117	7.82	112	-0.8	67	-6.1	92	240	958.0	NA	0.0000	UP	9999	3150	0	0	0
2017/11/24 10:56:01	BASE	5.12	116	7.82	112	-0.9	68	-6.2	92	240	957.9	NA	0.0000	UP	9999	2950	0	0	0
2017/11/24 10:57:01	BASE	4.93	112	7.82	112	-1.0	68	-6.2	92	241	958.0	NA	0.0000	UP	9999	3050	0	0	0
2017/11/24 10:58:01	BASE	5.48	108	7.82	112	-1.1	68	-6.2	93	242	957.9	NA	0.0000	UP	9999	3020	0	0	0
2017/11/24 10:59:01	BASE	6.46	110	7.82	112	-1.1	68	-6.3	93	242	957.9	NA	0.0000	UP	9999	2890	0	0	0
2017/11/24 11:00:01	BASE	6.18	117	7.82	112	-1.1	68	-6.3	94	244	958.0	NA	0.0000	UP	9999	2890	0	0	0
2017/11/24 11:01:01	BASE	5.06	121	7.25	110	-1.1	68	-6.4	95	247	958.0	NA	0.0000	UP	9999	2950	0	0	0
2017/11/24 11:02:01	BASE	4.47	123	7.25	110	-1.1	67	-6.4	95	247	958.0	NA	0.0000	UP	9999	2950	0	0	0
2017/11/24 11:03:01	BASE	5.32	129	7.25	110	-1.1	67	-6.4	93	244	957.9	NA	0.0000	UP	9999	2820	0	0	0
2017/11/24 11:04:01	BASE	6.11	131	7.25	110	-1.1	67	-6.4	92	241	957.9	NA	0.0000	UP	9999	2920	0	0	0
2017/11/24 11:05:01	BASE	5.33	128	7.25	110	-1.1	67	-6.4	91	240	958.0	NA	0.0000	UP	9999	2950	0	0	0
2017/11/24 11:06:01	BASE	4.90	125	7.25	110	-1.1	67	-6.4	90	239	958.0	NA	0.0000	UP	9999	2950	0	0	0
2017/11/24 11:07:01	BASE	4.87	119	7.25	110	-1.1	68	-6.4	89	237	958.0	NA	0.0000	UP	9999	2990	0	0	0
2017/11/24 11:08:01	BASE	4.36	117	7.25	110	-1.1	68	-6.4	88	234	958.0	NA	0.0000	UP	9999	3150	0	0	0
2017/11/24 11:09:01	BASE	4.44	122	6.84	127	-1.2	67	-6.4	87	231	958.0	NA	0.0000	UP	9999	3250	0	0	0
2017/11/24 11:10:01	BASE	4.02	119	6.84	127	-1.2	67	-6.5	86	231	958.0	NA	0.0000	UP	9999	3150	0	0	0
2017/11/24 11:11:01	BASE	3.88	110	6.84	127	-1.2	67	-6.5	86	231	958.0	NA	0.0000	UP	9000	3150	0	0	0
2017/11/24 11:12:01	BASE	4.83	112	6.84	127	-1.2	67	-6.5	86	231	958.0	NA	0.0000	UP	9000	2890	0	0	0
2017/11/24 11:13:01	BASE	5.33	115	6.84	127	-1.2	68	-6.5	86	230	957.9	NA	0.0000	UP	9000	2920	0	0	0
2017/11/24 11:14:01	BASE	5.67	118	6.28	117	-1.2	68	-6.4	85	229	957.9	NA	0.0000	UP	9000	2950	0	0	0
2017/11/24 11:15:01	BASE	5.61	123	6.28	117	-1.2	68	-6.3	84	227	957.9	NA	0.0000	UP	9000	3020	0	0	0
2017/11/24 11:16:01	BASE	5.00	122	6.28	117	-1.2	69	-6.3	84	226	957.9	NA	0.0000	UP	9000	3220	0	0	0
2017/11/24 11:17:01	BASE	4.38	111	6.28	117	-1.2	69	-6.2	85	228	958.0	NA	0.0000	UP	9000	3080	0	0	0
2017/11/24 11:18:01	BASE	4.40	104	6.28	117	-1.2	69	-6.2	86	231	958.0	NA	0.0000	UP	9999	3120	0	0	0
2017/11/24 11:19:01	BASE	4.73	103	6.28	117	-1.2	69	-6.1	88	235	958.0	NA	0.0000	UP	9000	3220	0	0	0
2017/11/24 11:20:01	BASE	4.88	102	6.28	117	-1.2	69	-6.2	89	238	958.0	NA	0.0000	UP	9000	3310	0	0	0
2017/11/24 11:21:01	BASE	4.84	103	6.28	117	-1.2	68	-6.3	90	241	958.0	NA	0.0000	UP	9999	3670	0	0	0
2017/11/24 11:22:01	BASE	4.61	106	6.28	117	-1.2	68	-6.3	90	241	958.0	NA	0.0000	UP	9999	3640	0	0	0
2017/11/24 11:23:01	BASE	4.12	113	6.28	117	-1.2	68	-6.3	89	239	958.0	NA	0.0000	UP	9999	4040	0	0	0
2017/11/24 11:24:01	BASE	3.55	119	5.56	122	-1.2	68	-6.3	87	236	957.9	NA	0.0000	UP	9000	3540	0	0	0
2017/11/24 11:25:01	BASE	3.39	121	5.35	101	-1.2	69	-6.2	87	234	957.9	NA	0.0000	UP	9000	3220	0	0	0
2017/11/24 11:26:01	BASE	3.51	111	5.35	101	-1.3	70	-6.1	87	236	958.0	NA	0.0000	UP	9999	3180	0	0	0
2017/11/24 11:27:01	BASE	3.75	97	5.35	101	-1.3	70	-6.1	88	240	958.0	NA	0.0000	UP	9000	3120	0	0	0
2017/11/24 11:28:01	BASE	3.82	87	5.35	101	-1.3	71	-6.0	90	244	958.0	NA	0.0000	UP	9000	3180	0	0	0
2017/11/24 11:29:01	BASE	3.82	84	5.35	101	-1.4	71	-6.0	92	249	958.0	NA	0.0000	UP	9000	3220	0	0	0
2017/11/24 11:30:01	BASE	4.01	93	5.14	105	-1.4	71	-5.9	94	253	957.9	NA	0.0000	UP	9999	3250	20870	0	0
2017/11/24 11:31:01	BASE	4.47	103	5.14	105	-1.4	71	-5.9	95	255	957.9	NA	0.0000	UP	9000	3220	0	0	0
2017/11/24 11:32:01	BASE	4.77	101	5.25	95	-1.4	72	-5.9	96	256	957.9	NA	0.0000	UP	7000	3310	0	0	0
2017/11/24 11:33:01	BASE	5.13	98	5.66	99	-1.4	72	-5.8	96	257	957.9	NA	0.0000	UP	7000	3450	0	0	0
2017/11/24 11:34:01	BASE	5.29	96	5.66	99	-1.4	72	-5.8	97	259	957.9	NA	0.0000	UP	7000	3970	0	0	0
2017/11/24 11:35:01	BASE	4.87	97	5.66	99	-1.3	72	-5.7	98	260	957.9	NA	0.0000	UP	7000	4170	0	0	0
2017/11/24 11:36:01	BASE	4.76	101	5.66	99	-1.3	72	-5.7	98	261	957.9	NA	0.0000	UP	7000	3310	4070	0	0
2017/11/24 11:37:01	BASE	4.76	104	5.66	99	-1.3	72	-5.8	99	263	957.9	NA	0.0000	UP	9000	3250	4130	0	0
2017/11/24 11:38:01	BASE	4.67	104	5.66	99	-1.3	71	-5.8	100	266	957.9	NA	0.0000	UP	9999	3310	0	0	0
2017/11/24 11:39:01	BASE	4.75	102	5.66	99	-1.3	71	-5.9	101	269	957.9	NA	0.0000	UP	9999	3350	0	0	0
2017/11/24 11:40:01	BASE	4.72	98	5.66	99	-1.3	70	-6.0	103	273	957.9	NA	0.0000	UP	9999	3310	4100	0	0
2017/11/24 11:41:01	BASE	4.97	96	5.81	97	-1.3	70	-6.0	105	278	957.9	NA	0.0000	UP	9000	4000	20970	0	0
2017/11/24 11:42:01	BASE	5.57	97	6.12	98	-1.3	70	-6.0	106	281	957.9	NA	0.0000	UP	9000	4070	0	0	0
2017/11/24 11:43:01	BASE	6.03	96	6.33	93	-1.2	70	-6.0	108	284	957.9	NA	0.0000	UP	9000	4000	0	0	0
2017/11/24 11:44:01	BASE	6.18	92	6.58	88	-1.2	70	-5.9	109	288	957.9	NA	0.0000	UP	9000	3900	0	0	0
2017/11/24 11:45:01	BASE	6.02	90	6.58	88	-1.2	70	-6.0	111	291	957.9	NA	0.0000	UP	9000	3940	0	0	0
2017/11/24 11:46:01	BASE	5.61	92	6.58	88	-1.2	70	-6.0	113	294	957.9	NA	0.0000	UP	9000	4000	0	0	0
2017/11/24 11:47:01	BASE	4.92	95	6.58	88	-1.1	69	-6.1	114	297	957.9	NA	0.0000	UP	9000	3970	0	0	0
2017/11/24 11:48:01	BASE	4.57	99	6.58	88	-1.1	69	-6.0	115	300	957.9	NA	0.0000	UP	9000	3840	0	0	0
2017/11/24 11:49:01	BASE	4.80	100	6.58	88	-1.1	69	-6.0	117	305	957.9	NA	0.0000	UP	8000	4040	0	0	0
2017/11/24 11:50:01	BASE	5.28	94	6.58	88	-1.0	69	-6.0	120	311	957.9	NA	0.0000	UP	6000	4100	0	0	0
2017/11/24 11:51:01	BASE	5.18	91	6.58	88	-1.0	69	-5.9	122	314	957.9	NA	0.0000	UP	7000	4070	0	0	0
2017/11/24 11:52:01	BASE	4.71	89	6.58	88	-1.1	70	-5.8	124	319	957.9	NA	0.0000	UP	5000	3900	23920	0	0
2017/11/24 11:53:01	BASE	4.76	88	6.58	88	-1.1	71	-5.7	127	326	957.8	NA	0.0000	UP	6000	390	0	0	0
2017/11/24 11:54:01	BASE	5.08	95	6.28	88	-1.1	71	-5.7	129	330	957.8	NA	0.0000	UP	5000	390	0	0	0
2017/11/24 11:55:01	BASE	5.23	101	6.28	88	-1.2	72	-5.6	133	340	957.8	NA	0.0000	UP	5000	390	0	0	0
2017/11/24 11:56:01	BASE	5.22	99	6.28	88	-1.2	72	-5.6	137	348	957.8	NA	0.0000	UP	5000	4130	0	0	0
2017/11/24 11:57:01	BASE	5.47	96	6.28	88	-1.2	72	-5.6	142	359	957.8	NA	0.0000	UP	6000	360	0	0	0
2017/11/24 11:58:01	BASE	5.37	94	6.28	88	-1.2	71	-5.7	148	371	957.8	NA	0.0000	UP	5000	330	0	0	0
2017/11/24 11:59:01	BASE	4.83	94	6.28	88	-1.1	71	-5.7	154	384	957.8	NA	0.0000	UP	3700	330	0	0	0
2017/11/24 12:00:01	BASE	4.55	94	6.02	97	-1.1	71	-5.7	161	399	957.9	NA	0.0000	UP	4800	300	0	0	0
2017/11/24 12:01:01	BASE	4.51	96	6.02	97	-1.1	71	-5.7	168	415	957.9	NA	0.0000	-SN	5000	330	0	0	0
2017/11/24 12:02:01	BASE	4.65	97	6.02	97	-1.1	71	-5.6	175	428	957.9	NA	0.0000	-SN	5000	750	0	0	0
2017/11/24 12:03:01	BASE	4.89	99	6.02	97	-1.1	72	-5.6	181	443	957.8	NA	0.0000	-SN	4000	460	4330	0	0
2017/11/24 12:04:01	BASE	4.96	103	6.02	97	-1.2	72	-5.5	189	461	957.8	NA	0.0000	-SN	5000	360	0	0	0
2017/11/24 12:05:01	BASE	4.93	106	6.02	97	-1.2	73	-5.5	200	483	957.8	NA	0.0000	-SN	7000	330	0	0	0
2017/11/24 12:06:01	BASE	4.87	105	6.02	97	-1.2	73	-5.5	207	498	957.8	NA	0.0000	-SN	5000	430	0	0	0
2017/11/24 12:07:01	BASE	4.59	104	5.56	96	-1.2	73	-5.4	212	508	957.9	NA	0.0000	-SN	7000	460	0	0	0
2017/11/24 12:08:01	BASE	4.25	104	5.45	104	-1.2	73	-5.4	216	518	957.9	NA	0.0000	-SN	7000	390	0	0	0
2017/11/24 12:09:01	BASE	3.97	103	5.45	104	-1.2	73	-5.3	221	527	957.9	NA	0.0000	-SN	9000	390	0	0	0
2017/11/24 12:10:01	BASE	3.60	101	5.45	104	-1.1	73	-5.3	223	532	957.9	NA	0.0000	-SN	9000	0	0	0	4230
2017/11/24 12:11:01	BASE	3.50	101	5.45	104	-1.1	74	-5.3	225	535	957.9	NA	0.0000	-SN	9999	3220	0	0	0
2017/11/24 12:12:01	BASE	3.43	102	5.45	104	-1.1	74	-5.2	228	540	957.9	NA	0.0000	-SN	9000	430	0	0	0
2017/11/24 12:13:01	BASE	3.11	102	5.45	104	-1.2	74	-5.2	233	552	957.9	NA	0.0000	-SN	9000	360	0	0	0
2017/11/24 12:14:01	BASE	3.11	104	5.30	106	-1.2	74	-5.2	237	560	957.9	NA	0.0000	-SN	9000	590	0	0	0
2017/11/24 12:15:01	BASE	3.27	105	5.14	106	-1.2	74	-5.2	244	573	957.9	NA	0.0000	-SN	8000	0	0	0	4040
2017/11/24 12:16:01	BASE	3.04	105	4.73	106	-1.2	74	-5.2	250	585	957.9	NA	0.0000	-SN	5000	0	0	0	4040
2017/11/24 12:17:01	BASE	2.94	103	4.37	104	-1.2	75	-5.1	253	591	957.9	NA	0.0000	-SN	6000	0	0	0	4070
2017/11/24 12:18:01	BASE	3.07	102	4.17	96	-1.2	75	-5.1	254	594	957.9	NA	0.0000	-SN	7000	0	0	0	4100
2017/11/24 12:19:01	BASE	3.05	101	3.96	98	-1.2	75	-5.1	252	591	957.9	NA	0.0000	-SN	8000	0	0	0	4130
2017/11/24 12:20:01	BASE	2.98	103	3.91	99	-1.2	75	-5.1	250	585	957.9	NA	0.0000	-SN	7000	0	0	0	4360
2017/11/24 12:21:01	BASE	2.94	106	3.70	104	-1.2	75	-5.0	248	582	957.9	NA	0.0000	-SN	8000	0	0	0	3510
2017/11/24 12:22:01	BASE	2.88	107	3.70	104	-1.2	76	-4.9	247	581	957.9	NA	0.0000	-SN	9000	0	0	0	3740
2017/11/24 12:23:01	BASE	2.78	103	3.70	104	-1.2	76	-4.9	250	585	957.9	NA	0.0000	-SN	8000	0	0	0	3740
2017/11/24 12:24:01	BASE	2.52	106	3.65	105	-1.2	77	-4.8	255	597	957.9	NA	0.0000	-SN	8000	0	0	0	3840
2017/11/24 12:25:01	BASE	2.57	108	3.34	99	-1.2	77	-4.7	263	609	957.9	NA	0.0000	-SN	6000	620	0	0	0
2017/11/24 12:26:01	BASE	2.91	105	3.34	99	-1.3	78	-4.6	271	628	957.9	NA	0.0000	-SN	6000	0	0	0	3870
2017/11/24 12:27:01	BASE	2.87	99	3.34	78	-1.3	78	-4.6	278	643	957.9	NA	0.0000	-SN	5000	360	0	0	0
2017/11/24 12:28:01	BASE	3.17	85	4.48	75	-1.3	79	-4.5	284	655	958.0	NA	0.0000	-SN	9999	360	0	0	0
2017/11/24 12:29:01	BASE	3.77	79	4.48	75	-1.2	79	-4.4	294	676	957.9	NA	0.0000	-SN	9999	330	21130	0	0
2017/11/24 12:30:01	BASE	4.02	80	4.63	82	-1.2	79	-4.4	307	702	957.9	NA	0.0000	-SN	9000	0	0	0	2990
2017/11/24 12:31:01	BASE	4.36	75	5.14	74	-1.2	79	-4.4	320	731	958.0	NA	0.0000	-SN	9000	330	0	0	0
2017/11/24 12:32:01	BASE	4.45	69	5.14	74	-1.2	79	-4.4	330	752	958.0	NA	0.0000	-SN	9999	360	0	0	0
2017/11/24 12:33:01	BASE	4.42	65	5.14	74	-1.2	79	-4.3	338	768	958.0	NA	0.0000	-SN	9000	0	0	0	3020
2017/11/24 12:34:01	BASE	4.53	65	5.14	74	-1.2	80	-4.3	347	789	958.0	NA	0.0000	-SN	9000	0	0	0	2950
2017/11/24 12:35:01	BASE	4.43	68	5.14	74	-1.2	80	-4.2	358	812	958.0	NA	0.0000	-SN	9000	0	0	0	2920
2017/11/24 12:36:01	BASE	4.38	72	5.14	74	-1.2	81	-4.1	367	831	958.0	NA	0.0000	-SN	9000	0	0	0	3050
2017/11/24 12:37:01	BASE	4.51	74	5.14	74	-1.3	81	-4.0	377	853	958.0	NA	0.0000	-SN	9000	0	0	0	3150
2017/11/24 12:38:01	BASE	4.79	75	5.25	77	-1.3	82	-4.0	388	876	958.0	NA	0.0000	-SN	9000	0	0	0	2920
2017/11/24 12:39:01	BASE	4.68	75	5.25	77	-1.4	83	-3.9	398	895	958.0	NA	0.0000	-SN	6000	0	0	0	3120
2017/11/24 12:40:01	BASE	4.59	76	5.25	77	-1.4	83	-3.8	411	921	958.0	NA	0.0000	-SN	2200	0	0	0	3050
2017/11/24 12:41:01	BASE	4.63	77	5.25	77	-1.4	84	-3.7	423	947	958.0	NA	0.0000	-SN	2000	0	0	0	3220
2017/11/24 12:42:01	BASE	4.53	75	5.25	77	-1.4	84	-3.7	439	978	958.0	NA	0.0000	-SN	3000	0	0	0	3020
2017/11/24 12:43:01	BASE	4.57	75	5.25	77	-1.3	85	-3.5	451	1003	958.0	NA	0.0000	-SN BR	8000	0	0	0	3020
2017/11/24 12:44:01	BASE	4.47	76	5.25	77	-1.3	85	-3.5	463	1028	958.0	NA	0.0000	-SN BR	8000	0	0	0	3450
2017/11/24 12:45:01	BASE	4.04	77	5.25	77	-1.3	86	-3.4	475	1051	958.0	NA	0.0000	-SN BR	9000	0	0	0	3970
2017/11/24 12:46:01	BASE	3.79	79	5.25	77	-1.3	86	-3.4	484	1069	958.0	NA	0.0000	-SN BR	9000	0	0	0	4100
2017/11/24 12:47:01	BASE	3.79	81	5.25	77	-1.3	86	-3.3	489	1080	958.1	NA	0.0000	-SN BR	8000	0	0	0	4100
2017/11/24 12:48:01	BASE	3.73	82	5.14	79	-1.3	87	-3.3	469	1042	958.1	NA	0.0000	-SN BR	6000	0	0	0	5020
2017/11/24 12:49:01	BASE	3.55	78	5.14	79	-1.4	87	-3.3	457	1020	958.1	NA	0.0000	-SN BR	1900	0	0	0	4990
2017/11/24 12:50:01	BASE	3.36	73	4.89	76	-1.4	87	-3.3	447	1000	958.1	NA	0.0000	-SN BR	2900	0	0	0	6370
2017/11/24 12:51:01	BASE	3.64	74	4.89	76	-1.4	87	-3.3	436	979	958.1	NA	0.0000	-SN BR	3900	0	0	0	5450
2017/11/24 12:52:01	BASE	4.18	72	4.89	76	-1.4	87	-3.3	431	973	958.1	NA	0.0000	-SN BR	8000	21460	0	0	0
2017/11/24 12:53:01	BASE	4.30	73	4.73	66	-1.3	87	-3.3	418	946	958.1	NA	0.0000	-SN BR	9999	2720	0	0	0
2017/11/24 12:54:01	BASE	3.80	77	4.73	66	-1.3	86	-3.3	412	937	958.0	NA	0.0000	-SN BR	9999	2820	21100	0	0
2017/11/24 12:55:01	BASE	3.36	81	4.73	66	-1.2	86	-3.2	419	949	958.1	NA	0.0000	-SN BR	4900	2530	0	0	0
2017/11/24 12:56:01	BASE	3.37	83	4.73	66	-1.2	86	-3.2	432	976	958.0	NA	0.0000	-SN BR	6000	2920	0	0	0
2017/11/24 12:57:01	BASE	3.36	81	4.73	66	-1.2	87	-3.2	451	1013	958.1	NA	0.0000	-SN BR	9999	2660	0	0	0
2017/11/24 12:58:01	BASE	3.36	82	4.73	66	-1.2	87	-3.1	472	1056	958.1	NA	0.0000	-SN BR	9999	2660	0	0	0
2017/11/24 12:59:01	BASE	3.42	82	4.73	66	-1.2	87	-3.1	494	1101	958.1	NA	0.0000	-SN BR	9999	2760	0	0	0
2017/11/24 13:00:01	BASE	3.37	82	4.73	66	-1.2	87	-3.1	508	1126	958.0	NA	0.0000	-SN BR	9999	2760	0	0	0
2017/11/24 13:01:00	BASE	3.15	84	4.73	66	-1.2	87	-3.1	513	1133	958.0	NA	0.0000	-SN BR	9999	2790	0	0	0
2017/11/24 13:02:00	BASE	2.73	81	4.42	66	-1.2	87	-3.1	519	1144	958.0	NA	0.0000	-SN BR	9999	3350	0	0	0
2017/11/24 13:03:00	BASE	3.22	76	4.37	77	-1.2	87	-3.1	527	1163	958.0	NA	0.0000	-SN	9999	3120	0	0	0
2017/11/24 13:04:00	BASE	3.59	77	4.37	77	-1.2	87	-3.1	502	1109	958.0	NA	0.0000	-SN	9999	3080	3970	0	0
2017/11/24 13:05:00	BASE	3.41	79	4.37	77	-1.2	87	-3.1	490	1088	958.0	NA	0.0000	-SN	9999	3080	3900	24480	0
2017/11/24 13:06:00	BASE	3.26	81	4.37	77	-1.1	86	-3.2	475	1059	958.0	NA	0.0000	-SN	9999	3020	3970	0	0
2017/11/24 13:07:00	BASE	2.78	85	4.37	77	-1.1	86	-3.2	461	1030	958.0	NA	0.0000	-SN	9999	3050	4000	0	0
2017/11/24 13:08:00	BASE	2.72	88	4.37	77	-1.1	85	-3.3	456	1022	958.0	NA	0.0000		9999	2990	4070	0	0
2017/11/24 13:09:00	BASE	2.62	94	4.37	77	-1.1	85	-3.4	446	1003	958.0	NA	0.0000		9999	2990	4070	0	0
2017/11/24 13:10:00	BASE	2.37	100	4.37	77	-1.1	84	-3.4	441	989	958.0	NA	0.0000		9999	2990	4040	0	0
2017/11/24 13:11:00	BASE	2.40	108	4.37	77	-1.1	84	-3.5	437	981	958.0	NA	0.0000		9999	3020	4130	0	0
2017/11/24 13:12:00	BASE	2.38	115	4.37	77	-1.1	84	-3.5	430	968	958.0	NA	0.0000		9999	2920	4070	16670	0
2017/11/24 13:13:00	BASE	2.13	116	3.96	79	-1.1	83	-3.6	422	953	958.0	NA	0.0000		9999	2850	4070	0	0
2017/11/24 13:14:00	BASE	1.88	111	3.81	78	-1.1	83	-3.6	415	942	958.0	NA	0.0000		9999	2560	4070	0	0
2017/11/24 13:15:00	BASE	1.73	105	3.45	77	-1.1	83	-3.7	399	909	958.0	NA	0.0000		9999	2850	4130	0	0
2017/11/24 13:16:00	BASE	1.57	107	3.19	88	-1.1	82	-3.7	383	876	958.0	NA	0.0000		9999	2850	4000	22020	0
2017/11/24 13:17:00	BASE	1.48	113	3.19	88	-1.1	82	-3.7	377	864	958.0	NA	0.0000		9999	2990	4000	0	0
2017/11/24 13:18:00	BASE	1.44	115	2.57	115	-1.0	82	-3.7	387	883	958.0	NA	0.0000		9999	3050	3970	0	0
2017/11/24 13:19:00	BASE	1.38	118	2.57	115	-1.0	82	-3.7	409	928	958.0	NA	0.0000		9999	3080	4000	0	0
2017/11/24 13:20:00	BASE	1.18	125	2.57	115	-1.0	82	-3.7	441	992	958.0	NA	0.0000		9999	2990	4000	0	0
2017/11/24 13:21:00	BASE	0.60	133	2.57	115	-1.0	82	-3.7	469	1045	958.0	NA	0.0000		9999	2890	4000	0	0
2017/11/24 13:22:00	BASE	0.09	133	2.11	117	-0.9	82	-3.7	490	1083	958.0	NA	0.0000		9999	2920	4040	0	0
2017/11/24 13:23:00	BASE	0.00	130	1.95	102	-1.0	82	-3.7	506	1115	957.9	NA	0.0000		9999	3120	4070	0	0
2017/11/24 13:24:00	BASE	0.00	132	1.95	102	-1.0	81	-3.8	515	1132	957.9	NA	0.0000		9999	3020	4070	0	0
2017/11/24 13:25:00	BASE	0.00	135	1.75	108	-1.0	81	-3.8	517	1136	957.9	NA	0.0000		9999	3020	4070	0	0
2017/11/24 13:26:00	BASE	0.00	132	1.70	117	-1.0	81	-3.8	516	1134	957.9	NA	0.0000		9999	2950	4100	0	0
2017/11/24 13:27:00	BASE	0.00	125	1.70	117	-1.0	81	-3.9	511	1126	957.9	NA	0.0000		9999	3450	0	0	0
2017/11/24 13:28:00	BASE	0.00	114	1.54	116	-0.9	80	-3.9	514	1135	957.9	NA	0.0000		9999	3450	0	0	0
2017/11/24 13:29:00	BASE	0.00	107	1.34	128	-0.9	79	-4.0	536	1184	957.9	NA	0.0000		9999	3510	4230	0	0
2017/11/24 13:30:00	BASE	0.09	110	1.03	110	-0.8	79	-4.1	563	1239	957.9	NA	0.0000		9999	4000	0	0	0
2017/11/24 13:31:00	BASE	0.31	110	1.29	118	-0.7	78	-4.2	603	1314	957.9	NA	0.0000		9999	4000	0	0	0
2017/11/24 13:32:00	BASE	0.93	110	1.65	108	-0.7	76	-4.3	687	1485	957.9	NA	0.0000		9999	3310	4270	21650	0
2017/11/24 13:33:00	BASE	1.21	118	1.65	108	-0.6	75	-4.5	715	1515	958.0	NA	0.0000		9999	4200	0	0	0
2017/11/24 13:34:00	BASE	1.31	146	1.85	194	-0.6	75	-4.5	780	1515	958.0	NA	0.0000		9999	4100	0	0	0
2017/11/24 13:35:00	BASE	1.72	169	2.11	160	-0.6	74	-4.6	688	1477	957.9	NA	0.0000		9999	4200	0	0	0
2017/11/24 13:36:00	BASE	2.03	162	2.83	157	-0.5	75	-4.5	754	1514	957.9	NA	0.0000		9999	4230	0	0	0
2017/11/24 13:37:00	BASE	2.31	154	2.83	157	-0.6	75	-4.4	614	1340	957.9	NA	0.0000		9999	4330	0	0	0
2017/11/24 13:38:00	BASE	2.19	156	2.83	157	-0.6	76	-4.2	603	1317	957.9	NA	0.0000		9999	4360	0	0	0
2017/11/24 13:39:00	BASE	1.89	154	2.83	157	-0.6	77	-4.1	646	1410	957.9	NA	0.0000		9999	4490	0	0	0
2017/11/24 13:40:00	BASE	1.68	150	2.83	157	-0.6	77	-4.1	693	1499	957.9	NA	0.0000		9999	4530	0	0	0
2017/11/24 13:41:00	BASE	1.59	143	2.83	157	-0.6	77	-4.1	763	1514	957.9	NA	0.0000		9999	4490	0	0	0
2017/11/24 13:42:00	BASE	1.74	136	2.83	157	-0.5	77	-4.0	816	1515	957.9	NA	0.0000		9999	4660	0	0	0
2017/11/24 13:43:00	BASE	1.54	136	2.83	157	-0.5	77	-4.1	818	1514	958.0	NA	0.0000		9999	4630	0	0	0
2017/11/24 13:44:00	BASE	0.94	150	2.83	157	-0.5	76	-4.3	719	1514	957.9	NA	0.0000		9999	4630	20010	0	0
2017/11/24 13:45:00	BASE	0.58	158	2.83	157	-0.4	75	-4.4	681	1461	957.9	NA	0.0000		9999	2760	4720	0	0
2017/11/24 13:46:00	BASE	1.01	171	2.68	155	-0.4	74	-4.4	682	1474	957.9	NA	0.0000		9999	4660	0	0	0
2017/11/24 13:47:00	BASE	1.63	187	2.21	143	-0.5	75	-4.4	605	1321	957.9	NA	0.0000		9999	4760	0	0	0
2017/11/24 13:48:00	BASE	1.74	185	2.11	183	-0.5	75	-4.3	572	1259	957.9	NA	0.0000		9999	4720	0	0	0
2017/11/24 13:49:00	BASE	1.79	183	2.11	183	-0.6	77	-4.2	529	1176	958.0	NA	0.0000		9999	4430	0	0	0
2017/11/24 13:50:00	BASE	1.81	186	2.11	183	-0.7	78	-4.1	489	1096	958.0	NA	0.0000		9999	4430	0	0	0
2017/11/24 13:51:00	BASE	1.60	191	2.11	183	-0.8	79	-4.0	465	1048	958.0	NA	0.0000		9999	4400	0	0	0
2017/11/24 13:52:00	BASE	1.11	190	2.11	183	-0.8	79	-4.0	444	1008	958.0	NA	0.0000		9999	3900	4430	20510	0
2017/11/24 13:53:00	BASE	0.46	184	2.11	183	-0.9	78	-4.2	426	972	958.0	NA	0.0000		9999	3180	4000	4490	0
2017/11/24 13:54:00	BASE	0.05	170	2.11	183	-0.9	78	-4.2	409	939	958.0	NA	0.0000		9999	3350	4430	0	0
2017/11/24 13:55:00	BASE	0.00	159	2.11	183	-0.8	78	-4.3	398	917	958.0	NA	0.0000		9999	2890	4530	0	0
2017/11/24 13:56:00	BASE	0.00	188	2.11	183	-0.8	77	-4.3	393	908	958.0	NA	0.0000		9999	3120	4100	19750	0
2017/11/24 13:57:00	BASE	0.00	175	2.11	183	-0.7	77	-4.2	394	910	958.0	NA	0.0000		9999	3020	4130	0	0
2017/11/24 13:58:00	BASE	0.05	123	2.06	187	-0.6	77	-4.2	399	922	958.0	NA	0.0000		9999	3770	0	0	0
2017/11/24 13:59:00	BASE	0.05	124	2.01	187	-0.5	76	-4.2	407	937	958.0	NA	0.0000		9999	2920	0	0	0
2017/11/24 14:00:00	BASE	0.00	115	1.59	194	-0.4	76	-4.2	418	959	958.0	NA	0.0000		9999	3900	0	0	0
2017/11/24 14:01:00	BASE	0.00	102	1.39	181	-0.4	75	-4.3	431	986	958.0	NA	0.0000		9999	3510	4200	4590	0
2017/11/24 14:02:00	BASE	0.00	102	1.13	110	-0.4	75	-4.3	443	1011	958.0	NA	0.0000		9999	3410	4130	0	0
2017/11/24 14:03:00	BASE	0.00	114	1.13	110	-0.3	75	-4.3	457	1038	958.0	NA	0.0000		9999	3310	4130	5150	0
2017/11/24 14:04:00	BASE	0.00	127	1.13	110	-0.2	75	-4.2	471	1066	958.0	NA	0.0000		9999	3310	4130	4690	0
2017/11/24 14:05:00	BASE	0.46	133	1.23	137	-0.2	75	-4.1	486	1096	958.0	NA	0.0000		9999	4130	4720	5180	0
2017/11/24 14:06:00	BASE	0.90	136	1.39	128	-0.1	75	-4.1	508	1141	958.0	NA	0.0000		9999	3480	4760	0	0
2017/11/24 14:07:00	BASE	0.75	137	1.39	128	-0.1	75	-4.1	539	1204	958.0	NA	0.0000		9999	3840	4430	0	0
2017/11/24 14:08:00	BASE	0.31	142	1.39	128	-0.2	74	-4.2	612	1360	958.0	NA	0.0000		9999	4270	4820	0	0
2017/11/24 14:09:00	BASE	0.00	156	1.39	128	-0.2	74	-4.2	686	1507	958.0	NA	0.0000		9999	3380	4890	0	0
2017/11/24 14:10:00	BASE	0.17	173	1.39	128	-0.3	74	-4.3	712	1515	958.0	NA	0.0000		9999	3310	4890	5410	0
2017/11/24 14:11:00	BASE	0.72	174	1.49	171	-0.4	75	-4.3	683	1493	958.0	NA	0.0000		9999	4400	0	0	0
2017/11/24 14:12:00	BASE	0.54	161	1.49	171	-0.5	76	-4.2	649	1421	958.0	NA	0.0000		9999	4400	0	0	0
2017/11/24 14:13:00	BASE	0.05	153	1.49	171	-0.5	76	-4.2	663	1455	958.0	NA	0.0000		9999	4360	0	0	0
2017/11/24 14:14:00	BASE	0.38	147	1.49	171	-0.5	77	-4.0	631	1389	958.0	NA	0.0000		9999	2850	4490	0	0
2017/11/24 14:15:00	BASE	0.83	136	1.49	171	-0.3	77	-3.8	607	1337	958.0	NA	0.0000		9999	3310	4560	0	0
2017/11/24 14:16:00	BASE	1.21	125	1.65	108	-0.2	77	-3.7	586	1296	958.0	NA	0.0000		9999	3310	4590	0	0
2017/11/24 14:17:00	BASE	1.48	113	1.70	109	-0.1	77	-3.7	559	1236	958.0	NA	0.0000		9999	3480	4530	0	0
2017/11/24 14:18:00	BASE	1.43	113	1.70	109	-0.1	76	-3.8	587	1299	958.0	NA	0.0000		9999	3670	4490	0	0
2017/11/24 14:19:00	BASE	1.17	126	1.70	109	-0.1	75	-3.9	606	1337	958.0	NA	0.0000		9999	3740	0	0	0
2017/11/24 14:20:00	BASE	1.17	133	1.70	109	-0.2	75	-4.1	598	1317	958.0	NA	0.0000		9999	3540	0	0	0
2017/11/24 14:21:00	BASE	1.42	131	1.95	125	-0.2	75	-4.1	572	1264	958.0	NA	0.0000		9999	3610	22020	0	0
2017/11/24 14:22:00	BASE	1.65	130	1.95	125	-0.2	75	-4.2	541	1198	958.0	NA	0.0000		9999	3900	5280	0	0
2017/11/24 14:23:00	BASE	1.78	130	2.01	126	-0.2	75	-4.1	523	1165	958.0	NA	0.0000		9999	3770	4300	5320	0
2017/11/24 14:24:00	BASE	1.52	130	2.01	126	-0.2	75	-4.1	505	1128	958.0	NA	0.0000		9999	3710	4360	5350	0
2017/11/24 14:25:00	BASE	1.06	133	2.01	126	-0.1	75	-4.1	495	1109	958.0	NA	0.0000		9999	3540	5280	14140	0
2017/11/24 14:26:00	BASE	0.42	132	2.01	126	-0.2	74	-4.2	499	1117	958.0	NA	0.0000		9999	3480	5380	0	0
2017/11/24 14:27:00	BASE	0.61	113	2.01	126	-0.2	74	-4.2	515	1151	958.0	NA	0.0000		9999	5380	0	0	0
2017/11/24 14:28:00	BASE	1.41	100	2.21	103	-0.1	74	-4.2	543	1207	958.0	NA	0.0000		9999	4200	5410	0	0
2017/11/24 14:29:00	BASE	1.66	100	2.21	103	-0.1	74	-4.2	598	1314	958.0	NA	0.0000		9999	4170	0	0	0
2017/11/24 14:30:00	BASE	1.34	89	2.21	103	-0.1	74	-4.3	758	1514	958.0	NA	0.0000		9999	4200	0	0	0
2017/11/24 14:31:00	BASE	0.62	100	2.21	103	-0.2	73	-4.5	909	1515	958.0	NA	0.0000		9999	4170	6300	0	0
2017/11/24 14:32:00	BASE	0.72	112	2.21	103	-0.2	72	-4.7	773	1515	958.0	NA	0.0000		9999	6370	0	0	0
2017/11/24 14:33:00	BASE	0.96	107	2.21	103	-0.1	70	-4.9	866	1515	958.0	NA	0.0000		9999	4300	6370	0	0
2017/11/24 14:34:00	BASE	0.97	100	2.21	110	-0.1	69	-5.1	968	1514	957.9	NA	0.0000		9999	4360	0	0	0
2017/11/24 14:35:00	BASE	0.59	105	2.21	110	-0.0	67	-5.4	991	1514	957.9	NA	0.0000		9999	3870	4330	0	0
2017/11/24 14:36:00	BASE	0.71	104	2.21	110	0.1	66	-5.5	876	1515	957.9	NA	0.0000		9999	4040	4360	0	0
2017/11/24 14:37:00	BASE	1.97	90	2.98	85	0.2	65	-5.6	992	1514	957.9	NA	0.0000		9999	4070	0	0	0
2017/11/24 14:38:00	BASE	2.43	93	3.19	84	0.2	64	-5.7	1008	1514	957.9	NA	0.0000		9999	4400	0	0	0
2017/11/24 14:39:00	BASE	2.08	101	3.19	84	0.3	64	-5.7	1012	1514	957.9	NA	0.0000		9999	4630	0	0	0
2017/11/24 14:40:00	BASE	1.75	109	3.19	84	0.4	64	-5.6	945	1515	957.9	NA	0.0000		9999	14800	0	0	0
2017/11/24 14:41:00	BASE	1.65	122	3.19	84	0.5	64	-5.5	905	1515	957.9	NA	0.0000		9999	0	0	0	0
2017/11/24 14:42:00	BASE	2.07	130	3.19	84	0.6	64	-5.4	832	1514	957.9	NA	0.0000		9999	4460	0	0	0
2017/11/24 14:43:00	BASE	2.47	134	3.19	84	0.7	65	-5.1	810	1514	957.9	NA	0.0000		9999	4530	0	0	0
2017/11/24 14:44:00	BASE	2.16	143	3.19	84	0.8	66	-4.8	948	1515	957.9	NA	0.0000		9999	4590	8660	0	0
2017/11/24 14:45:00	BASE	2.30	152	3.19	84	0.8	67	-4.6	674	1463	957.9	NA	0.0000		9999	4560	8660	0	0
2017/11/24 14:46:00	BASE	2.36	157	3.19	84	0.7	68	-4.5	683	1481	957.9	NA	0.0000		9999	8660	0	0	0
2017/11/24 14:47:00	BASE	2.25	160	3.19	84	0.6	70	-4.3	620	1349	957.9	NA	0.0000		9999	8760	0	0	0
2017/11/24 14:48:00	BASE	2.63	159	3.09	156	0.4	70	-4.5	698	1506	957.9	NA	0.0000		9999	8690	0	0	0
2017/11/24 14:49:00	BASE	2.79	151	3.09	144	0.3	70	-4.5	687	1486	957.9	NA	0.0000		9999	8690	0	0	0
2017/11/24 14:50:00	BASE	2.85	146	3.19	147	0.3	70	-4.5	717	1515	957.9	NA	0.0000		9999	8660	0	0	0
2017/11/24 14:51:00	BASE	2.96	147	3.34	148	0.3	70	-4.5	712	1514	957.9	NA	0.0000		9999	4230	8660	0	0
2017/11/24 14:52:00	BASE	2.73	148	3.34	148	0.2	70	-4.7	624	1369	957.9	NA	0.0000		9999	4170	8660	0	0
2017/11/24 14:53:00	BASE	2.15	152	3.34	148	0.1	70	-4.6	580	1276	957.9	NA	0.0000		9999	8690	0	0	0
2017/11/24 14:54:00	BASE	1.96	163	3.34	148	0.0	71	-4.6	605	1318	957.9	NA	0.0000		9999	8660	0	0	0
2017/11/24 14:55:00	BASE	2.16	175	3.34	148	-0.1	72	-4.5	601	1310	957.9	NA	0.0000		9999	8600	0	0	0
2017/11/24 14:56:00	BASE	2.14	173	3.34	148	-0.2	73	-4.5	617	1346	957.9	NA	0.0000		9999	8600	0	0	0
2017/11/24 14:57:00	BASE	1.92	173	3.34	148	-0.2	74	-4.3	635	1384	957.9	NA	0.0000		9999	4200	8630	0	0
2017/11/24 14:58:00	BASE	1.75	183	3.34	148	-0.3	75	-4.2	702	1515	957.9	NA	0.0000		9999	4130	8660	0	0
2017/11/24 14:59:00	BASE	1.78	192	3.34	148	-0.4	76	-4.1	670	1453	957.9	NA	0.0000		9999	8600	24180	0	0
2017/11/24 15:00:00	BASE	1.87	196	3.34	148	-0.4	76	-4.0	659	1431	957.9	NA	0.0000		9999	8630	0	0	0
2017/11/24 15:01:00	BASE	1.91	197	2.83	146	-0.4	77	-3.9	645	1410	957.9	NA	0.0000		9999	8500	0	0	0
2017/11/24 15:02:00	BASE	2.05	199	2.68	170	-0.4	77	-3.8	708	1514	957.9	NA	0.0000		9999	8560	0	0	0
2017/11/24 15:03:00	BASE	2.25	203	2.68	170	-0.4	78	-3.8	797	1514	957.9	NA	0.0000		9999	8530	0	0	0
2017/11/24 15:04:00	BASE	2.26	203	2.68	170	-0.4	78	-3.8	664	1461	957.9	NA	0.0000		9999	8600	0	0	0
2017/11/24 15:05:00	BASE	2.24	205	2.62	176	-0.4	78	-3.8	534	1188	957.9	NA	0.0000		9999	8530	23590	0	0
2017/11/24 15:06:00	BASE	2.38	209	2.52	209	-0.5	78	-3.8	575	1268	957.9	NA	0.0000		9999	8530	0	0	0
2017/11/24 15:07:00	BASE	2.40	210	2.62	207	-0.5	78	-3.9	673	1462	957.9	NA	0.0000		9999	4300	8560	0	0
2017/11/24 15:08:00	BASE	2.34	210	2.62	207	-0.6	78	-3.9	807	1514	957.9	NA	0.0000		9999	4300	8600	0	0
2017/11/24 15:09:00	BASE	2.24	212	2.62	207	-0.6	78	-3.9	833	1515	957.9	NA	0.0000		9999	4300	8630	0	0
2017/11/24 15:10:00	BASE	2.07	211	2.62	207	-0.6	77	-4.1	796	1514	957.9	NA	0.0000		9999	4300	0	0	0
2017/11/24 15:11:00	BASE	2.09	213	2.62	207	-0.6	77	-4.2	729	1514	957.9	NA	0.0000		9999	4270	8560	0	0
2017/11/24 15:12:00	BASE	2.33	222	2.78	234	-0.5	75	-4.3	696	1506	957.9	NA	0.0000		9999	4270	14990	0	0
2017/11/24 15:13:00	BASE	2.54	229	2.93	229	-0.4	74	-4.4	593	1312	957.9	NA	0.0000		9999	4330	8500	0	0
2017/11/24 15:14:00	BASE	2.54	237	2.93	229	-0.3	73	-4.5	566	1256	957.9	NA	0.0000		9999	4200	8560	0	0
2017/11/24 15:15:00	BASE	2.51	243	3.19	238	-0.2	73	-4.5	541	1201	957.9	NA	0.0000		9999	8560	0	0	0
2017/11/24 15:16:00	BASE	2.53	246	3.19	238	-0.2	72	-4.6	588	1301	957.9	NA	0.0000		9999	8530	0	0	0
2017/11/24 15:17:00	BASE	2.34	248	3.19	238	-0.2	72	-4.6	573	1264	957.9	NA	0.0000		9999	8660	0	0	0
2017/11/24 15:18:00	BASE	2.23	252	3.19	238	-0.1	72	-4.6	594	1310	957.9	NA	0.0000		9999	8630	0	0	0
2017/11/24 15:19:00	BASE	2.40	256	3.19	238	-0.1	71	-4.7	725	1515	957.9	NA	0.0000		9999	8660	0	0	0
2017/11/24 15:20:00	BASE	2.59	258	3.19	238	-0.1	71	-4.7	644	1408	957.9	NA	0.0000		9999	8630	0	0	0
2017/11/24 15:21:00	BASE	2.47	256	3.19	238	-0.0	70	-4.9	738	1515	957.9	NA	0.0000		9999	8600	0	0	0
2017/11/24 15:22:00	BASE	2.47	257	3.19	238	0.0	70	-4.8	779	1514	957.9	NA	0.0000		9999	8630	0	0	0
2017/11/24 15:23:00	BASE	2.96	264	3.76	260	0.1	70	-4.7	712	1514	957.9	NA	0.0000		9999	8600	0	0	0
2017/11/24 15:24:00	BASE	3.14	264	3.76	260	0.1	71	-4.5	663	1449	957.9	NA	0.0000		9999	4230	8690	0	0
2017/11/24 15:25:00	BASE	2.84	262	3.76	260	0.1	73	-4.3	583	1287	957.9	NA	0.0000		9999	4230	0	0	0
2017/11/24 15:26:00	BASE	2.65	265	3.76	260	0.1	74	-4.0	695	1515	957.9	NA	0.0000		9999	4200	8730	0	0
2017/11/24 15:27:00	BASE	2.51	269	3.76	260	0.1	76	-3.7	801	1514	957.9	NA	0.0000		9999	4230	8730	0	0
2017/11/24 15:28:00	BASE	2.38	272	3.76	260	0.1	76	-3.6	674	1473	958.0	NA	0.0000		9999	4270	8630	0	0
2017/11/24 15:29:00	BASE	2.23	274	3.76	260	0.2	76	-3.5	688	1504	958.0	NA	0.0000		9999	4230	8630	0	0
2017/11/24 15:30:00	BASE	2.22	277	3.76	260	0.2	76	-3.4	696	1514	958.0	NA	0.0000		9999	4230	0	0	0
2017/11/24 15:31:00	BASE	2.33	280	3.76	260	0.3	76	-3.4	596	1316	958.0	NA	0.0000		9999	4230	0	0	0
2017/11/24 15:32:00	BASE	2.54	274	3.76	260	0.3	76	-3.4	593	1317	958.0	NA	0.0000		9999	4230	0	0	0
2017/11/24 15:33:00	BASE	2.93	271	3.45	272	0.3	76	-3.5	585	1298	958.0	NA	0.0000		9999	4170	0	0	0
2017/11/24 15:34:00	BASE	3.27	271	3.60	271	0.3	76	-3.5	609	1341	958.0	NA	0.0000		9999	4170	18370	0	0
2017/11/24 15:35:00	BASE	3.37	269	3.60	271	0.2	76	-3.5	631	1385	958.0	NA	0.0000		9999	4170	23850	0	0
2017/11/24 15:36:00	BASE	3.18	264	3.60	271	0.0	77	-3.5	647	1415	958.0	NA	0.0000		9999	4200	0	0	0
2017/11/24 15:37:00	BASE	3.08	258	3.60	271	-0.1	78	-3.4	694	1514	958.0	NA	0.0000		9999	4170	0	0	0
2017/11/24 15:38:00	BASE	2.93	260	3.60	271	-0.2	79	-3.4	1026	1515	958.1	NA	0.0000		9999	4200	0	0	0
2017/11/24 15:39:00	BASE	2.64	264	3.60	271	-0.2	79	-3.4	808	1514	958.1	NA	0.0000		9999	4230	0	0	0
2017/11/24 15:40:00	BASE	2.54	262	3.60	271	-0.2	79	-3.4	709	1514	958.1	NA	0.0000		9999	4200	0	0	0
2017/11/24 15:41:00	BASE	2.59	263	3.60	271	-0.1	78	-3.5	640	1408	958.1	NA	0.0000		9999	4230	0	0	0
2017/11/24 15:42:00	BASE	2.68	269	3.60	271	-0.1	77	-3.6	613	1347	958.1	NA	0.0000		9999	4270	0	0	0
2017/11/24 15:43:00	BASE	2.66	272	3.60	271	0.0	76	-3.7	618	1358	958.1	NA	0.0000		9999	4270	0	0	0
2017/11/24 15:44:00	BASE	2.77	272	3.55	258	0.1	76	-3.7	622	1368	958.1	NA	0.0000		9999	4300	0	0	0
2017/11/24 15:45:00	BASE	2.99	271	3.55	258	0.1	75	-3.8	634	1401	958.1	NA	0.0000		9999	4230	19390	0	0
2017/11/24 15:46:00	BASE	3.11	271	3.55	258	0.1	75	-3.8	594	1311	958.1	NA	0.0000		9999	4200	17390	0	0
2017/11/24 15:47:00	BASE	3.15	271	3.40	270	0.1	74	-4.0	597	1323	958.2	NA	0.0000		9999	4270	0	0	0
2017/11/24 15:48:00	BASE	3.12	272	3.40	270	0.2	74	-4.0	620	1366	958.2	NA	0.0000		9999	4200	21100	22670	0
2017/11/24 15:49:00	BASE	3.06	273	3.40	270	0.2	73	-4.0	654	1435	958.3	NA	0.0000		9999	4200	21200	0	0
2017/11/24 15:50:00	BASE	3.00	273	3.40	270	0.2	73	-4.0	634	1386	958.3	NA	0.0000		9999	4230	0	0	0
2017/11/24 15:51:00	BASE	2.99	273	3.40	270	0.3	73	-4.0	656	1441	958.3	NA	0.0000		9999	4200	0	0	0
2017/11/24 15:52:00	BASE	3.06	272	3.40	270	0.3	72	-4.1	624	1372	958.3	NA	0.0000		9999	4230	0	0	0
2017/11/24 15:53:00	BASE	3.17	272	3.45	268	0.3	72	-4.3	590	1296	958.3	NA	0.0000		9999	4230	0	0	0
2017/11/24 15:54:00	BASE	3.10	269	3.45	268	0.2	71	-4.5	574	1267	958.3	NA	0.0000		9999	4270	0	0	0
2017/11/24 15:55:00	BASE	2.91	264	3.45	268	0.2	70	-4.7	596	1312	958.3	NA	0.0000		9999	4300	0	0	0
2017/11/24 15:56:00	BASE	2.89	262	3.45	262	0.1	69	-4.8	848	1515	958.3	NA	0.0000		9999	4270	0	0	0
2017/11/24 15:57:00	BASE	2.80	262	3.45	262	0.1	69	-4.9	827	1515	958.3	NA	0.0000		9999	4300	0	0	0
2017/11/24 15:58:00	BASE	2.40	255	3.45	262	0.2	69	-4.8	1081	1515	958.3	NA	0.0000		9999	4330	0	0	0
2017/11/24 15:59:00	BASE	2.31	246	3.45	262	0.3	70	-4.6	948	1515	958.3	NA	0.0000		9999	4330	0	0	0
2017/11/24 16:00:00	BASE	2.55	240	3.45	262	0.3	70	-4.5	788	1514	958.3	NA	0.0000		9999	4330	0	0	0
2017/11/24 16:01:00	BASE	2.68	239	3.45	262	0.2	71	-4.4	697	1514	958.3	NA	0.0000		9999	4300	0	0	0
2017/11/24 16:02:00	BASE	2.79	239	3.45	262	0.2	71	-4.4	713	1515	958.3	NA	0.0000		9999	4270	0	0	0
2017/11/24 16:03:00	BASE	2.82	237	3.45	262	0.1	72	-4.4	580	1283	958.3	NA	0.0000		9999	4560	0	0	0
2017/11/24 16:04:00	BASE	2.90	236	3.45	262	-0.1	72	-4.5	587	1296	958.3	NA	0.0000		9999	4690	0	0	0
2017/11/24 16:05:00	BASE	2.70	237	3.45	262	-0.1	73	-4.5	974	1515	958.3	NA	0.0000		9999	4760	0	0	0
2017/11/24 16:06:00	BASE	2.31	239	3.24	267	-0.2	73	-4.5	1031	1515	958.3	NA	0.0000		9999	4820	0	0	0
2017/11/24 16:07:00	BASE	2.30	240	3.14	239	-0.2	73	-4.5	869	1515	958.3	NA	0.0000		9999	4300	0	0	0
2017/11/24 16:08:00	BASE	2.40	239	3.14	239	-0.1	72	-4.5	753	1515	958.3	NA	0.0000		9999	4270	0	0	0
2017/11/24 16:09:00	BASE	2.31	245	3.14	239	-0.0	72	-4.6	721	1515	958.4	NA	0.0000		9999	4270	0	0	0
2017/11/24 16:10:00	BASE	2.15	253	3.14	239	0.0	71	-4.6	666	1456	958.4	NA	0.0000		9999	4300	0	0	0
2017/11/24 16:11:00	BASE	2.09	258	3.14	239	0.1	70	-4.7	908	1515	958.4	NA	0.0000		9999	4270	0	0	0
2017/11/24 16:12:00	BASE	2.08	263	3.09	236	0.2	70	-4.6	951	1515	958.4	NA	0.0000		9999	4300	0	0	0
2017/11/24 16:13:00	BASE	2.12	259	3.09	236	0.4	70	-4.5	748	1514	958.4	NA	0.0000		9999	4270	0	0	0
2017/11/24 16:14:00	BASE	2.17	253	2.98	238	0.4	69	-4.6	706	1515	958.4	NA	0.0000		9999	4230	0	0	0
2017/11/24 16:15:00	BASE	2.00	249	2.98	238	0.4	69	-4.7	766	1515	958.4	NA	0.0000		9999	4200	0	0	0
2017/11/24 16:16:00	BASE	1.86	252	2.98	238	0.4	69	-4.6	834	1514	958.4	NA	0.0000		9999	4170	5220	0	0
2017/11/24 16:17:00	BASE	1.89	254	2.98	238	0.4	69	-4.6	838	1515	958.4	NA	0.0000		9999	4270	5180	0	0
2017/11/24 16:18:00	BASE	1.91	249	2.68	241	0.3	70	-4.7	964	1514	958.4	NA	0.0000		9999	5120	0	0	0
2017/11/24 16:19:00	BASE	2.02	244	2.62	240	0.2	70	-4.6	1032	1515	958.4	NA	0.0000		9999	4300	0	0	0
2017/11/24 16:20:00	BASE	2.00	239	2.62	240	0.2	70	-4.5	820	1514	958.4	NA	0.0000		9999	4270	5280	0	0
2017/11/24 16:21:00	BASE	1.90	240	2.62	240	0.2	70	-4.7	738	1515	958.4	NA	0.0000		9999	5150	0	0	0
2017/11/24 16:22:00	BASE	1.97	247	2.62	240	0.2	69	-4.8	691	1499	958.4	NA	0.0000		9999	5090	0	0	0
2017/11/24 16:23:00	BASE	2.04	252	2.52	251	0.2	69	-4.8	719	1515	958.4	NA	0.0000		9999	5150	0	0	0
2017/11/24 16:24:00	BASE	2.20	261	2.68	270	0.2	68	-4.9	688	1497	958.4	NA	0.0000		9999	5120	0	0	0
2017/11/24 16:25:00	BASE	2.43	272	3.09	253	0.3	68	-4.9	757	1514	958.4	NA	0.0000		9999	5120	0	0	0
2017/11/24 16:26:00	BASE	2.63	274	3.09	253	0.4	68	-4.9	651	1427	958.4	NA	0.0000		9999	5090	0	0	0
2017/11/24 16:27:00	BASE	2.56	273	3.09	253	0.6	67	-4.8	655	1433	958.4	NA	0.0000		9999	5050	0	0	0
2017/11/24 16:28:00	BASE	2.63	273	3.24	282	0.7	67	-4.8	667	1455	958.4	NA	0.0000		9999	5150	0	0	0
2017/11/24 16:29:00	BASE	2.69	271	3.24	282	0.7	66	-4.9	673	1465	958.4	NA	0.0000		9999	5120	0	0	0
2017/11/24 16:30:00	BASE	2.41	268	3.24	282	0.7	66	-5.0	703	1514	958.4	NA	0.0000		9999	5180	0	0	0
2017/11/24 16:31:00	BASE	2.28	267	3.24	282	0.7	65	-5.1	706	1515	958.4	NA	0.0000		9999	5120	0	0	0
2017/11/24 16:32:00	BASE	2.21	269	3.24	282	0.6	65	-5.2	649	1424	958.4	NA	0.0000		9999	5120	0	0	0
2017/11/24 16:33:00	BASE	2.26	268	3.24	282	0.6	65	-5.1	609	1345	958.4	NA	0.0000		9999	5120	0	0	0
2017/11/24 16:34:00	BASE	2.37	264	3.24	282	0.6	66	-5.1	572	1276	958.4	NA	0.0000		9999	5150	0	0	0
2017/11/24 16:35:00	BASE	2.48	266	3.24	282	0.6	66	-5.0	549	1234	958.4	NA	0.0000		9999	5150	0	0	0
2017/11/24 16:36:00	BASE	2.55	268	3.24	282	0.7	66	-4.9	541	1220	958.4	NA	0.0000		9999	5120	0	0	0
2017/11/24 16:37:00	BASE	2.66	267	3.29	263	0.7	67	-4.8	559	1262	958.4	NA	0.0000		9999	5120	0	0	0
2017/11/24 16:38:00	BASE	2.78	266	3.29	263	0.8	66	-4.8	570	1282	958.4	NA	0.0000		9999	5090	0	0	0
2017/11/24 16:39:00	BASE	2.65	267	3.29	263	0.8	66	-4.7	583	1308	958.4	NA	0.0000		9999	5150	0	0	0
2017/11/24 16:40:00	BASE	2.60	264	3.29	263	0.9	66	-4.8	547	1227	958.4	NA	0.0000		9999	5090	0	0	0
2017/11/24 16:41:00	BASE	2.55	259	3.29	263	0.8	66	-4.8	522	1173	958.4	NA	0.0000		9999	5090	0	0	0
2017/11/24 16:42:00	BASE	2.61	261	3.29	263	0.8	66	-4.8	540	1212	958.4	NA	0.0000		9999	5150	0	0	0
2017/11/24 16:43:00	BASE	2.61	264	3.29	263	0.7	66	-4.8	553	1237	958.4	NA	0.0000		9999	5120	0	0	0
2017/11/24 16:44:00	BASE	2.44	254	3.29	263	0.6	66	-4.9	567	1271	958.4	NA	0.0000		9999	5050	0	0	0
2017/11/24 16:45:00	BASE	2.25	249	3.29	263	0.6	67	-4.8	518	1167	958.4	NA	0.0000		9999	4890	0	0	0
2017/11/24 16:46:00	BASE	2.12	253	3.29	263	0.5	68	-4.7	499	1126	958.4	NA	0.0000		9999	4920	0	0	0
2017/11/24 16:47:00	BASE	2.42	256	3.24	260	0.5	69	-4.7	504	1138	958.4	NA	0.0000		9999	4950	0	0	0
2017/11/24 16:48:00	BASE	2.64	263	3.24	260	0.4	69	-4.6	536	1207	958.4	NA	0.0000		9999	5050	0	0	0
2017/11/24 16:49:00	BASE	2.52	263	3.24	260	0.3	70	-4.5	553	1239	958.4	NA	0.0000		9999	5090	0	0	0
2017/11/24 16:50:00	BASE	2.30	259	3.24	260	0.3	70	-4.5	566	1259	958.4	NA	0.0000		9999	5150	23200	0	0
2017/11/24 16:51:00	BASE	2.05	255	3.24	260	0.3	70	-4.5	593	1319	958.4	NA	0.0000		9999	5180	0	0	0
2017/11/24 16:52:00	BASE	2.09	258	3.24	260	0.3	71	-4.4	614	1362	958.4	NA	0.0000		9999	5090	0	0	0
2017/11/24 16:53:00	BASE	2.06	258	3.24	260	0.4	71	-4.3	610	1351	958.5	NA	0.0000		9999	5020	0	0	0
2017/11/24 16:54:00	BASE	2.04	251	3.24	260	0.4	71	-4.2	621	1369	958.5	NA	0.0000		9999	5020	0	0	0
2017/11/24 16:55:00	BASE	2.35	248	3.24	260	0.4	71	-4.2	655	1440	958.5	NA	0.0000		9999	5320	0	0	0
2017/11/24 16:56:00	BASE	2.53	243	3.24	260	0.3	71	-4.3	755	1515	958.5	NA	0.0000		9999	5320	0	0	0
2017/11/24 16:57:00	BASE	2.61	240	3.09	247	0.2	71	-4.5	871	1514	958.5	NA	0.0000		9999	5180	0	0	0
2017/11/24 16:58:00	BASE	2.62	238	3.09	247	0.1	70	-4.7	848	1515	958.5	NA	0.0000		9999	5280	0	0	0
2017/11/24 16:59:00	BASE	2.63	236	3.09	247	0.0	70	-4.8	664	1455	958.5	NA	0.0000		9999	5180	0	0	0
2017/11/24 17:00:00	BASE	2.53	238	3.09	247	-0.0	70	-4.8	621	1369	958.5	NA	0.0000		9999	5280	0	0	0
2017/11/24 17:01:00	BASE	2.24	239	3.09	247	-0.0	71	-4.8	627	1382	958.5	NA	0.0000		9999	5220	0	0	0
2017/11/24 17:02:00	BASE	2.09	241	3.09	247	-0.0	71	-4.7	681	1490	958.5	NA	0.0000		9999	5180	0	0	0
2017/11/24 17:03:00	BASE	2.23	239	3.09	247	-0.0	72	-4.5	726	1514	958.5	NA	0.0000		9999	5150	0	0	0
2017/11/24 17:04:00	BASE	2.24	238	3.09	247	-0.0	72	-4.5	772	1515	958.5	NA	0.0000		9999	5150	0	0	0
2017/11/24 17:05:00	BASE	2.12	240	2.93	236	-0.1	72	-4.4	712	1515	958.5	NA	0.0000		9999	5090	0	0	0
2017/11/24 17:06:00	BASE	2.29	240	2.93	236	-0.1	72	-4.4	665	1457	958.5	NA	0.0000		9999	5150	0	0	0
2017/11/24 17:07:00	BASE	2.25	239	2.93	236	-0.1	73	-4.4	641	1411	958.5	NA	0.0000		9999	5150	0	0	0
2017/11/24 17:08:00	BASE	2.11	242	2.93	236	-0.1	73	-4.4	634	1399	958.5	NA	0.0000		9999	5180	0	0	0
2017/11/24 17:09:00	BASE	1.99	243	2.68	238	-0.0	73	-4.3	643	1419	958.5	NA	0.0000		9999	5150	0	0	0
2017/11/24 17:10:00	BASE	1.84	242	2.68	238	0.0	73	-4.3	659	1454	958.5	NA	0.0000		9999	5180	0	0	0
2017/11/24 17:11:00	BASE	1.85	245	2.68	238	0.1	73	-4.2	657	1449	958.5	NA	0.0000		9999	5090	0	0	0
2017/11/24 17:12:00	BASE	1.95	255	2.73	265	0.1	73	-4.1	651	1432	958.5	NA	0.0000		9999	5050	0	0	0
2017/11/24 17:13:00	BASE	2.07	270	2.73	265	0.2	73	-4.0	669	1468	958.5	NA	0.0000		9999	5020	0	0	0
2017/11/24 17:14:00	BASE	2.24	278	2.83	265	0.3	73	-3.9	686	1501	958.5	NA	0.0000		9999	4990	0	0	0
2017/11/24 17:15:00	BASE	2.40	276	2.83	265	0.4	73	-3.9	725	1515	958.5	NA	0.0000		9999	4990	0	0	0
2017/11/24 17:16:00	BASE	2.34	269	2.83	265	0.5	73	-3.8	653	1437	958.6	NA	0.0000		9999	4950	0	0	0
2017/11/24 17:17:00	BASE	2.15	266	2.83	265	0.6	72	-3.9	645	1425	958.6	NA	0.0000		9999	4990	0	0	0
2017/11/24 17:18:00	BASE	2.10	270	2.83	265	0.6	72	-3.9	605	1341	958.6	NA	0.0000		9999	5050	0	0	0
2017/11/24 17:19:00	BASE	2.17	271	2.88	254	0.6	72	-3.8	587	1305	958.6	NA	0.0000		9999	4890	0	0	0
2017/11/24 17:20:00	BASE	2.08	268	2.88	254	0.7	72	-3.8	585	1302	958.6	NA	0.0000		9999	4790	0	0	0
2017/11/24 17:21:00	BASE	1.99	262	2.88	254	0.6	72	-3.8	584	1301	958.6	NA	0.0000		9999	4720	0	0	0
2017/11/24 17:22:00	BASE	1.96	257	2.88	254	0.7	73	-3.7	582	1295	958.6	NA	0.0000		9999	4760	0	0	0
2017/11/24 17:23:00	BASE	1.92	254	2.88	254	0.6	73	-3.8	597	1329	958.6	NA	0.0000		9999	4790	0	0	0
2017/11/24 17:24:00	BASE	2.02	246	2.88	254	0.5	73	-3.9	595	1322	958.6	NA	0.0000		9999	4820	0	0	0
2017/11/24 17:25:00	BASE	2.00	242	2.88	254	0.3	73	-4.0	612	1357	958.6	NA	0.0000		9999	4860	21920	0	0
2017/11/24 17:26:00	BASE	1.84	251	2.88	254	0.2	73	-4.0	635	1406	958.6	NA	0.0000		9999	5050	18670	19160	0
2017/11/24 17:27:00	BASE	1.94	263	2.88	254	0.2	74	-3.9	618	1369	958.6	NA	0.0000		9999	5120	0	0	0
2017/11/24 17:28:00	BASE	2.01	266	2.88	254	0.2	74	-3.9	604	1339	958.6	NA	0.0000		9999	5250	0	0	0
2017/11/24 17:29:00	BASE	1.85	262	2.62	246	0.3	75	-3.7	605	1342	958.6	NA	0.0000		9999	4300	5120	0	0
2017/11/24 17:30:00	BASE	1.67	259	2.62	246	0.3	75	-3.6	606	1348	958.6	NA	0.0000		9999	4330	0	0	0
2017/11/24 17:31:00	BASE	1.83	263	2.62	246	0.4	75	-3.6	592	1319	958.6	NA	0.0000		9999	4270	23430	0	0
2017/11/24 17:32:00	BASE	1.97	265	2.57	253	0.4	74	-3.6	571	1275	958.6	NA	0.0000		9999	4300	0	0	0
2017/11/24 17:33:00	BASE	1.89	256	2.57	253	0.4	74	-3.7	558	1250	958.6	NA	0.0000		9999	4300	0	0	0
2017/11/24 17:34:00	BASE	1.88	252	2.57	253	0.3	74	-3.7	532	1197	958.6	NA	0.0000		9999	4270	4790	21360	0
2017/11/24 17:35:00	BASE	2.01	247	2.57	253	0.3	74	-3.7	511	1153	958.6	NA	0.0000		9999	4300	4760	0	0
2017/11/24 17:36:00	BASE	2.00	248	2.42	248	0.2	74	-3.8	497	1125	958.7	NA	0.0000		9999	4820	0	0	0
2017/11/24 17:37:00	BASE	1.81	260	2.42	248	0.2	75	-3.8	489	1108	958.7	NA	0.0000		9999	4330	4990	0	0
2017/11/24 17:38:00	BASE	1.71	265	2.42	248	0.3	75	-3.7	483	1096	958.7	NA	0.0000		9999	5050	0	0	0
2017/11/24 17:39:00	BASE	1.59	262	2.42	248	0.3	75	-3.6	479	1087	958.7	NA	0.0000		9999	4990	0	0	0
2017/11/24 17:40:00	BASE	1.56	259	2.42	248	0.4	75	-3.5	478	1083	958.7	NA	0.0000		9999	4820	0	0	0
2017/11/24 17:41:00	BASE	1.85	250	2.42	240	0.5	75	-3.5	478	1083	958.7	NA	0.0000		9999	4820	0	0	0
2017/11/24 17:42:00	BASE	2.04	239	2.42	234	0.4	74	-3.6	478	1084	958.8	NA	0.0000		9999	4760	0	0	0
2017/11/24 17:43:00	BASE	2.05	237	2.42	234	0.3	74	-3.8	479	1085	958.8	NA	0.0000		9999	4230	4790	0	0
2017/11/24 17:44:00	BASE	2.09	234	2.42	234	0.2	74	-3.9	480	1088	958.8	NA	0.0000		9999	4230	0	0	0
2017/11/24 17:45:00	BASE	2.03	231	2.42	234	-0.0	75	-4.0	483	1092	958.9	NA	0.0000		9999	4270	0	0	0
2017/11/24 17:46:00	BASE	1.96	229	2.42	234	-0.1	75	-4.0	487	1100	958.9	NA	0.0000		9999	4270	0	0	0
2017/11/24 17:47:00	BASE	1.88	231	2.42	234	-0.2	75	-4.0	495	1117	958.9	NA	0.0000		9999	4270	0	0	0
2017/11/24 17:48:00	BASE	1.78	231	2.42	234	-0.2	76	-4.0	500	1126	958.9	NA	0.0000		9999	4230	0	0	0
2017/11/24 17:49:00	BASE	1.64	233	2.42	234	-0.2	76	-3.9	501	1128	958.9	NA	0.0000		9999	4230	0	0	0
2017/11/24 17:50:00	BASE	1.58	237	2.42	234	-0.2	76	-3.9	500	1124	958.9	NA	0.0000		9999	4300	0	0	0
2017/11/24 17:51:00	BASE	1.61	238	2.42	234	-0.2	76	-3.9	500	1124	958.9	NA	0.0000		9999	4230	0	0	0
2017/11/24 17:52:00	BASE	1.62	238	2.31	242	-0.1	76	-3.9	502	1127	958.9	NA	0.0000		9999	4230	0	0	0
2017/11/24 17:53:00	BASE	1.68	233	2.31	242	-0.1	76	-3.9	507	1136	958.9	NA	0.0000		9999	4270	5020	0	0
2017/11/24 17:54:00	BASE	1.65	231	2.11	226	-0.0	75	-3.9	518	1158	958.9	NA	0.0000		9999	5090	0	0	0
2017/11/24 17:55:00	BASE	1.27	236	2.11	226	0.0	75	-3.9	534	1189	958.9	NA	0.0000		9999	5150	0	0	0
2017/11/24 17:56:00	BASE	1.06	239	2.11	226	0.1	75	-3.9	556	1232	958.9	NA	0.0000		9999	5280	0	0	0
2017/11/24 17:57:00	BASE	1.23	238	2.11	226	0.1	74	-3.9	581	1280	958.9	NA	0.0000		9999	5180	0	0	0
2017/11/24 17:58:00	BASE	1.44	225	2.11	226	0.2	74	-3.9	601	1317	958.9	NA	0.0000		9999	5250	19850	0	0
2017/11/24 17:59:00	BASE	1.57	214	2.11	226	0.2	74	-3.9	630	1371	958.9	NA	0.0000		9999	5380	0	0	0
2017/11/24 18:00:00	BASE	1.68	213	2.11	226	0.3	74	-3.8	659	1426	959.0	NA	0.0000		9999	5250	23070	0	0
2017/11/24 18:01:00	BASE	1.80	209	2.11	226	0.3	74	-3.7	678	1461	959.0	NA	0.0000		9999	4950	0	0	0
2017/11/24 18:02:00	BASE	1.81	208	2.11	226	0.3	75	-3.6	682	1464	959.0	NA	0.0000		9999	5220	0	0	0
2017/11/24 18:03:00	BASE	1.81	215	2.11	222	0.3	75	-3.5	664	1428	959.0	NA	0.0000		9999	5320	0	0	0
2017/11/24 18:04:00	BASE	1.65	225	2.11	222	0.3	76	-3.5	648	1398	959.0	NA	0.0000		9999	4950	0	0	0
2017/11/24 18:05:00	BASE	1.55	228	2.11	222	0.3	76	-3.5	636	1374	959.0	NA	0.0000		9999	5120	0	0	0
2017/11/24 18:06:00	BASE	1.57	224	2.11	222	0.2	76	-3.5	628	1359	959.0	NA	0.0000		9999	4720	0	0	0
2017/11/24 18:07:00	BASE	1.51	216	2.11	222	0.3	76	-3.4	619	1341	959.0	NA	0.0000		9999	4690	0	0	0
2017/11/24 18:08:00	BASE	1.38	214	2.11	222	0.3	76	-3.4	604	1312	959.0	NA	0.0000		9999	4790	0	0	0
2017/11/24 18:09:00	BASE	1.21	240	2.11	222	0.3	76	-3.5	596	1296	959.0	NA	0.0000		9999	4920	0	0	0
2017/11/24 18:10:00	BASE	1.21	262	2.11	222	0.2	75	-3.6	595	1292	959.0	NA	0.0000		9999	4820	0	0	0
2017/11/24 18:11:00	BASE	0.93	255	2.11	222	0.2	75	-3.8	598	1298	959.0	NA	0.0000		9999	4690	0	0	0
2017/11/24 18:12:00	BASE	0.77	247	2.11	222	0.2	74	-3.9	599	1301	959.0	NA	0.0000		9999	4860	0	0	0
2017/11/24 18:13:00	BASE	1.04	250	1.95	226	0.3	73	-4.0	592	1288	959.0	NA	0.0000		9999	4790	0	0	0
2017/11/24 18:14:00	BASE	1.22	255	1.95	226	0.3	73	-4.0	587	1277	959.0	NA	0.0000		9999	4920	0	0	0
2017/11/24 18:15:00	BASE	1.32	258	1.75	280	0.3	73	-4.0	591	1284	959.0	NA	0.0000		9999	4720	0	0	0
2017/11/24 18:16:00	BASE	1.48	258	1.90	274	0.3	73	-3.9	605	1313	959.0	NA	0.0000		9999	4460	0	0	0
2017/11/24 18:17:00	BASE	1.55	256	1.90	274	0.3	73	-3.9	612	1325	959.0	NA	0.0000		9999	4690	0	0	0
2017/11/24 18:18:00	BASE	1.44	258	1.90	274	0.3	74	-3.8	615	1331	959.0	NA	0.0000		9999	4300	0	0	0
2017/11/24 18:19:00	BASE	1.32	262	1.90	274	0.4	74	-3.8	615	1331	959.0	NA	0.0000		9999	4360	0	0	0
2017/11/24 18:20:00	BASE	1.42	266	2.01	243	0.4	74	-3.7	617	1335	959.1	NA	0.0000		9999	3970	0	0	0
2017/11/24 18:21:00	BASE	1.57	266	2.11	249	0.4	74	-3.7	619	1340	959.1	NA	0.0000		9999	3940	0	0	0
2017/11/24 18:22:00	BASE	1.74	270	2.16	281	0.6	73	-3.7	619	1341	959.1	NA	0.0000		9999	3740	0	0	0
2017/11/24 18:23:00	BASE	2.05	279	2.52	282	0.7	72	-3.7	617	1336	959.1	NA	0.0000		9999	3970	0	0	0
2017/11/24 18:24:00	BASE	2.24	278	2.62	277	0.7	71	-3.9	623	1349	959.1	NA	0.0000		9999	4300	0	0	0
2017/11/24 18:25:00	BASE	2.20	276	2.62	277	0.7	70	-4.0	642	1385	959.1	NA	0.0000		9999	4360	0	0	0
2017/11/24 18:26:00	BASE	2.18	277	2.62	277	0.8	70	-4.1	650	1401	959.1	NA	0.0000		9999	5020	0	0	0
2017/11/24 18:27:00	BASE	2.27	280	2.62	277	0.7	69	-4.3	652	1404	959.1	NA	0.0000		9999	5120	0	0	0
2017/11/24 18:28:00	BASE	2.36	281	2.73	280	0.7	69	-4.3	663	1426	959.1	NA	0.0000		9999	5050	0	0	0
2017/11/24 18:29:00	BASE	2.41	279	2.83	278	0.8	71	-4.0	669	1435	959.1	NA	0.0000		9999	5020	0	0	0
2017/11/24 18:30:00	BASE	2.39	276	2.83	278	0.8	72	-3.8	656	1412	959.1	NA	0.0000		9999	5180	0	0	0
2017/11/24 18:31:00	BASE	2.32	275	2.83	278	0.7	73	-3.5	648	1396	959.1	NA	0.0000		9999	21590	0	0	0
2017/11/24 18:32:00	BASE	2.35	278	2.83	278	0.7	75	-3.3	630	1362	959.1	NA	0.0000		9999	5280	0	0	0
2017/11/24 18:33:00	BASE	2.50	278	2.83	278	0.7	76	-3.1	617	1336	959.1	NA	0.0000		9999	5280	0	0	0
2017/11/24 18:34:00	BASE	2.59	276	2.88	281	0.7	76	-3.1	638	1377	959.1	NA	0.0000		9999	4070	0	0	0
2017/11/24 18:35:00	BASE	2.62	277	2.88	281	0.6	77	-3.0	640	1382	959.1	NA	0.0000		9999	4040	0	0	0
2017/11/24 18:36:00	BASE	2.56	280	2.88	281	0.6	77	-3.0	658	1413	959.1	NA	0.0000		9999	4070	0	0	0
2017/11/24 18:37:00	BASE	2.51	280	2.88	281	0.6	77	-3.0	646	1392	959.1	NA	0.0000		9999	4100	0	0	0
2017/11/24 18:38:00	BASE	2.64	279	3.09	278	0.6	77	-3.0	653	1405	959.1	NA	0.0000		9999	5350	0	0	0
2017/11/24 18:39:00	BASE	2.74	283	3.09	278	0.5	77	-3.0	660	1419	959.2	NA	0.0000		9999	5410	0	0	0
2017/11/24 18:40:00	BASE	2.78	283	3.09	276	0.5	78	-3.0	674	1444	959.1	NA	0.0000		9999	5380	0	0	0
2017/11/24 18:41:00	BASE	2.87	278	3.09	271	0.5	78	-2.9	681	1457	959.2	NA	0.0000		9999	4040	0	0	0
2017/11/24 18:42:00	BASE	2.88	274	3.14	276	0.5	79	-2.8	681	1456	959.2	NA	0.0000		9999	4170	0	0	0
2017/11/24 18:43:00	BASE	2.84	274	3.14	276	0.5	79	-2.7	679	1452	959.2	NA	0.0000		9999	3640	0	0	0
2017/11/24 18:44:00	BASE	2.80	276	3.14	276	0.5	79	-2.6	684	1460	959.2	NA	0.0000		9999	3640	6430	0	0
2017/11/24 18:45:00	BASE	2.79	277	3.14	276	0.6	80	-2.5	684	1461	959.2	NA	0.0000		9999	3610	0	0	0
2017/11/24 18:46:00	BASE	2.83	278	3.14	276	0.7	80	-2.4	687	1468	959.2	NA	0.0000		9999	3640	0	0	0
2017/11/24 18:47:00	BASE	3.02	280	3.45	282	0.7	80	-2.4	688	1468	959.2	NA	0.0000		9999	3610	0	0	0
2017/11/24 18:48:00	BASE	3.13	280	3.45	282	0.8	79	-2.4	687	1467	959.2	NA	0.0000		9999	3580	0	0	0
2017/11/24 18:49:00	BASE	3.11	282	3.45	282	0.9	78	-2.5	684	1462	959.2	NA	0.0000		9999	3610	0	0	0
2017/11/24 18:50:00	BASE	3.20	284	3.45	289	1.0	77	-2.6	682	1458	959.2	NA	0.0000		9999	3710	0	0	0
2017/11/24 18:51:00	BASE	3.32	282	3.55	278	1.0	76	-2.8	676	1444	959.2	NA	0.0000		9999	3810	0	0	0
2017/11/24 18:52:00	BASE	3.31	279	3.55	278	1.0	75	-2.9	679	1451	959.2	NA	0.0000		9999	3810	0	0	0
2017/11/24 18:53:00	BASE	3.15	279	3.55	278	1.1	74	-3.0	679	1453	959.2	NA	0.0000		9999	3770	0	0	0
2017/11/24 18:54:00	BASE	2.94	279	3.55	278	1.2	74	-3.0	679	1452	959.3	NA	0.0000		9999	3410	0	0	0
2017/11/24 18:55:00	BASE	3.00	276	3.55	278	1.2	73	-3.1	682	1457	959.3	NA	0.0000		9999	3450	0	0	0
2017/11/24 18:56:00	BASE	3.22	273	3.55	278	1.2	73	-3.2	686	1466	959.4	NA	0.0000		9999	3510	0	0	0
2017/11/24 18:57:00	BASE	3.24	271	3.65	269	1.1	73	-3.3	687	1468	959.4	NA	0.0000		9999	3640	0	0	0
2017/11/24 18:58:00	BASE	3.07	271	3.65	269	0.9	73	-3.4	683	1460	959.4	NA	0.0000		9999	3640	0	0	0
2017/11/24 18:59:00	BASE	2.77	273	3.65	269	0.8	73	-3.5	684	1461	959.4	NA	0.0000		9999	3580	0	0	0
2017/11/24 19:00:00	BASE	2.56	273	3.65	269	0.8	73	-3.4	682	1458	959.4	NA	0.0000		9999	3580	0	0	0
2017/11/24 19:01:00	BASE	2.38	272	3.65	269	0.8	74	-3.3	678	1447	959.4	NA	0.0000		9999	3640	5050	0	0
2017/11/24 19:02:00	BASE	2.20	264	3.65	269	0.9	74	-3.2	675	1443	959.4	NA	0.0000		9999	3710	4950	0	0
2017/11/24 19:03:00	BASE	2.21	256	3.65	269	0.9	75	-3.1	680	1448	959.4	NA	0.0000		9999	3610	0	0	0
2017/11/24 19:04:00	BASE	2.18	255	3.65	269	0.8	76	-2.9	645	1391	959.4	NA	0.0000		9999	3610	0	0	0
2017/11/24 19:05:00	BASE	2.19	247	3.65	269	0.7	77	-2.8	696	1481	959.4	NA	0.0000		9999	3510	0	0	0
2017/11/24 19:06:00	BASE	2.21	237	3.65	269	0.6	79	-2.7	704	1495	959.5	NA	0.0000		9999	3670	4660	0	0
2017/11/24 19:07:00	BASE	2.09	242	3.09	250	0.5	80	-2.5	714	1513	959.5	NA	0.0000		9999	3710	0	0	0
2017/11/24 19:08:00	BASE	2.00	252	3.09	250	0.5	81	-2.3	715	1514	959.5	NA	0.0000		9999	3840	0	0	0
2017/11/24 19:09:00	BASE	1.94	247	3.09	250	0.5	82	-2.2	719	1515	959.5	NA	0.0000		9999	3810	0	0	0
2017/11/24 19:10:00	BASE	2.21	246	3.09	257	0.6	83	-2.0	532	1177	959.5	NA	0.0000		9999	3740	0	0	0
2017/11/24 19:11:00	BASE	2.72	253	3.60	264	0.5	83	-2.0	498	1109	959.5	NA	0.0000		9999	1900	3840	0	0
2017/11/24 19:12:00	BASE	3.32	255	4.68	251	0.5	83	-2.1	525	1163	959.5	NA	0.0000		9999	3810	0	0	0
2017/11/24 19:13:00	BASE	3.63	254	4.68	251	0.4	83	-2.1	631	1361	959.5	NA	0.0000		9999	3710	0	0	0
2017/11/24 19:14:00	BASE	3.33	253	4.68	251	0.4	83	-2.1	677	1442	959.5	NA	0.0000		9999	3710	7970	0	0
2017/11/24 19:15:00	BASE	3.84	256	4.94	259	0.3	84	-2.2	696	1477	959.5	NA	0.0000		9999	3640	0	0	0
2017/11/24 19:16:00	BASE	4.32	260	4.94	259	0.2	84	-2.2	581	1263	959.6	NA	0.0000		9999	3670	0	0	0
2017/11/24 19:17:00	BASE	3.84	262	4.94	259	0.2	84	-2.2	497	1103	959.6	NA	0.0000		9999	7970	0	0	0
2017/11/24 19:18:00	BASE	3.78	264	4.94	259	0.2	84	-2.2	411	939	959.6	NA	0.0000		9999	0	0	0	0
2017/11/24 19:19:00	BASE	3.93	263	4.94	259	0.1	84	-2.2	345	802	959.6	NA	0.0000		9999	8040	0	0	0
2017/11/24 19:20:00	BASE	4.03	264	4.94	259	0.1	84	-2.3	478	1073	959.6	NA	0.0000		9999	8010	0	0	0
2017/11/24 19:21:00	BASE	4.01	264	4.94	259	0.1	84	-2.3	431	981	959.7	NA	0.0000		9999	8040	0	0	0
2017/11/24 19:22:00	BASE	3.80	262	4.94	259	0.1	84	-2.4	829	1515	959.7	NA	0.0000		9999	8070	0	0	0
2017/11/24 19:23:00	BASE	3.63	261	4.94	259	0.1	84	-2.3	478	1068	959.7	NA	0.0000		9999	8040	0	0	0
2017/11/24 19:24:00	BASE	3.53	261	4.94	259	0.1	84	-2.3	541	1187	959.7	NA	0.0000		9999	8100	0	0	0
2017/11/24 19:25:00	BASE	3.49	259	4.68	260	0.1	84	-2.3	508	1129	959.7	NA	0.0000		9999	8100	0	0	0
2017/11/24 19:26:00	BASE	3.48	257	4.68	260	0.1	84	-2.2	472	1064	959.7	NA	0.0000		9999	8200	0	0	0
2017/11/24 19:27:00	BASE	3.37	254	4.68	260	0.2	84	-2.1	682	1451	959.7	NA	0.0000		9999	8170	0	0	0
2017/11/24 19:28:00	BASE	3.28	256	4.63	265	0.2	84	-2.2	769	1515	959.7	NA	0.0000		9999	8170	0	0	0
2017/11/24 19:29:00	BASE	3.24	260	4.63	265	0.1	85	-2.2	550	1207	959.7	NA	0.0000		9999	8170	0	0	0
2017/11/24 19:30:00	BASE	3.37	259	4.37	254	0.1	85	-2.2	749	1515	959.7	NA	0.0000		9999	8140	0	0	0
2017/11/24 19:31:00	BASE	3.35	255	4.37	254	0.1	85	-2.2	651	1396	959.7	NA	0.0000		9999	8200	0	0	0
2017/11/24 19:32:00	BASE	2.98	251	4.22	252	0.2	84	-2.2	720	1515	959.7	NA	0.0000		9999	8200	0	0	0
2017/11/24 19:33:00	BASE	3.20	255	4.22	252	0.2	84	-2.2	681	1449	959.7	NA	0.0000		9999	8240	0	0	0
2017/11/24 19:34:00	BASE	3.46	259	4.22	263	0.2	84	-2.2	570	1248	959.7	NA	0.0000		9999	8240	0	0	0
2017/11/24 19:35:00	BASE	3.73	259	4.53	257	0.1	84	-2.3	529	1169	959.7	NA	0.0000		9999	8270	0	0	0
2017/11/24 19:36:00	BASE	4.09	259	4.53	257	0.1	84	-2.3	531	1168	959.8	NA	0.0000		9999	8240	0	0	0
2017/11/24 19:37:00	BASE	4.04	260	4.53	257	-0.0	84	-2.4	690	1459	959.8	NA	0.0000		9999	8330	0	0	0
2017/11/24 19:38:00	BASE	3.68	258	4.53	257	-0.1	84	-2.4	653	1388	959.8	NA	0.0000		9999	8300	0	0	0
2017/11/24 19:39:00	BASE	3.55	257	4.53	257	-0.1	85	-2.4	524	1155	959.8	NA	0.0000		9999	8240	23230	0	0
2017/11/24 19:40:00	BASE	3.59	261	4.53	257	-0.1	85	-2.3	720	1514	959.9	NA	0.0000		9999	8270	0	0	0
2017/11/24 19:41:00	BASE	3.85	262	4.58	261	-0.0	85	-2.3	555	1218	959.9	NA	0.0000		9999	8240	0	0	0
2017/11/24 19:42:00	BASE	4.24	261	4.58	262	-0.0	85	-2.3	627	1347	959.9	NA	0.0000		9999	8200	0	0	0
2017/11/24 19:43:00	BASE	3.95	263	4.58	262	-0.0	85	-2.3	727	1514	959.9	NA	0.0000		9999	8200	0	0	0
2017/11/24 19:44:00	BASE	3.60	262	4.58	262	0.0	85	-2.3	604	1304	959.9	NA	0.0000		9999	8240	0	0	0
2017/11/24 19:45:00	BASE	3.61	260	4.58	262	0.0	84	-2.3	462	1032	960.0	NA	0.0000		9999	8140	0	0	0
2017/11/24 19:46:00	BASE	3.79	263	4.58	262	0.0	84	-2.3	514	1130	960.0	NA	0.0000		9999	8240	0	0	0
2017/11/24 19:47:00	BASE	3.84	259	4.58	262	0.1	84	-2.3	751	1515	960.0	NA	0.0000		9999	8100	0	0	0
2017/11/24 19:48:00	BASE	3.79	257	4.58	262	0.1	84	-2.3	511	1123	960.0	NA	0.0000		9999	0	0	0	0
2017/11/24 19:49:00	BASE	3.81	259	4.58	262	0.1	84	-2.3	760	1515	960.0	NA	0.0000		9999	0	0	0	0
2017/11/24 19:50:00	BASE	3.82	258	4.58	262	0.1	83	-2.4	679	1428	960.0	NA	0.0000		9999	8170	0	0	0
2017/11/24 19:51:00	BASE	3.86	260	4.58	262	0.1	83	-2.4	633	1345	960.0	NA	0.0000		9999	8200	0	0	0
2017/11/24 19:52:00	BASE	4.18	261	4.68	267	0.0	83	-2.5	713	1489	960.0	NA	0.0000		9999	0	0	0	0
2017/11/24 19:53:00	BASE	4.34	261	4.68	267	-0.0	83	-2.6	692	1456	960.0	NA	0.0000		9999	8200	0	0	0
2017/11/24 19:54:00	BASE	4.16	259	4.68	267	-0.1	83	-2.6	711	1485	960.0	NA	0.0000		9999	8200	0	0	0
2017/11/24 19:55:00	BASE	3.77	258	4.68	267	-0.1	83	-2.6	587	1263	960.0	NA	0.0000		9999	8200	0	0	0
2017/11/24 19:56:00	BASE	3.28	256	4.68	267	-0.1	83	-2.6	667	1408	960.0	NA	0.0000		9999	8140	0	0	0
2017/11/24 19:57:00	BASE	3.10	255	4.68	267	-0.1	83	-2.5	663	1396	960.0	NA	0.0000		9999	8170	0	0	0
2017/11/24 19:58:00	BASE	3.27	257	4.68	267	0.0	84	-2.4	617	1316	960.0	NA	0.0000		9999	8170	0	0	0
2017/11/24 19:59:00	BASE	3.64	258	4.68	267	0.0	84	-2.4	603	1285	960.0	NA	0.0000		9999	8170	0	0	0
2017/11/24 20:00:00	BASE	3.49	259	4.68	267	0.0	84	-2.4	630	1334	960.0	NA	0.0000		9999	0	0	0	0
2017/11/24 20:01:00	BASE	3.39	261	4.68	267	0.0	83	-2.4	623	1321	960.0	NA	0.0000		9999	8140	0	0	0
2017/11/24 20:02:00	BASE	3.44	260	4.48	257	0.0	83	-2.5	587	1254	960.0	NA	0.0000		9999	8140	0	0	0
2017/11/24 20:03:00	BASE	3.31	258	4.42	258	-0.0	83	-2.6	561	1205	960.0	NA	0.0000		9999	0	0	0	0
2017/11/24 20:04:00	BASE	3.53	259	4.42	258	-0.0	83	-2.6	565	1212	960.0	NA	0.0000		9999	0	0	0	0
2017/11/24 20:05:00	BASE	3.68	260	4.22	245	-0.0	83	-2.6	544	1178	960.0	NA	0.0000		9999	0	0	0	0
2017/11/24 20:06:00	BASE	3.65	260	4.22	245	-0.0	83	-2.6	558	1200	960.0	NA	0.0000		9999	8140	0	0	0
2017/11/24 20:07:00	BASE	3.85	261	4.37	253	-0.1	83	-2.6	545	1176	960.0	NA	0.0000		9999	0	0	0	0
2017/11/24 20:08:00	BASE	3.98	259	4.58	256	-0.1	83	-2.7	488	1066	960.1	NA	0.0000		9999	8170	0	0	0
2017/11/24 20:09:00	BASE	3.74	261	4.58	256	-0.1	83	-2.7	507	1103	960.1	NA	0.0000		9999	8140	0	0	0
2017/11/24 20:10:00	BASE	3.72	262	4.58	256	-0.1	82	-2.7	600	1271	960.1	NA	0.0000		9999	0	0	0	0
2017/11/24 20:11:00	BASE	3.85	262	4.58	256	-0.1	82	-2.8	592	1253	960.1	NA	0.0000		9999	0	0	0	0
2017/11/24 20:12:00	BASE	3.73	264	4.58	256	-0.1	82	-2.7	589	1248	960.1	NA	0.0000		9999	0	0	0	0
2017/11/24 20:13:00	BASE	3.71	263	4.58	256	0.0	83	-2.6	585	1240	960.1	NA	0.0000		9999	0	0	0	0
2017/11/24 20:14:00	BASE	3.67	260	4.58	256	0.1	83	-2.5	584	1237	960.1	NA	0.0000		9999	0	0	0	0
2017/11/24 20:15:00	BASE	3.40	262	4.58	256	0.0	84	-2.4	579	1228	960.1	NA	0.0000		9999	8100	0	0	0
2017/11/24 20:16:00	BASE	3.11	265	4.58	256	0.1	84	-2.2	578	1228	960.1	NA	0.0000		9999	0	0	0	0
2017/11/24 20:17:00	BASE	3.02	253	4.58	256	0.2	85	-2.1	577	1225	960.1	NA	0.0000		9999	0	0	0	0
2017/11/24 20:18:00	BASE	3.13	243	4.22	256	0.2	85	-2.1	575	1221	960.2	NA	0.0000		9999	0	0	0	0
2017/11/24 20:19:00	BASE	3.07	248	4.22	256	0.2	85	-2.0	573	1213	960.2	NA	0.0000		9999	0	0	0	0
2017/11/24 20:20:00	BASE	2.77	247	4.22	256	0.2	85	-2.0	576	1219	960.2	NA	0.0000		9999	0	0	0	0
2017/11/24 20:21:00	BASE	2.68	243	4.12	260	0.1	85	-2.1	529	1073	960.2	NA	0.0000		9999	0	0	0	0
2017/11/24 20:22:00	BASE	2.83	243	4.01	255	0.0	85	-2.1	433	799	960.2	NA	0.0000		9999	0	0	0	0
2017/11/24 20:23:00	BASE	2.83	243	3.91	271	0.0	85	-2.1	341	739	960.2	NA	0.0000		9999	0	0	0	0
2017/11/24 20:24:00	BASE	2.97	244	3.91	271	0.0	85	-2.2	312	670	960.2	NA	0.0000		9999	0	0	0	0
2017/11/24 20:25:00	BASE	3.52	240	4.12	245	-0.0	86	-2.2	369	851	960.2	NA	0.0000		9999	0	0	0	0
2017/11/24 20:26:00	BASE	3.71	238	4.12	245	-0.1	86	-2.2	375	943	960.2	NA	0.0000		9999	0	0	0	0
2017/11/24 20:27:00	BASE	3.54	239	4.12	245	-0.1	86	-2.2	484	1049	960.3	NA	0.0000		9999	0	0	0	0
2017/11/24 20:28:00	BASE	3.15	243	4.12	245	-0.2	86	-2.2	491	1060	960.3	NA	0.0000		9999	0	0	0	0
2017/11/24 20:29:00	BASE	3.03	250	4.12	245	-0.2	86	-2.2	525	1120	960.3	NA	0.0000		9999	0	0	0	0
2017/11/24 20:30:00	BASE	3.21	253	4.12	245	-0.2	87	-2.2	553	1170	960.3	NA	0.0000		9999	0	0	0	0
2017/11/24 20:31:00	BASE	3.26	249	4.12	245	-0.2	87	-2.2	515	1096	960.3	NA	0.0000		9999	0	0	0	0
2017/11/24 20:32:00	BASE	3.39	247	4.12	245	-0.2	87	-2.1	478	1031	960.3	NA	0.0000		9999	0	0	0	0
2017/11/24 20:33:00	BASE	3.27	250	4.12	245	-0.2	87	-2.0	528	1126	960.3	NA	0.0000		9999	0	0	0	0
2017/11/24 20:34:00	BASE	3.17	248	4.12	245	-0.1	88	-1.9	508	1085	960.3	NA	0.0000		9999	0	0	0	0
2017/11/24 20:35:00	BASE	3.07	248	3.96	250	-0.1	88	-1.9	459	997	960.4	NA	0.0000		9999	0	0	0	0
2017/11/24 20:36:00	BASE	2.80	251	3.96	250	-0.1	88	-1.8	399	885	960.4	NA	0.0000		9999	0	0	0	0
2017/11/24 20:37:00	BASE	2.75	249	3.96	250	-0.0	88	-1.8	463	1004	960.4	NA	0.0000		9999	0	0	0	0
2017/11/24 20:38:00	BASE	2.98	245	3.96	250	0.0	88	-1.7	528	1116	960.4	NA	0.0000		9999	0	0	0	0
2017/11/24 20:39:00	BASE	3.05	244	3.96	250	0.0	88	-1.8	564	1181	960.4	NA	0.0000		9999	0	0	0	0
2017/11/24 20:40:00	BASE	2.98	246	3.96	250	0.0	88	-1.8	560	1173	960.4	NA	0.0000		9999	0	0	0	0
2017/11/24 20:41:00	BASE	2.84	252	3.96	250	0.0	87	-1.8	557	1167	960.4	NA	0.0000		9999	0	0	0	0
2017/11/24 20:42:00	BASE	3.01	257	3.91	249	0.0	87	-1.9	559	1168	960.4	NA	0.0000		9999	0	0	0	0
2017/11/24 20:43:00	BASE	3.29	259	4.12	262	0.0	87	-1.9	516	1091	960.4	NA	0.0000		9999	0	0	0	0
2017/11/24 20:44:00	BASE	3.26	258	4.12	240	0.0	87	-1.9	461	989	960.4	NA	0.0000		9999	0	0	0	0
2017/11/24 20:45:00	BASE	3.42	258	4.12	240	0.1	87	-1.9	402	882	960.4	NA	0.0000		9999	1180	0	0	0
2017/11/24 20:46:00	BASE	3.71	260	4.48	263	0.0	87	-1.9	352	797	960.4	NA	0.0000		9999	1180	0	0	0
2017/11/24 20:47:00	BASE	3.61	259	4.48	263	-0.0	87	-1.9	363	814	960.4	NA	0.0000		9999	1250	0	0	0
2017/11/24 20:48:00	BASE	3.10	251	4.48	263	-0.0	87	-1.9	384	851	960.4	NA	0.0000		9999	0	0	0	0
2017/11/24 20:49:00	BASE	2.89	247	4.48	263	-0.1	87	-1.9	295	681	960.4	NA	0.0000		9999	0	0	0	0
2017/11/24 20:50:00	BASE	3.22	255	4.48	263	-0.2	88	-2.0	365	815	960.4	NA	0.0000		9999	1210	0	0	0
2017/11/24 20:51:00	BASE	3.83	261	4.48	257	-0.2	88	-2.0	417	913	960.4	NA	0.0000		9999	1480	0	0	0
2017/11/24 20:52:00	BASE	3.99	259	4.48	257	-0.3	88	-2.0	353	791	960.4	NA	0.0000		9999	0	0	0	0
2017/11/24 20:53:00	BASE	3.71	258	4.48	257	-0.4	88	-2.1	455	976	960.4	NA	0.0000		9999	0	0	0	0
2017/11/24 20:54:00	BASE	3.64	260	4.48	257	-0.4	88	-2.1	380	831	960.4	NA	0.0000		9999	0	0	0	0
2017/11/24 20:55:00	BASE	3.67	260	4.48	257	-0.4	89	-2.1	263	617	960.5	NA	0.0000		9999	0	0	0	0
2017/11/24 20:56:00	BASE	3.72	259	4.48	257	-0.5	89	-2.1	366	813	960.5	NA	0.0000		9999	0	0	0	0
2017/11/24 20:57:00	BASE	3.73	259	4.48	257	-0.5	89	-2.1	253	593	960.6	NA	0.0000		9999	0	0	0	0
2017/11/24 20:58:00	BASE	3.64	258	4.48	257	-0.6	89	-2.2	420	916	960.6	NA	0.0000		9999	0	0	0	0
2017/11/24 20:59:00	BASE	3.42	257	4.48	257	-0.6	89	-2.2	238	556	960.6	NA	0.0000		9999	0	0	0	0
2017/11/24 21:00:00	BASE	3.24	257	4.48	257	-0.6	89	-2.2	274	631	960.6	NA	0.0000		9999	0	0	0	0
2017/11/24 21:01:00	BASE	3.09	259	4.37	259	-0.6	89	-2.2	427	920	960.6	NA	0.0000		9999	7680	0	0	0
2017/11/24 21:02:00	BASE	2.97	256	4.17	262	-0.6	89	-2.2	266	609	960.6	NA	0.0000		9999	0	0	0	0
2017/11/24 21:03:00	BASE	2.77	254	4.17	262	-0.5	89	-2.1	309	699	960.6	NA	0.0000		9999	7680	0	0	0
2017/11/24 21:04:00	BASE	2.53	252	4.12	252	-0.4	89	-2.0	311	702	960.6	NA	0.0000		9999	0	0	0	0
2017/11/24 21:05:00	BASE	2.65	249	4.06	261	-0.4	89	-2.0	275	623	960.6	NA	0.0000		9999	0	0	0	0
2017/11/24 21:06:00	BASE	2.95	254	3.91	253	-0.4	89	-2.0	291	659	960.6	NA	0.0000		9999	7550	0	0	0
2017/11/24 21:07:00	BASE	3.29	258	4.12	263	-0.4	89	-1.9	292	661	960.6	NA	0.0000		9999	7640	0	0	0
2017/11/24 21:08:00	BASE	3.19	258	4.12	263	-0.4	89	-1.9	284	638	960.6	NA	0.0000		9999	7640	0	0	0
2017/11/24 21:09:00	BASE	2.79	255	4.12	263	-0.4	90	-1.9	308	689	960.6	NA	0.0000		9999	7610	0	0	0
2017/11/24 21:10:00	BASE	2.70	249	4.12	263	-0.4	90	-1.9	292	657	960.7	NA	0.0000		9999	7640	0	0	0
2017/11/24 21:11:00	BASE	2.75	250	4.12	263	-0.4	90	-1.9	284	639	960.6	NA	0.0000		9999	7680	0	0	0
2017/11/24 21:12:00	BASE	2.82	257	4.12	263	-0.5	90	-1.9	287	645	960.7	NA	0.0000		9999	7640	0	0	0
2017/11/24 21:13:00	BASE	2.73	258	4.12	263	-0.5	90	-1.9	285	637	960.7	NA	0.0000		9999	7640	0	0	0
2017/11/24 21:14:00	BASE	2.91	261	4.12	263	-0.5	90	-1.9	298	667	960.7	NA	0.0000		9999	7680	0	0	0
2017/11/24 21:15:00	BASE	3.18	263	4.12	263	-0.5	90	-1.9	375	819	960.7	NA	0.0000		9999	7640	0	0	0
2017/11/24 21:16:00	BASE	3.14	262	4.12	263	-0.4	90	-1.8	298	659	960.8	NA	0.0000		9999	7680	0	0	0
2017/11/24 21:17:00	BASE	3.07	261	3.76	245	-0.4	91	-1.8	329	728	960.8	NA	0.0000		9999	7640	0	0	0
2017/11/24 21:18:00	BASE	2.95	261	3.65	261	-0.4	91	-1.7	300	664	960.8	NA	0.0000		9999	7680	0	0	0
2017/11/24 21:19:00	BASE	2.81	258	3.65	261	-0.4	91	-1.7	308	683	960.8	NA	0.0000		9999	7640	0	0	0
2017/11/24 21:20:00	BASE	2.55	254	3.65	261	-0.4	91	-1.7	325	717	960.8	NA	0.0000		9999	7640	0	0	0
2017/11/24 21:21:00	BASE	2.60	257	3.65	261	-0.4	91	-1.7	323	713	960.8	NA	0.0000		9999	7640	0	0	0
2017/11/24 21:22:00	BASE	2.95	263	3.65	261	-0.5	91	-1.8	317	698	960.8	NA	0.0000		9999	7610	0	0	0
2017/11/24 21:23:00	BASE	2.86	261	3.65	261	-0.5	91	-1.8	326	716	960.8	NA	0.0000		9999	7580	0	0	0
2017/11/24 21:24:00	BASE	2.65	261	3.60	253	-0.5	91	-1.8	350	765	960.8	NA	0.0000		9999	7610	0	0	0
2017/11/24 21:25:00	BASE	2.91	262	3.60	253	-0.6	91	-1.9	346	758	960.8	NA	0.0000		9999	7640	0	0	0
2017/11/24 21:26:00	BASE	2.91	262	3.60	253	-0.6	91	-1.9	293	650	960.8	NA	0.0000		9999	7510	18470	0	0
2017/11/24 21:27:00	BASE	2.85	266	3.60	253	-0.5	91	-1.8	283	631	960.8	NA	0.0000		9999	7580	0	0	0
2017/11/24 21:28:00	BASE	2.93	268	3.55	261	-0.4	91	-1.7	283	633	960.8	NA	0.0000		9999	7680	0	0	0
2017/11/24 21:29:00	BASE	2.81	267	3.55	261	-0.3	91	-1.6	290	646	960.9	NA	0.0000		9999	7640	0	0	0
2017/11/24 21:30:00	BASE	2.80	265	3.55	261	-0.3	91	-1.6	305	678	960.9	NA	0.0000		9999	7680	0	0	0
2017/11/24 21:31:00	BASE	2.71	262	3.55	261	-0.3	91	-1.6	317	698	960.9	NA	0.0000		9999	7680	0	0	0
2017/11/24 21:32:00	BASE	2.62	264	3.55	261	-0.3	91	-1.7	308	682	960.9	NA	0.0000		9999	7640	0	0	0
2017/11/24 21:33:00	BASE	2.80	264	3.55	261	-0.4	91	-1.7	347	758	960.9	NA	0.0000		9999	7580	0	0	0
2017/11/24 21:34:00	BASE	2.82	263	3.55	261	-0.5	91	-1.8	321	706	960.9	NA	0.0000		9999	7610	0	0	0
2017/11/24 21:35:00	BASE	2.73	263	3.45	261	-0.5	91	-1.8	488	1014	960.9	NA	0.0000		9999	7580	0	0	0
2017/11/24 21:36:00	BASE	2.61	263	3.45	261	-0.5	91	-1.8	413	871	960.9	NA	0.0000		9999	1250	7640	0	0
2017/11/24 21:37:00	BASE	2.41	265	3.40	263	-0.4	91	-1.7	314	689	960.9	NA	0.0000		9999	1080	7680	0	0
2017/11/24 21:38:00	BASE	2.50	267	3.40	263	-0.4	91	-1.7	296	654	960.9	NA	0.0000		9999	1180	0	0	0
2017/11/24 21:39:00	BASE	2.48	263	3.40	263	-0.3	91	-1.6	330	717	960.9	NA	0.0000		9999	1180	7680	0	0
2017/11/24 21:40:00	BASE	2.52	249	3.24	265	-0.3	91	-1.6	317	693	960.9	NA	0.0000		9999	890	7640	0	0
2017/11/24 21:41:00	BASE	2.77	241	3.24	265	-0.4	91	-1.6	279	618	960.9	NA	0.0000		9999	1150	7640	0	0
2017/11/24 21:42:00	BASE	2.88	244	3.65	236	-0.4	91	-1.7	283	629	960.9	NA	0.0000		9999	1020	0	0	0
2017/11/24 21:43:00	BASE	2.78	250	3.65	236	-0.5	91	-1.7	274	610	960.9	NA	0.0000		9999	1150	0	0	0
2017/11/24 21:44:00	BASE	2.69	255	3.65	236	-0.6	92	-1.8	320	701	960.9	NA	0.0000		9999	1150	0	0	0
2017/11/24 21:45:00	BASE	2.60	251	3.65	236	-0.7	92	-1.8	292	644	961.0	NA	0.0000		9999	1080	0	0	0
2017/11/24 21:46:00	BASE	2.34	248	3.65	236	-0.7	93	-1.7	261	578	961.0	NA	0.0000		9999	1180	0	0	0
2017/11/24 21:47:00	BASE	2.36	254	3.65	236	-0.7	93	-1.7	271	601	961.0	NA	0.0000		9999	980	4790	0	0
2017/11/24 21:48:00	BASE	2.53	265	3.65	236	-0.7	93	-1.6	245	550	961.0	NA	0.0000		9999	1020	4890	0	0
2017/11/24 21:49:00	BASE	2.71	266	3.65	236	-0.6	93	-1.6	218	496	961.0	NA	0.0000		9999	1120	0	0	0
2017/11/24 21:50:00	BASE	2.43	256	3.65	236	-0.6	93	-1.6	202	464	961.0	NA	0.0000		9999	1120	0	0	0
2017/11/24 21:51:00	BASE	2.12	248	3.65	236	-0.6	93	-1.6	194	449	961.0	NA	0.0000		9999	1150	4950	0	0
2017/11/24 21:52:00	BASE	2.11	248	3.40	254	-0.6	92	-1.7	195	450	961.0	NA	0.0000		9999	1180	5020	0	0
2017/11/24 21:53:00	BASE	2.43	256	3.60	264	-0.6	92	-1.7	206	470	961.0	NA	0.0000		9999	1150	0	0	0
2017/11/24 21:54:00	BASE	3.00	262	3.60	264	-0.7	92	-1.8	209	476	961.0	NA	0.0000		9999	1050	0	0	0
2017/11/24 21:55:00	BASE	2.96	265	3.60	264	-0.8	92	-1.9	202	461	961.0	NA	0.0000		9999	1120	0	0	0
2017/11/24 21:56:00	BASE	2.64	267	3.60	264	-0.8	92	-1.9	193	442	961.0	NA	0.0000		9999	1120	5050	0	0
2017/11/24 21:57:00	BASE	2.54	269	3.60	264	-0.7	92	-1.8	187	430	961.0	NA	0.0000		9999	4460	0	0	0
2017/11/24 21:58:00	BASE	2.72	272	3.60	264	-0.6	92	-1.8	188	433	961.0	NA	0.0000		9999	4460	0	0	0
2017/11/24 21:59:00	BASE	2.82	272	3.60	264	-0.5	92	-1.7	193	440	961.1	NA	0.0000		9999	4460	4890	0	0
2017/11/24 22:00:00	BASE	2.67	271	3.60	264	-0.5	92	-1.6	201	456	961.1	NA	0.0000		9999	4920	7550	0	0
2017/11/24 22:01:00	BASE	2.52	265	3.60	264	-0.5	92	-1.7	219	492	961.1	NA	0.0000		9999	1150	7480	0	0
2017/11/24 22:02:00	BASE	2.33	263	3.60	264	-0.5	92	-1.7	223	499	961.1	NA	0.0000		9999	1250	4400	0	0
2017/11/24 22:03:00	BASE	2.37	263	3.34	258	-0.5	92	-1.7	234	517	961.1	NA	0.0000		9999	1150	4360	21030	0
2017/11/24 22:04:00	BASE	2.42	262	3.24	265	-0.6	92	-1.7	233	514	961.1	NA	0.0000		9999	1180	4400	0	0
2017/11/24 22:05:00	BASE	2.20	262	3.24	265	-0.5	92	-1.7	226	498	961.1	NA	0.0000		9999	1120	4360	21460	0
2017/11/24 22:06:00	BASE	2.42	263	3.70	263	-0.5	92	-1.6	214	475	961.1	NA	0.0000		9999	1150	4400	0	0
2017/11/24 22:07:00	BASE	2.78	264	3.70	263	-0.5	92	-1.6	202	452	961.1	NA	0.0000		9999	1210	4490	0	0
2017/11/24 22:08:00	BASE	2.63	263	3.70	263	-0.6	92	-1.7	193	434	961.1	NA	0.0000		9999	4430	0	0	0
2017/11/24 22:09:00	BASE	2.28	264	3.70	263	-0.7	92	-1.8	188	425	961.1	NA	0.0000		9999	1120	4560	0	0
2017/11/24 22:10:00	BASE	2.13	268	3.70	263	-0.7	92	-1.8	186	422	961.1	NA	0.0000		9999	4460	0	0	0
2017/11/24 22:11:00	BASE	2.26	270	3.70	263	-0.8	93	-1.8	188	424	961.1	NA	0.0000		9999	1120	4530	0	0
2017/11/24 22:12:00	BASE	2.28	267	3.70	263	-0.7	93	-1.8	189	426	961.1	NA	0.0000		9999	1120	4530	0	0
2017/11/24 22:13:00	BASE	2.21	266	3.70	263	-0.6	93	-1.6	190	427	961.1	NA	0.0000		9999	4460	0	0	0
2017/11/24 22:14:00	BASE	2.24	270	3.70	263	-0.5	93	-1.5	189	424	961.1	NA	0.0000		9999	1210	1710	4630	0
2017/11/24 22:15:00	BASE	2.20	264	3.70	263	-0.5	93	-1.5	187	418	961.1	NA	0.0000		9999	1210	1670	4660	0
2017/11/24 22:16:00	BASE	2.23	252	3.34	263	-0.4	92	-1.5	184	413	961.1	NA	0.0000		9999	1150	1710	4660	0
2017/11/24 22:17:00	BASE	2.24	251	2.88	260	-0.5	92	-1.5	183	410	961.1	NA	0.0000		9999	1150	1770	0	0
2017/11/24 22:18:00	BASE	2.16	252	2.88	260	-0.5	92	-1.6	182	407	961.1	NA	0.0000		9999	1180	0	0	0
2017/11/24 22:19:00	BASE	2.14	251	2.88	260	-0.6	92	-1.7	179	400	961.1	NA	0.0000		9999	1120	0	0	0
2017/11/24 22:20:00	BASE	2.12	243	2.88	260	-0.7	93	-1.8	175	392	961.1	NA	0.0000		9999	1180	0	0	0
2017/11/24 22:21:00	BASE	2.04	240	2.88	260	-0.8	93	-1.8	170	382	961.1	NA	0.0000		9999	1150	0	0	0
2017/11/24 22:22:00	BASE	2.08	251	2.88	260	-0.9	93	-1.8	165	372	961.1	NA	0.0000		9999	1150	4530	0	0
2017/11/24 22:23:00	BASE	2.25	261	2.78	242	-0.9	94	-1.8	162	366	961.1	NA	0.0000		9999	1080	4460	0	0
2017/11/24 22:24:00	BASE	2.15	259	2.78	242	-0.9	94	-1.8	160	362	961.1	NA	0.0000		9999	1020	4360	0	0
2017/11/24 22:25:00	BASE	2.00	262	2.78	242	-0.9	94	-1.7	162	364	961.1	NA	0.0000		9999	1540	4360	0	0
2017/11/24 22:26:00	BASE	2.19	268	2.73	273	-0.8	94	-1.6	163	366	961.1	NA	0.0000		9999	4460	0	0	0
2017/11/24 22:27:00	BASE	2.30	269	2.73	273	-0.8	95	-1.5	171	382	961.1	NA	0.0000		9999	4460	0	0	0
2017/11/24 22:28:00	BASE	2.27	268	2.83	272	-0.7	95	-1.5	170	380	961.1	NA	0.0000		9999	4200	0	0	0
2017/11/24 22:29:00	BASE	2.35	261	2.83	272	-0.6	95	-1.4	175	389	961.1	NA	0.0000		9999	1310	4170	0	0
2017/11/24 22:30:00	BASE	2.33	255	2.83	272	-0.6	94	-1.4	180	397	961.2	NA	0.0000		9999	4170	0	0	0
2017/11/24 22:31:00	BASE	2.23	256	2.83	272	-0.7	94	-1.5	183	403	961.2	NA	0.0000		9999	4460	0	0	0
2017/11/24 22:32:00	BASE	2.41	260	3.09	262	-0.8	94	-1.6	188	410	961.2	NA	0.0000		9999	4200	0	0	0
2017/11/24 22:33:00	BASE	2.47	262	3.09	262	-0.8	94	-1.7	188	411	961.2	NA	0.0000		9999	1150	4200	0	0
2017/11/24 22:34:00	BASE	2.17	266	3.09	262	-0.9	94	-1.7	199	432	961.1	NA	0.0000		9999	1180	0	0	0
2017/11/24 22:35:00	BASE	2.06	266	3.09	262	-0.9	94	-1.7	227	482	961.1	NA	0.0000		9999	1150	4430	0	0
2017/11/24 22:36:00	BASE	2.33	263	3.09	262	-0.8	94	-1.7	212	455	961.2	NA	0.0000		9999	1080	4460	23200	0
2017/11/24 22:37:00	BASE	2.52	262	3.09	262	-0.8	94	-1.7	210	450	961.1	NA	0.0000		9999	1080	4360	0	0
2017/11/24 22:38:00	BASE	2.51	266	3.09	262	-0.8	94	-1.6	215	460	961.1	NA	0.0000		9999	1020	4330	0	0
2017/11/24 22:39:00	BASE	2.64	272	3.09	262	-0.8	94	-1.6	214	456	961.2	NA	0.0000		9999	4040	0	0	0
2017/11/24 22:40:00	BASE	2.82	272	3.14	273	-0.8	94	-1.6	218	462	961.2	NA	0.0000		9999	4100	0	0	0
2017/11/24 22:41:00	BASE	2.71	267	3.14	273	-0.8	94	-1.6	243	509	961.2	NA	0.0000		9999	1120	4360	0	0
2017/11/24 22:42:00	BASE	2.50	263	3.14	273	-0.8	94	-1.6	287	585	961.2	NA	0.0000		9999	1050	0	0	0
2017/11/24 22:43:00	BASE	2.42	264	3.14	273	-0.8	94	-1.6	289	586	961.1	NA	0.0000		9999	980	0	0	0
2017/11/24 22:44:00	BASE	2.32	261	3.14	273	-0.8	94	-1.6	286	580	961.2	NA	0.0000		9999	980	0	0	0
2017/11/24 22:45:00	BASE	2.37	266	3.14	273	-0.8	94	-1.6	209	441	961.2	NA	0.0000		9999	1120	4590	0	0
2017/11/24 22:46:00	BASE	2.73	273	3.19	272	-0.7	94	-1.6	205	431	961.2	NA	0.0000		9999	1080	4690	0	0
2017/11/24 22:47:00	BASE	2.80	266	3.19	272	-0.7	94	-1.6	203	426	961.2	NA	0.0000		9999	4760	0	0	0
2017/11/24 22:48:00	BASE	2.52	266	3.19	272	-0.7	94	-1.6	199	419	961.2	NA	0.0000		9999	1020	4720	0	0
2017/11/24 22:49:00	BASE	2.53	272	3.19	272	-0.6	93	-1.6	195	410	961.2	NA	0.0000		9999	4690	0	0	0
2017/11/24 22:50:00	BASE	2.41	272	3.19	272	-0.6	93	-1.5	192	403	961.2	NA	0.0000		9999	4690	0	0	0
2017/11/24 22:51:00	BASE	2.18	272	3.19	272	-0.6	93	-1.6	189	397	961.2	NA	0.0000		9999	1020	4860	8990	0
2017/11/24 22:52:00	BASE	2.35	275	3.19	272	-0.5	93	-1.6	185	389	961.2	NA	0.0000		9999	980	9060	0	0
2017/11/24 22:53:00	BASE	2.43	276	3.19	272	-0.5	93	-1.6	184	387	961.2	NA	0.0000		9999	4460	8990	0	0
2017/11/24 22:54:00	BASE	2.25	267	3.19	272	-0.5	93	-1.6	189	395	961.2	NA	0.0000		9999	4560	0	0	0
2017/11/24 22:55:00	BASE	2.09	253	3.19	272	-0.6	92	-1.7	193	402	961.2	NA	0.0000		9999	980	4690	8860	0
2017/11/24 22:56:00	BASE	2.10	256	3.09	273	-0.6	93	-1.7	193	401	961.2	NA	0.0000		9999	980	0	0	0
2017/11/24 22:57:00	BASE	2.17	263	3.09	273	-0.7	93	-1.8	195	404	961.2	NA	0.0000		9999	980	4660	0	0
2017/11/24 22:58:00	BASE	1.88	262	3.09	273	-0.8	93	-1.8	193	400	961.2	NA	0.0000		9999	980	4360	0	0
2017/11/24 22:59:00	BASE	1.87	267	2.88	258	-0.8	93	-1.8	190	394	961.2	NA	0.0000		9999	950	0	0	0
2017/11/24 23:00:00	BASE	2.20	268	2.88	258	-0.8	93	-1.8	186	386	961.2	NA	0.0000		9999	1020	0	0	0
2017/11/24 23:01:00	BASE	2.39	269	3.09	267	-0.8	93	-1.8	181	377	961.2	NA	0.0000		9999	1050	4590	0	0
2017/11/24 23:02:00	BASE	2.40	276	3.09	267	-0.8	93	-1.8	182	377	961.2	NA	0.0000		9999	4630	0	0	0
2017/11/24 23:03:00	BASE	2.38	274	3.09	267	-0.7	93	-1.7	185	382	961.2	NA	0.0000		9999	1050	4630	0	0
2017/11/24 23:04:00	BASE	2.47	271	3.09	267	-0.7	93	-1.6	187	385	961.2	NA	0.0000		9999	1020	0	0	0
2017/11/24 23:05:00	BASE	2.45	271	3.09	267	-0.6	93	-1.6	188	387	961.2	NA	0.0000		9999	1080	0	0	0
2017/11/24 23:06:00	BASE	2.33	269	3.09	267	-0.6	93	-1.6	184	380	961.2	NA	0.0000		9999	1050	0	0	0
2017/11/24 23:07:00	BASE	2.22	271	3.09	267	-0.6	93	-1.5	176	365	961.2	NA	0.0000		9999	950	0	0	0
2017/11/24 23:08:00	BASE	2.26	272	3.09	267	-0.6	93	-1.6	170	356	961.2	NA	0.0000		9999	1020	1380	4460	0
2017/11/24 23:09:00	BASE	2.37	273	3.09	267	-0.6	93	-1.6	173	362	961.2	NA	0.0000		9999	1380	4490	0	0
2017/11/24 23:10:00	BASE	2.38	274	3.09	267	-0.6	93	-1.6	200	405	961.3	NA	0.0000		9999	4330	0	0	0
2017/11/24 23:11:00	BASE	2.19	273	3.04	265	-0.6	93	-1.6	248	482	961.3	NA	0.0000		9999	4270	0	0	0
2017/11/24 23:12:00	BASE	2.07	272	3.04	265	-0.6	93	-1.6	263	504	961.4	NA	0.0000		9999	4400	0	0	0
2017/11/24 23:13:00	BASE	2.13	275	3.04	265	-0.6	93	-1.6	234	457	961.3	NA	0.0000		9999	4460	0	0	0
2017/11/24 23:14:00	BASE	2.41	277	3.04	278	-0.6	93	-1.6	175	361	961.4	NA	0.0000		9999	1480	4460	0	0
2017/11/24 23:15:00	BASE	2.56	277	3.04	278	-0.5	92	-1.6	158	331	961.4	NA	0.0000		9999	1480	2130	0	0
2017/11/24 23:16:00	BASE	2.46	278	3.04	278	-0.6	92	-1.7	147	310	961.4	NA	0.0000		9999	2130	0	0	0
2017/11/24 23:17:00	BASE	2.48	278	3.04	278	-0.6	92	-1.7	138	293	961.4	NA	0.0000		9999	2130	4460	0	0
2017/11/24 23:18:00	BASE	2.60	276	3.04	278	-0.6	93	-1.6	132	282	961.4	NA	0.0000		9999	2200	0	0	0
2017/11/24 23:19:00	BASE	2.57	277	3.04	278	-0.6	92	-1.7	107	238	961.4	NA	0.0000		9999	1710	2360	0	0
2017/11/24 23:20:00	BASE	2.50	278	3.04	278	-0.6	92	-1.7	94	216	961.4	NA	0.0000		9999	1770	0	0	0
2017/11/24 23:21:00	BASE	2.58	276	3.04	278	-0.6	92	-1.7	85	197	961.4	NA	0.0000		9999	2400	4400	0	0
2017/11/24 23:22:00	BASE	2.46	274	3.04	278	-0.7	92	-1.8	79	185	961.4	NA	0.0000		9999	1870	2560	4400	0
2017/11/24 23:23:00	BASE	2.53	274	3.14	281	-0.7	92	-1.8	75	177	961.4	NA	0.0000		9999	2230	4430	0	0
2017/11/24 23:24:00	BASE	2.73	274	3.14	281	-0.7	93	-1.8	72	171	961.5	NA	0.0000		9999	1350	4430	0	0
2017/11/24 23:25:00	BASE	2.68	279	3.14	288	-0.7	93	-1.7	70	168	961.5	NA	0.0000		9999	1280	0	0	0
2017/11/24 23:26:00	BASE	2.31	287	3.14	288	-0.7	93	-1.7	70	166	961.5	NA	0.0000		9999	1180	0	0	0
2017/11/24 23:27:00	BASE	2.03	286	3.14	288	-0.7	93	-1.7	72	168	961.5	NA	0.0000		9999	1310	4460	0	0
2017/11/24 23:28:00	BASE	2.19	280	3.14	288	-0.7	92	-1.8	76	175	961.5	NA	0.0000		9999	1310	4400	0	0
2017/11/24 23:29:00	BASE	2.27	277	3.14	288	-0.7	92	-1.8	79	179	961.5	NA	0.0000		9999	1150	0	0	0
2017/11/24 23:30:00	BASE	2.30	271	3.14	288	-0.7	92	-1.8	80	181	961.5	NA	0.0000		9999	1150	4490	0	0
2017/11/24 23:31:00	BASE	2.38	279	3.14	288	-0.7	92	-1.8	80	180	961.5	NA	0.0000		9999	1210	2070	4460	0
2017/11/24 23:32:00	BASE	2.30	293	3.14	288	-0.7	93	-1.8	79	178	961.5	NA	0.0000		9999	1410	2170	4460	0
2017/11/24 23:33:00	BASE	2.01	294	3.14	288	-0.8	93	-1.8	78	175	961.5	NA	0.0000		9999	1250	0	0	0
2017/11/24 23:34:00	BASE	1.94	287	3.14	288	-0.8	93	-1.8	75	170	961.5	NA	0.0000		9999	1250	1970	0	0
2017/11/24 23:35:00	BASE	2.21	280	2.88	260	-0.8	93	-1.8	71	162	961.5	NA	0.0000		9999	1150	0	0	0
2017/11/24 23:36:00	BASE	2.32	281	2.88	260	-0.8	93	-1.8	67	155	961.5	NA	0.0000		9999	1080	0	0	0
2017/11/24 23:37:00	BASE	2.20	291	2.88	260	-0.8	93	-1.8	66	152	961.5	NA	0.0000		9999	1180	4490	0	0
2017/11/24 23:38:00	BASE	2.05	297	2.88	260	-0.8	93	-1.7	66	152	961.5	NA	0.0000		9999	2170	4590	0	0
2017/11/24 23:39:00	BASE	1.97	295	2.88	260	-0.8	93	-1.8	66	151	961.5	NA	0.0000		9999	1840	0	0	0
2017/11/24 23:40:00	BASE	1.94	293	2.78	265	-0.8	93	-1.8	66	151	961.5	NA	0.0000		9999	2000	0	0	0
2017/11/24 23:41:00	BASE	1.88	292	2.73	282	-0.8	93	-1.8	66	149	961.5	NA	0.0000		9999	2100	0	0	0
2017/11/24 23:42:00	BASE	2.10	291	2.73	282	-0.8	93	-1.8	65	147	961.5	NA	0.0000		9999	2300	4790	0	0
2017/11/24 23:43:00	BASE	2.34	296	2.73	282	-0.9	94	-1.8	64	145	961.5	NA	0.0000		9999	1180	2260	0	0
2017/11/24 23:44:00	BASE	2.33	298	2.73	282	-0.9	94	-1.8	63	143	961.5	NA	0.0000		9999	2170	0	0	0
2017/11/24 23:45:00	BASE	2.33	293	2.68	291	-0.9	94	-1.7	63	142	961.5	NA	0.0000		9999	2170	4950	0	0
2017/11/24 23:46:00	BASE	2.34	294	2.93	296	-0.8	94	-1.7	63	142	961.5	NA	0.0000		9999	2070	8730	0	0
2017/11/24 23:47:00	BASE	2.52	292	2.98	284	-0.8	94	-1.6	63	141	961.5	NA	0.0000		9999	2070	0	0	0
2017/11/24 23:48:00	BASE	2.82	291	3.14	297	-0.8	95	-1.6	63	140	961.5	NA	0.0000		9999	2130	0	0	0
2017/11/24 23:49:00	BASE	2.80	293	3.14	297	-0.8	95	-1.5	63	139	961.5	NA	0.0000		9999	2070	0	0	0
2017/11/24 23:50:00	BASE	2.69	293	3.14	297	-0.8	95	-1.5	63	138	961.5	NA	0.0000		9999	1310	1870	0	0
2017/11/24 23:51:00	BASE	2.65	294	3.14	297	-0.8	95	-1.5	62	137	961.6	NA	0.0000		9999	2070	0	0	0
2017/11/24 23:52:00	BASE	2.78	293	3.24	294	-0.9	95	-1.6	62	135	961.6	NA	0.0000		9999	2200	0	0	0
2017/11/24 23:53:00	BASE	2.74	291	3.24	294	-0.9	95	-1.6	60	132	961.6	NA	0.0000		9999	2230	0	0	0
2017/11/24 23:54:00	BASE	2.64	291	3.24	294	-0.8	95	-1.5	59	129	961.6	NA	0.0000		9999	2360	0	0	0
2017/11/24 23:55:00	BASE	2.84	288	3.24	294	-0.8	95	-1.6	58	127	961.6	NA	0.0000		9999	2130	2560	5120	0
2017/11/24 23:56:00	BASE	2.71	281	3.24	294	-0.8	95	-1.5	58	127	961.6	NA	0.0000		9999	2130	0	0	0
2017/11/24 23:57:00	BASE	2.44	279	3.24	294	-0.7	95	-1.5	60	130	961.6	NA	0.0000		9999	2070	0	0	0
2017/11/24 23:58:00	BASE	2.38	283	3.24	294	-0.7	95	-1.5	62	133	961.6	NA	0.0000		9999	2070	0	0	0
2017/11/24 23:59:00	BASE	2.42	286	3.24	294	-0.7	94	-1.5	65	137	961.6	NA	0.0000		9999	1840	0	0	0